ftp/pub/palmer/observations_modified/2019/June/AR190607_BASE.txt

Download

Sample DateTime	Unit Id	WS Avg 2min	WD Avg 2min	WGS 10min	WGD 10min	Air Temp	Rel Humidity	Dew Point	Pyranometer	Quantum	Air Pressure	Snow Level	Rainfall	PW Current	Visibility	CBase 1	CBase 2	CBase 3	Vert Vis
2019/06/07  00:00:00  BASE  1.53468  345  1.63464  343  -0.6  100   -0.6  0     0     986.3    NA       0.0000   -SN      BR    6000  1770 
2019/06/07  00:01:00  BASE  1.5288   346  1.63464  343  -0.7  100   -0.7  0     0     986.3    NA       0.0000   -SN      BR    6000  1770 
2019/06/07  00:02:00  BASE  1.54056  349  1.63464  343  -0.7  100   -0.7  0     0     986.3    NA       0.0000   -SN      BR    6000  1770 
2019/06/07  00:03:00  BASE  1.56408  354  1.63464  354  -0.7  100   -0.7  0     0     986.3    NA       0.0000   -SN      BR    6000  1740 
2019/06/07  00:04:00  BASE  1.55232  356  1.63464  354  -0.7  100   -0.7  0     0     986.3    NA       0.0000   -SN      BR    6000  1710 
2019/06/07  00:05:00  BASE  1.53468  359  1.63464  360  -0.8  100   -0.8  0     0     986.3    NA       0.0000   -SN      BR    6000  1710 
2019/06/07  00:06:00  BASE  1.48176  2    1.63464  360  -0.8  100   -0.8  0     0     986.3    NA       0.0000   BR       6000  1740  0    
2019/06/07  00:07:00  BASE  1.39356  2    1.63464  360  -0.8  100   -0.8  0     0     986.3    NA       0.0000   BR       6000  1770  0    
2019/06/07  00:08:00  BASE  1.323    3    1.63464  360  -0.9  100   -0.9  0     0     986.3    NA       0.0000   BR       6000  1770  0    
2019/06/07  00:09:00  BASE  1.30536  3    1.63464  360  -0.9  100   -0.9  0     0     986.3    NA       0.0000   BR       5000  1770  0    
2019/06/07  00:10:00  BASE  1.30536  5    1.63464  360  -0.9  100   -0.9  0     0     986.3    NA       0.0000   BR       5000  1770  0    
2019/06/07  00:11:00  BASE  1.2936   360  1.63464  360  -0.9  100   -0.9  0     0     986.3    NA       0.0000   BR       5000  1770  0    
2019/06/07  00:12:00  BASE  1.323    350  1.63464  360  -0.9  100   -0.9  0     0     986.3    NA       0.0000   BR       5000  1770  0    
2019/06/07  00:13:00  BASE  1.34652  350  1.63464  360  -0.9  100   -0.9  0     0     986.3    NA       0.0000   BR       5000  1800  0    
2019/06/07  00:14:00  BASE  1.35828  345  1.63464  360  -0.8  100   -0.8  0     0     986.3    NA       0.0000   BR       5000  0     0    
2019/06/07  00:15:00  BASE  1.44648  337  1.57584  333  -0.8  100   -0.8  0     0     986.3    NA       0.0000   BR       5000  0     0    
2019/06/07  00:16:00  BASE  1.45236  333  1.57584  333  -0.8  100   -0.8  0     0     986.3    NA       0.0000   BR       5000  1710  0    
2019/06/07  00:17:00  BASE  1.39356  332  1.57584  333  -0.8  100   -0.8  0     0     986.3    NA       0.0000   BR       5000  1640  0    
2019/06/07  00:18:00  BASE  1.39356  334  1.57584  333  -0.8  100   -0.8  0     0     986.3    NA       0.0000   BR       5000  1610  0    
2019/06/07  00:19:00  BASE  1.3818   332  1.57584  333  -0.7  100   -0.7  0     0     986.3    NA       0.0000   BR       5000  0     0    
2019/06/07  00:20:00  BASE  1.34064  329  1.57584  333  -0.7  100   -0.7  0     0     986.3    NA       0.0000   BR       5000  1540  0    
2019/06/07  00:21:00  BASE  1.29948  327  1.57584  333  -0.7  100   -0.7  0     0     986.3    NA       0.0000   BR       5000  1800  0    
2019/06/07  00:22:00  BASE  1.27596  325  1.57584  333  -0.7  100   -0.7  0     0     986.3    NA       0.0000   BR       5000  720   0    
2019/06/07  00:23:00  BASE  1.25244  324  1.57584  333  -0.7  100   -0.7  0     0     986.3    NA       0.0000   BR       5000  1770  0    
2019/06/07  00:24:00  BASE  1.27008  326  1.57584  333  -0.7  100   -0.7  0     0     986.3    NA       0.0000   BR       5000  0     0    
2019/06/07  00:25:00  BASE  1.27008  329  1.45236  331  -0.7  100   -0.7  0     0     986.3    NA       0.0000   BR       5000  1770  0    
2019/06/07  00:26:00  BASE  1.24656  331  1.42296  329  -0.7  100   -0.7  0     0     986.3    NA       0.0000   BR       5000  1540  0    
2019/06/07  00:27:00  BASE  1.19364  333  1.42296  329  -0.7  100   -0.7  0     0     986.3    NA       0.0000   BR       5000  1510  0    
2019/06/07  00:28:00  BASE  1.13484  334  1.42296  329  -0.6  100   -0.6  0     0     986.3    NA       0.0000   BR       5000  0     0    
2019/06/07  00:29:00  BASE  1.01724  338  1.39356  330  -0.6  100   -0.6  0     0     986.3    NA       0.0000   BR       5000  0     0    
2019/06/07  00:30:00  BASE  0.95844  344  1.35828  331  -0.6  100   -0.6  0     0     986.2    NA       0.0000   BR       5000  0     0    
2019/06/07  00:31:00  BASE  1.029    342  1.35828  331  -0.6  100   -0.6  0     0     986.3    NA       0.0000   BR       5000  620   0    
2019/06/07  00:32:00  BASE  1.04664  340  1.35828  331  -0.6  100   -0.6  0     0     986.3    NA       0.0000   BR       5000  590   1280 
2019/06/07  00:33:00  BASE  1.02312  342  1.35828  331  -0.6  100   -0.6  0     0     986.3    NA       0.0000   BR       5000  590   0    
2019/06/07  00:34:00  BASE  0.97608  356  1.35828  331  -0.6  100   -0.6  0     0     986.3    NA       0.0000   BR       5000  360   1610 
2019/06/07  00:35:00  BASE  0.95844  3    1.35828  331  -0.6  100   -0.6  0     0     986.3    NA       0.0000   BR       5000  0     0    
2019/06/07  00:36:00  BASE  1.05252  4    1.24068  2    -0.6  100   -0.6  0     0     986.3    NA       0.0000   BR       5000  0     0    
2019/06/07  00:37:00  BASE  1.09956  6    1.24068  2    -0.6  100   -0.6  0     0     986.3    NA       0.0000   UP       BR    5000  620  
2019/06/07  00:38:00  BASE  1.0584   3    1.24068  2    -0.6  100   -0.6  0     0     986.3    NA       0.0000   UP       BR    5000  660  
2019/06/07  00:39:00  BASE  1.13484  352  1.39356  349  -0.6  100   -0.6  0     0     986.3    NA       0.0000   UP       BR    5000  660  
2019/06/07  00:40:00  BASE  1.22892  346  1.39356  354  -0.7  100   -0.7  0     0     986.3    NA       0.0000   UP       BR    5000  660  
2019/06/07  00:41:00  BASE  1.22304  355  1.39356  354  -0.7  100   -0.7  0     0     986.3    NA       0.0000   UP       BR    5000  660  
2019/06/07  00:42:00  BASE  1.16424  357  1.39356  354  -0.7  100   -0.7  0     0     986.3    NA       0.0000   UP       BR    5000  0    
2019/06/07  00:43:00  BASE  1.10544  2    1.39356  354  -0.7  100   -0.7  0     0     986.3    NA       0.0000   UP       BR    5000  0    
2019/06/07  00:44:00  BASE  1.17012  1    1.39356  354  -0.6  100   -0.6  0     0     986.3    NA       0.0000   UP       BR    5000  0    
2019/06/07  00:45:00  BASE  1.21128  355  1.39356  354  -0.7  100   -0.7  0     0     986.3    NA       0.0000   BR       5000  0     0    
2019/06/07  00:46:00  BASE  1.2054   354  1.39356  344  -0.7  100   -0.7  0     0     986.3    NA       0.0000   BR       5000  0     0    
2019/06/07  00:47:00  BASE  1.27008  355  1.42296  9    -0.7  100   -0.7  0     0     986.3    NA       0.0000   BR       5000  660   0    
2019/06/07  00:48:00  BASE  1.22892  354  1.42296  9    -0.7  100   -0.7  0     0     986.3    NA       0.0000   BR       5000  620   0    
2019/06/07  00:49:00  BASE  1.1466   353  1.42296  9    -0.7  100   -0.7  0     0     986.3    NA       0.0000   BR       5000  0     0    
2019/06/07  00:50:00  BASE  1.176    358  1.42296  9    -0.7  100   -0.7  0     0     986.4    NA       0.0000   BR       5000  0     0    
2019/06/07  00:51:00  BASE  1.24656  4    1.42296  360  -0.7  100   -0.7  0     0     986.4    NA       0.0000   BR       5000  560   1380 
2019/06/07  00:52:00  BASE  1.24068  6    1.42296  360  -0.7  100   -0.7  0     0     986.4    NA       0.0000   BR       5000  0     0    
2019/06/07  00:53:00  BASE  1.22304  5    1.42296  360  -0.7  100   -0.7  0     0     986.4    NA       0.0000   BR       5000  0     0    
2019/06/07  00:54:00  BASE  1.2642   5    1.54056  16   -0.7  100   -0.7  0     0     986.4    NA       0.0000   BR       5000  0     0    
2019/06/07  00:55:00  BASE  1.19952  6    1.54056  16   -0.7  100   -0.7  0     0     986.4    NA       0.0000   BR       5000  0     0    
2019/06/07  00:56:00  BASE  1.17012  7    1.54056  16   -0.7  100   -0.7  0     0     986.4    NA       0.0000   BR       5000  0     0    
2019/06/07  00:57:00  BASE  1.15248  7    1.54056  16   -0.7  100   -0.7  0     0     986.4    NA       0.0000   BR       5000  0     0    
2019/06/07  00:58:00  BASE  1.01136  8    1.54056  16   -0.7  100   -0.7  0     0     986.4    NA       0.0000   BR       5000  0     0    
2019/06/07  00:59:00  BASE  0.98196  10   1.54056  16   -0.7  100   -0.7  0     0     986.4    NA       0.0000   BR       5000  0     0    
2019/06/07  01:00:00  BASE  1.06428  8    1.54056  16   -0.6  100   -0.6  0     0     986.4    NA       0.0000   BR       5000  0     0    
2019/06/07  01:01:00  BASE  0.95256  2    1.54056  16   -0.6  100   -0.6  0     0     986.4    NA       0.0000   BR       5000  0     0    
2019/06/07  01:02:00  BASE  0.9114   1    1.54056  16   -0.6  100   -0.6  0     0     986.4    NA       0.0000   BR       6000  720   0    
2019/06/07  01:03:00  BASE  1.04076  5    1.54056  16   -0.6  100   -0.6  0     0     986.4    NA       0.0000   UP       BR    9000  690  
2019/06/07  01:04:00  BASE  1.04076  4    1.42296  17   -0.6  100   -0.6  0     0     986.4    NA       0.0000   UP       BR    9999  690  
2019/06/07  01:05:00  BASE  1.04076  5    1.32888  6    -0.6  100   -0.6  0     0     986.4    NA       0.0000   UP       BR    9999  0    
2019/06/07  01:06:00  BASE  0.98784  7    1.29948  1    -0.6  100   -0.6  0     0     986.4    NA       0.0000   UP       BR    9999  660  
2019/06/07  01:07:00  BASE  0.80556  9    1.29948  1    -0.6  100   -0.6  0     0     986.4    NA       0.0000   UP       BR    9000  690  
2019/06/07  01:08:00  BASE  0.74088  9    1.29948  1    -0.6  100   -0.6  0     0     986.4    NA       0.0000   UP       BR    9999  660  
2019/06/07  01:09:00  BASE  0.81144  1    1.29948  1    -0.6  100   -0.6  0     0     986.4    NA       0.0000   UP       BR    9999  660  
2019/06/07  01:10:00  BASE  0.81144  357  1.29948  1    -0.6  100   -0.6  0     0     986.4    NA       0.0000   UP       BR    9999  620  
2019/06/07  01:11:00  BASE  0.77028  357  1.29948  1    -0.6  100   -0.6  0     0     986.4    NA       0.0000   UP       BR    9000  660  
2019/06/07  01:12:00  BASE  0.56448  360  1.29948  1    -0.6  100   -0.6  0     0     986.4    NA       0.0000   UP       BR    9000  660  
2019/06/07  01:13:00  BASE  0.18228  3    1.29948  1    -0.6  100   -0.6  0     0     986.4    NA       0.0000   UP       BR    9000  660  
2019/06/07  01:14:00  BASE  0        358  1.29948  1    -0.6  100   -0.6  0     0     986.4    NA       0.0000   UP       BR    8000  660  
2019/06/07  01:15:00  BASE  0        351  1.0584   15   -0.6  100   -0.6  0     0     986.4    NA       0.0000   UP       BR    7000  620  
2019/06/07  01:16:00  BASE  0        352  0.9996   353  -0.6  100   -0.6  0     0     986.4    NA       0.0000   UP       BR    8000  620  
2019/06/07  01:17:00  BASE  0        354  0.9996   353  -0.6  100   -0.6  0     0     986.4    NA       0.0000   UP       BR    8000  620  
2019/06/07  01:18:00  BASE  0        355  0.9996   353  -0.6  100   -0.6  0     0     986.4    NA       0.0000   UP       BR    7000  620  
2019/06/07  01:19:00  BASE  0        11   0.84672  351  -0.6  100   -0.6  0     0     986.4    NA       0.0000   UP       BR    8000  620  
2019/06/07  01:20:00  BASE  0        35   0.81732  347  -0.5  100   -0.5  0     0     986.4    NA       0.0000   UP       BR    7000  620  
2019/06/07  01:21:00  BASE  0        43   0.78792  352  -0.5  100   -0.5  0     0     986.4    NA       0.0000   UP       BR    7000  590  
2019/06/07  01:22:00  BASE  0        41   0        M    -0.5  100   -0.5  0     0     986.4    NA       0.0000   UP       BR    7000  590  
2019/06/07  01:23:00  BASE  0        41   0        M    -0.5  100   -0.5  0     0     986.4    NA       0.0000   UP       BR    7000  620  
2019/06/07  01:24:00  BASE  0        41   0        M    -0.5  100   -0.5  0     0     986.4    NA       0.0000   UP       BR    6000  620  
2019/06/07  01:25:00  BASE  0        41   0        M    -0.4  100   -0.4  0     0     986.4    NA       0.0000   UP       BR    6000  590  
2019/06/07  01:26:00  BASE  0        41   0        M    -0.4  100   -0.4  0     0     986.4    NA       0.0000   UP       BR    5000  620  
2019/06/07  01:27:00  BASE  0        41   0        M    -0.4  100   -0.4  0     0     986.4    NA       0.0000   UP       BR    6000  620  
2019/06/07  01:28:00  BASE  0        41   0        M    -0.4  100   -0.4  0     0     986.4    NA       0.0000   UP       BR    5000  590  
2019/06/07  01:29:00  BASE  0        41   0        M    -0.4  100   -0.4  0     0     986.4    NA       0.0000   UP       BR    6000  590  
2019/06/07  01:30:00  BASE  0        43   0        M    -0.4  100   -0.4  0     0     986.4    NA       0.0000   UP       BR    6000  590  
2019/06/07  01:31:00  BASE  0        44   0        M    -0.4  100   -0.4  0     0     986.4    NA       0.0000   UP       BR    6000  590  
2019/06/07  01:32:00  BASE  0        49   0        M    -0.4  100   -0.4  0     0     986.4    NA       0.0000   UP       BR    7000  590  
2019/06/07  01:33:00  BASE  0        53   0        M    -0.4  100   -0.4  0     0     986.4    NA       0.0000   UP       BR    7000  590  
2019/06/07  01:34:00  BASE  0.10584  52   0.66444  52   -0.4  100   -0.4  0     0     986.4    NA       0.0000   UP       BR    8000  620  
2019/06/07  01:35:00  BASE  0.44688  53   0.69384  56   -0.3  100   -0.3  0     0     986.4    NA       0.0000   UP       BR    8000  620  
2019/06/07  01:36:00  BASE  0.71736  55   0.81732  56   -0.3  100   -0.3  0     0     986.4    NA       0.0000   UP       BR    8000  620  
2019/06/07  01:37:00  BASE  0.79968  57   0.93492  65   -0.3  100   -0.3  0     0     986.4    NA       0.0000   UP       BR    8000  620  
2019/06/07  01:38:00  BASE  0.97608  65   1.27008  77   -0.3  100   -0.3  0     0     986.4    NA       0.0000   UP       BR    8000  620  
2019/06/07  01:39:00  BASE  1.2348   76   1.54056  79   -0.3  100   -0.3  0     0     986.5    NA       0.0000   UP       BR    8000  620  
2019/06/07  01:40:00  BASE  1.57584  78   1.84632  74   -0.3  100   -0.3  0     0     986.5    NA       0.0000   UP       BR    9000  660  
2019/06/07  01:41:00  BASE  1.764    75   2.0286   83   -0.3  100   -0.3  0     0     986.4    NA       0.0000   UP       BR    9999  620  
2019/06/07  01:42:00  BASE  1.8522   80   2.1462   88   -0.3  100   -0.3  0     0     986.4    NA       0.0000   UP       BR    9999  620  
2019/06/07  01:43:00  BASE  1.911    83   2.1462   88   -0.3  100   -0.3  0     0     986.4    NA       0.0000   UP       BR    9999  560  
2019/06/07  01:44:00  BASE  1.92864  80   2.1462   88   -0.3  100   -0.3  0     0     986.4    NA       0.0000   UP       BR    9000  520  
2019/06/07  01:45:00  BASE  1.86396  85   2.1462   88   -0.3  100   -0.3  0     0     986.4    NA       0.0000   UP       BR    9000  490  
2019/06/07  01:46:00  BASE  1.5876   94   2.1462   88   -0.3  100   -0.3  0     0     986.4    NA       0.0000   UP       BR    9000  490  
2019/06/07  01:47:00  BASE  1.51116  95   2.1462   88   -0.3  100   -0.3  0     0     986.4    NA       0.0000   UP       BR    9999  1250 
2019/06/07  01:48:00  BASE  1.54056  96   2.1462   88   -0.2  100   -0.2  0     0     986.4    NA       0.0000   UP       BR    9000  1250 
2019/06/07  01:49:00  BASE  1.49352  100  2.1462   88   -0.2  100   -0.2  0     0     986.4    NA       0.0000   UP       BR    9000  1250 
2019/06/07  01:50:00  BASE  1.49352  100  2.1462   88   -0.2  100   -0.2  0     0     986.4    NA       0.0000   UP       BR    9999  1250 
2019/06/07  01:51:00  BASE  1.48176  93   2.1462   88   -0.2  100   -0.2  0     0     986.4    NA       0.0000   UP       BR    9999  1210 
2019/06/07  01:52:00  BASE  1.34064  88   2.1168   83   -0.1  100   -0.1  0     0     986.5    NA       0.0000   UP       BR    9999  1180 
2019/06/07  01:53:00  BASE  1.24068  89   2.1168   83   -0.1  100   -0.1  0     0     986.5    NA       0.0000   UP       BR    9999  1180 
2019/06/07  01:54:00  BASE  1.38768  91   1.87572  87   -0.0  100   -0.0  0     0     986.5    NA       0.0000   UP       BR    9999  1120 
2019/06/07  01:55:00  BASE  1.56408  90   1.90512  88   0.0   100   0.0   0     0     986.5    NA       0.0000   UP       BR    9999  1150 
2019/06/07  01:56:00  BASE  1.617    88   1.90512  88   0.1   100   0.1   0     0     986.5    NA       0.0000   UP       BR    9999  1120 
2019/06/07  01:57:00  BASE  1.6758   89   1.90512  88   0.1   100   0.1   0     0     986.5    NA       0.0000   UP       9999  1080  0    
2019/06/07  01:58:00  BASE  1.69932  90   1.90512  88   0.1   100   0.1   0     0     986.5    NA       0.0000   UP       9999  1080  0    
2019/06/07  01:59:00  BASE  1.64052  89   1.90512  88   0.1   100   0.1   0     0     986.5    NA       0.0000   UP       9999  1080  0    
2019/06/07  02:00:00  BASE  1.61112  89   1.90512  88   0.1   100   0.1   0     0     986.5    NA       0.0000   UP       9999  1080  0    
2019/06/07  02:01:00  BASE  1.61112  88   1.90512  88   0.1   100   0.1   0     0     986.5    NA       0.0000   UP       9999  1080  0    
2019/06/07  02:02:00  BASE  1.55232  85   1.90512  88   0.1   100   0.1   0     0     986.5    NA       0.0000   UP       9999  1080  0    
2019/06/07  02:03:00  BASE  1.47588  83   1.90512  88   0.1   100   0.1   0     0     986.5    NA       0.0000   UP       9999  1080  0    
2019/06/07  02:04:00  BASE  1.47588  81   1.90512  88   0.1   100   0.1   0     0     986.5    NA       0.0000   UP       9999  1150  0    
2019/06/07  02:05:00  BASE  1.4406   78   1.87572  90   0.1   100   0.1   0     0     986.5    NA       0.0000   UP       9999  1280  0    
2019/06/07  02:06:00  BASE  1.37004  75   1.87572  90   0.2   100   0.2   0     0     986.5    NA       0.0000   UP       9999  1250  0    
2019/06/07  02:07:00  BASE  1.36416  72   1.87572  90   0.2   100   0.2   0     0     986.5    NA       0.0000   UP       9999  1210  0    
2019/06/07  02:08:00  BASE  1.32888  71   1.87572  90   0.3   100   0.3   0     0     986.5    NA       0.0000   UP       9999  1210  0    
2019/06/07  02:09:00  BASE  1.31124  72   1.87572  90   0.3   100   0.3   0     0     986.5    NA       0.0000   UP       9999  1210  0    
2019/06/07  02:10:00  BASE  1.38768  73   1.87572  90   0.3   100   0.3   0     0     986.4    NA       0.0000   UP       9999  1210  0    
2019/06/07  02:11:00  BASE  1.35828  74   1.63464  72   0.3   100   0.3   0     0     986.4    NA       0.0000   UP       9999  1210  0    
2019/06/07  02:12:00  BASE  1.36416  73   1.63464  72   0.3   100   0.3   0     0     986.4    NA       0.0000   9999     1210  0     0    
2019/06/07  02:13:00  BASE  1.42884  72   1.63464  72   0.3   100   0.3   0     0     986.4    NA       0.0000   9999     1180  0     0    
2019/06/07  02:14:00  BASE  1.35828  72   1.63464  72   0.3   100   0.3   0     0     986.5    NA       0.0000   9999     1180  0     0    
2019/06/07  02:15:00  BASE  1.22304  74   1.63464  72   0.4   100   0.4   0     0     986.5    NA       0.0000   9999     1180  0     0    
2019/06/07  02:16:00  BASE  1.19952  75   1.63464  72   0.4   100   0.4   0     0     986.5    NA       0.0000   9999     1150  0     0    
2019/06/07  02:17:00  BASE  1.16424  75   1.63464  72   0.4   100   0.4   0     0     986.5    NA       0.0000   9999     1120  0     0    
2019/06/07  02:18:00  BASE  1.11132  75   1.63464  72   0.4   100   0.4   0     0     986.5    NA       0.0000   9999     1120  0     0    
2019/06/07  02:19:00  BASE  1.17012  78   1.63464  72   0.4   100   0.4   0     0     986.5    NA       0.0000   9999     1150  0     0    
2019/06/07  02:20:00  BASE  1.10544  78   1.57584  69   0.4   100   0.4   0     0     986.5    NA       0.0000   9999     1120  0     0    
2019/06/07  02:21:00  BASE  1.08192  76   1.57584  69   0.5   100   0.5   0     0     986.5    NA       0.0000   9999     1180  0     0    
2019/06/07  02:22:00  BASE  1.1466   78   1.54056  73   0.5   100   0.5   0     0     986.5    NA       0.0000   9999     1210  0     0    
2019/06/07  02:23:00  BASE  1.01136  86   1.48176  79   0.5   100   0.5   0     0     986.5    NA       0.0000   9999     1250  0     0    
2019/06/07  02:24:00  BASE  0.92316  87   1.48176  79   0.5   100   0.5   0     0     986.5    NA       0.0000   9999     1250  0     0    
2019/06/07  02:25:00  BASE  0.9702   87   1.48176  79   0.5   100   0.5   0     0     986.5    NA       0.0000   9999     1250  0     0    
2019/06/07  02:26:00  BASE  1.05252  93   1.48176  79   0.4   100   0.4   0     0     986.5    NA       0.0000   9999     1250  0     0    
2019/06/07  02:27:00  BASE  1.12896  94   1.48176  79   0.4   100   0.4   0     0     986.5    NA       0.0000   9999     1250  0     0    
2019/06/07  02:28:00  BASE  0.92904  97   1.48176  79   0.3   100   0.3   0     0     986.5    NA       0.0000   9999     1280  0     0    
2019/06/07  02:29:00  BASE  0.5292   105  1.29948  95   0.3   100   0.3   0     0     986.5    NA       0.0000   9999     1310  0     0    
2019/06/07  02:30:00  BASE  0.441    111  1.29948  95   0.3   100   0.3   0     0     986.5    NA       0.0000   9999     1310  0     0    
2019/06/07  02:31:00  BASE  0.45864  112  1.29948  95   0.3   100   0.3   0     0     986.5    NA       0.0000   9999     1310  0     0    
2019/06/07  02:32:00  BASE  0.30576  98   1.29948  95   0.4   100   0.4   0     0     986.5    NA       0.0000   9999     1310  0     0    
2019/06/07  02:33:00  BASE  0.16464  89   1.29948  95   0.5   100   0.4   0     0     986.5    NA       0.0000   UP       9999  1310  0    
2019/06/07  02:34:00  BASE  0.02352  99   1.29948  95   0.5   100   0.5   0     0     986.5    NA       0.0000   UP       9999  1350  0    
2019/06/07  02:35:00  BASE  0.0294   106  1.29948  95   0.5   100   0.5   0     0     986.5    NA       0.0000   UP       9999  1310  0    
2019/06/07  02:36:00  BASE  0.19992  83   1.18188  97   0.6   100   0.6   0     0     986.5    NA       0.0000   UP       9999  1350  0    
2019/06/07  02:37:00  BASE  0.17052  87   1.0878   96   0.6   100   0.6   0     0     986.5    NA       0.0000   UP       9999  1510  0    
2019/06/07  02:38:00  BASE  0        119  0.81732  99   0.5   100   0.5   0     0     986.5    NA       0.0000   UP       9999  1540  0    
2019/06/07  02:39:00  BASE  0        112  0.81732  99   0.5   100   0.5   0     0     986.5    NA       0.0000   UP       9999  1570  0    
2019/06/07  02:40:00  BASE  0        101  0.78792  42   0.5   100   0.5   0     0     986.5    NA       0.0000   UP       9999  1570  0    
2019/06/07  02:41:00  BASE  0        104  0.78792  42   0.4   100   0.4   0     0     986.5    NA       0.0000   UP       9999  1570  0    
2019/06/07  02:42:00  BASE  0        112  0.78792  42   0.4   100   0.4   0     0     986.5    NA       0.0000   UP       9000  1570  0    
2019/06/07  02:43:00  BASE  0        117  0.78792  42   0.5   100   0.5   0     0     986.4    NA       0.0000   UP       8000  1570  0    
2019/06/07  02:44:00  BASE  0        116  0.78792  42   0.5   100   0.5   0     0     986.4    NA       0.0000   UP       8000  1570  0    
2019/06/07  02:45:00  BASE  0        117  0.78792  42   0.5   100   0.5   0     0     986.4    NA       0.0000   UP       BR    9000  390  
2019/06/07  02:46:00  BASE  0        115  0        M    0.5   100   0.5   0     0     986.4    NA       0.0000   UP       BR    8000  390  
2019/06/07  02:47:00  BASE  0        108  0        M    0.5   100   0.5   0     0     986.4    NA       0.0000   UP       BR    8000  360  
2019/06/07  02:48:00  BASE  0        112  0        M    0.5   100   0.5   0     0     986.4    NA       0.0000   UP       BR    8000  360  
2019/06/07  02:49:00  BASE  0        119  0        M    0.5   100   0.5   0     0     986.4    NA       0.0000   UP       BR    8000  1570 
2019/06/07  02:50:00  BASE  0        113  0        M    0.5   100   0.5   0     0     986.4    NA       0.0000   UP       BR    7000  1480 
2019/06/07  02:51:00  BASE  0        107  0        M    0.4   100   0.4   0     0     986.4    NA       0.0000   UP       BR    6000  1540 
2019/06/07  02:52:00  BASE  0        111  0        M    0.4   100   0.4   0     0     986.4    NA       0.0000   UP       BR    6000  1440 
2019/06/07  02:53:00  BASE  0        121  0        M    0.4   100   0.4   0     0     986.4    NA       0.0000   UP       BR    6000  1480 
2019/06/07  02:54:00  BASE  0        129  0        M    0.4   100   0.4   0     0     986.4    NA       0.0000   UP       BR    6000  1440 
2019/06/07  02:55:00  BASE  0        138  0        M    0.4   100   0.4   0     0     986.3    NA       0.2540   UP       BR    7000  1440 
2019/06/07  02:56:00  BASE  0        148  0        M    0.4   100   0.4   0     0     986.4    NA       0.0000   UP       BR    7000  1410 
2019/06/07  02:57:00  BASE  0        148  0        M    0.4   100   0.4   0     0     986.3    NA       0.0000   UP       BR    6000  1410 
2019/06/07  02:58:00  BASE  0        145  0        M    0.3   100   0.3   0     0     986.3    NA       0.0000   UP       BR    6000  1440 
2019/06/07  02:59:00  BASE  0        159  0        M    0.3   100   0.3   0     0     986.3    NA       0.0000   UP       BR    6000  1410 
2019/06/07  03:00:00  BASE  0        169  0        M    0.3   100   0.3   0     0     986.3    NA       0.0000   UP       BR    6000  1480 
2019/06/07  03:01:00  BASE  0        164  0        M    0.2   100   0.2   0     0     986.3    NA       0.0000   UP       BR    6000  1510 
2019/06/07  03:02:00  BASE  0        161  0        M    0.2   100   0.2   0     0     986.3    NA       0.0000   UP       BR    6000  1480 
2019/06/07  03:03:00  BASE  0        163  0        M    0.1   100   0.1   0     0     986.3    NA       0.0000   UP       BR    6000  1540 
2019/06/07  03:04:00  BASE  0        165  0        M    0.1   100   0.1   0     0     986.3    NA       0.0000   UP       BR    6000  1510 
2019/06/07  03:05:00  BASE  0        167  0        M    0.1   100   0.1   0     0     986.3    NA       0.0000   UP       BR    6000  1440 
2019/06/07  03:06:00  BASE  0        162  0        M    0.1   100   0.1   0     0     986.3    NA       0.0000   UP       BR    6000  1510 
2019/06/07  03:07:00  BASE  0        149  0        M    0.1   100   0.1   0     0     986.3    NA       0.0000   UP       BR    6000  1540 
2019/06/07  03:08:00  BASE  0        140  0        M    0.1   100   0.1   0     0     986.3    NA       0.0000   UP       BR    6000  1610 
2019/06/07  03:09:00  BASE  0        139  0        M    0.1   100   0.1   0     0     986.3    NA       0.0000   UP       BR    6000  1670 
2019/06/07  03:10:00  BASE  0        139  0        M    0.1   100   0.1   0     0     986.3    NA       0.0000   UP       BR    6000  0    
2019/06/07  03:11:00  BASE  0        138  0        M    0.1   100   0.1   0     0     986.3    NA       0.0000   UP       BR    6000  0    
2019/06/07  03:12:00  BASE  0        141  0        M    0.1   100   0.1   0     0     986.3    NA       0.0000   UP       BR    6000  0    
2019/06/07  03:13:00  BASE  0        146  0        M    0.1   100   0.1   0     0     986.3    NA       0.0000   UP       BR    6000  0    
2019/06/07  03:14:00  BASE  0        159  0        M    0.1   100   0.1   0     0     986.3    NA       0.0000   UP       BR    6000  0    
2019/06/07  03:15:00  BASE  0        159  0        M    0.0   100   0.0   0     0     986.3    NA       0.0000   UP       BR    6000  0    
2019/06/07  03:16:00  BASE  0        151  0        M    -0.0  100   -0.0  0     0     986.3    NA       0.0000   BR       6000  0     0    
2019/06/07  03:17:00  BASE  0        149  0        M    -0.1  100   -0.1  0     0     986.3    NA       0.0000   BR       6000  0     0    
2019/06/07  03:18:00  BASE  0        150  0        M    -0.1  100   -0.1  0     0     986.4    NA       0.0000   BR       6000  0     0    
2019/06/07  03:19:00  BASE  0        151  0        M    -0.1  100   -0.1  0     0     986.4    NA       0.0000   BR       6000  0     0    
2019/06/07  03:20:00  BASE  0        143  0        M    -0.1  100   -0.1  0     0     986.4    NA       0.0000   BR       6000  0     0    
2019/06/07  03:21:00  BASE  0        138  0        M    -0.1  100   -0.1  0     0     986.4    NA       0.0000   BR       6000  0     0    
2019/06/07  03:22:00  BASE  0        140  0        M    -0.1  100   -0.1  0     0     986.4    NA       0.0000   UP       BR    5000  1480 
2019/06/07  03:23:00  BASE  0        141  0        M    -0.1  100   -0.1  0     0     986.4    NA       0.0000   UP       BR    5000  0    
2019/06/07  03:24:00  BASE  0        141  0        M    -0.1  100   -0.1  0     0     986.4    NA       0.0000   UP       BR    5000  0    
2019/06/07  03:25:00  BASE  0        144  0        M    -0.1  100   -0.1  0     0     986.4    NA       0.0000   UP       BR    5000  2100 
2019/06/07  03:26:00  BASE  0.12348  146  1.0878   150  -0.1  100   -0.1  0     0     986.4    NA       0.0000   UP       BR    5000  0    
2019/06/07  03:27:00  BASE  0.59388  145  1.21128  137  -0.2  100   -0.2  0     0     986.4    NA       0.0000   UP       BR    5000  620  
2019/06/07  03:28:00  BASE  0.98196  142  1.35828  149  -0.2  100   -0.2  0     0     986.4    NA       0.0000   UP       BR    5000  660  
2019/06/07  03:29:00  BASE  1.13484  136  1.51116  117  -0.2  100   -0.2  0     0     986.4    NA       0.0000   UP       BR    5000  0    
2019/06/07  03:30:00  BASE  1.2642   128  1.51116  117  -0.2  100   -0.2  0     0     986.4    NA       0.0000   UP       BR    5000  0    
2019/06/07  03:31:00  BASE  1.28772  124  1.57584  129  -0.1  100   -0.1  0     0     986.4    NA       0.0000   UP       BR    5000  0    
2019/06/07  03:32:00  BASE  1.32888  124  1.60524  126  -0.0  100   -0.0  0     0     986.4    NA       0.0000   BR       5000  0     0    
2019/06/07  03:33:00  BASE  1.35828  120  1.75224  127  0.1   100   0.1   0     0     986.4    NA       0.0000   BR       5000  660   0    
2019/06/07  03:34:00  BASE  1.34064  122  1.75224  127  0.2   100   0.2   0     0     986.4    NA       0.0000   BR       5000  660   0    
2019/06/07  03:35:00  BASE  1.39356  125  1.75224  130  0.3   100   0.3   0     0     986.5    NA       0.0000   UP       BR    7000  0    
2019/06/07  03:36:00  BASE  1.42296  123  1.75224  130  0.4   100   0.4   0     0     986.5    NA       0.0000   UP       BR    7000  0    
2019/06/07  03:37:00  BASE  1.46412  124  1.87572  125  0.4   100   0.4   0     0     986.5    NA       0.0000   UP       BR    6000  0    
2019/06/07  03:38:00  BASE  1.57584  121  1.87572  125  0.4   100   0.4   0     0     986.5    NA       0.0000   UP       BR    5000  0    
2019/06/07  03:39:00  BASE  1.61112  118  1.87572  111  0.4   100   0.4   0     0     986.5    NA       0.0000   UP       BR    4000  620  
2019/06/07  03:40:00  BASE  1.68168  116  1.87572  119  0.4   100   0.4   0     0     986.4    NA       0.0000   UP       BR    3700  620  
2019/06/07  03:41:00  BASE  1.617    115  1.87572  119  0.4   100   0.4   0     0     986.4    NA       0.0000   UP       BR    3700  620  
2019/06/07  03:42:00  BASE  1.31124  121  1.87572  119  0.4   100   0.4   0     0     986.4    NA       0.0000   UP       BR    3700  660  
2019/06/07  03:43:00  BASE  1.19364  125  1.87572  119  0.4   100   0.4   0     0     986.4    NA       0.0000   UP       BR    3700  0    
2019/06/07  03:44:00  BASE  1.16424  124  1.87572  119  0.4   100   0.4   0     0     986.5    NA       0.0000   UP       BR    3700  660  
2019/06/07  03:45:00  BASE  1.24068  125  1.87572  119  0.4   100   0.4   0     0     986.5    NA       0.0000   UP       BR    3700  660  
2019/06/07  03:46:00  BASE  1.5288   128  1.93452  125  0.4   100   0.4   0     0     986.5    NA       0.0000   UP       BR    3800  0    
2019/06/07  03:47:00  BASE  1.66404  130  1.93452  125  0.4   100   0.4   0     0     986.5    NA       0.0000   UP       BR    3800  0    
2019/06/07  03:48:00  BASE  1.71108  133  1.93452  134  0.4   100   0.4   0     0     986.5    NA       0.0000   UP       BR    3500  0    
2019/06/07  03:49:00  BASE  1.68168  134  1.93452  134  0.4   100   0.4   0     0     986.5    NA       0.0000   UP       BR    3100  690  
2019/06/07  03:50:00  BASE  1.56408  135  1.93452  134  0.4   100   0.4   0     0     986.4    NA       0.0000   UP       BR    2700  660  
2019/06/07  03:51:00  BASE  1.44648  134  1.93452  134  0.4   100   0.4   0     0     986.4    NA       0.0000   UP       BR    2500  660  
2019/06/07  03:52:00  BASE  1.40532  129  1.93452  134  0.4   100   0.4   0     0     986.5    NA       0.0000   UP       BR    2500  660  
2019/06/07  03:53:00  BASE  1.3524   124  1.93452  134  0.4   100   0.4   0     0     986.5    NA       0.0000   UP       BR    2700  660  
2019/06/07  03:54:00  BASE  1.12896  120  1.93452  134  0.4   100   0.4   0     0     986.5    NA       0.0000   UP       BR    2900  0    
2019/06/07  03:55:00  BASE  1.02312  124  1.93452  134  0.3   100   0.3   0     0     986.5    NA       0.0000   UP       BR    3100  0    
2019/06/07  03:56:00  BASE  1.05252  127  1.93452  134  0.3   100   0.3   0     0     986.5    NA       0.0000   UP       BR    3200  590  
2019/06/07  03:57:00  BASE  0.90552  118  1.93452  134  0.4   100   0.4   0     0     986.5    NA       0.0000   UP       BR    3400  590  
2019/06/07  03:58:00  BASE  0.68796  100  1.84632  132  0.3   100   0.3   0     0     986.5    NA       0.0000   UP       BR    3600  460  
2019/06/07  03:59:00  BASE  0.71148  84   1.57584  136  0.3   100   0.3   0     0     986.5    NA       0.0000   UP       BR    3600  460  
2019/06/07  04:00:00  BASE  0.74676  87   1.57584  136  0.3   100   0.3   0     0     986.5    NA       0.0000   UP       BR    3600  490  
2019/06/07  04:01:00  BASE  1.18776  103  2.1756   109  0.2   100   0.2   0     0     986.5    NA       0.0000   UP       BR    3600  490  
2019/06/07  04:02:00  BASE  1.81104  111  2.1756   109  0.2   100   0.2   0     0     986.5    NA       0.0000   UP       BR    3600  520  
2019/06/07  04:03:00  BASE  1.68756  108  2.1756   109  0.3   100   0.3   0     0     986.5    NA       0.0000   UP       BR    3600  490  
2019/06/07  04:04:00  BASE  1.38768  109  2.1756   109  0.3   100   0.3   0     0     986.5    NA       0.0000   UP       BR    3600  520  
2019/06/07  04:05:00  BASE  1.5288   113  2.1756   117  0.3   100   0.3   0     0     986.5    NA       0.0000   UP       BR    3600  520  
2019/06/07  04:06:00  BASE  1.911    115  2.32848  119  0.3   100   0.3   0     0     986.5    NA       0.0000   UP       BR    3600  490  
2019/06/07  04:07:00  BASE  1.89924  117  2.32848  119  0.3   100   0.3   0     0     986.5    NA       0.0000   BR       3600  620   0    
2019/06/07  04:08:00  BASE  1.78752  117  2.32848  119  0.3   100   0.3   0     0     986.5    NA       0.0000   BR       3600  660   0    
2019/06/07  04:09:00  BASE  1.94628  116  2.32848  119  0.3   100   0.3   0     0     986.5    NA       0.0000   BR       3600  690   0    
2019/06/07  04:10:00  BASE  2.22852  113  2.78124  113  0.4   100   0.4   0     0     986.5    NA       0.0000   BR       3600  720   0    
2019/06/07  04:11:00  BASE  2.57544  112  2.93412  113  0.4   100   0.4   0     0     986.5    NA       0.0000   BR       3600  720   0    
2019/06/07  04:12:00  BASE  2.63424  114  2.93412  113  0.4   100   0.4   0     0     986.5    NA       0.0000   BR       3600  750   0    
2019/06/07  04:13:00  BASE  2.59896  116  2.93412  113  0.4   100   0.4   0     0     986.5    NA       0.0000   BR       3600  0     0    
2019/06/07  04:14:00  BASE  2.77536  116  3.087    119  0.4   100   0.4   0     0     986.5    NA       0.0000   BR       3600  0     0    
2019/06/07  04:15:00  BASE  2.76948  119  3.087    119  0.4   100   0.4   0     0     986.5    NA       0.0000   BR       3600  0     0    
2019/06/07  04:16:00  BASE  2.61072  119  3.087    119  0.4   100   0.4   0     0     986.5    NA       0.0000   BR       3600  0     0    
2019/06/07  04:17:00  BASE  2.7342   116  3.087    119  0.4   100   0.4   0     0     986.5    NA       0.0000   BR       3600  0     0    
2019/06/07  04:18:00  BASE  2.97528  116  3.26928  119  0.4   100   0.4   0     0     986.5    NA       0.0000   BR       3600  0     0    
2019/06/07  04:19:00  BASE  2.98116  116  3.26928  119  0.4   100   0.4   0     0     986.5    NA       0.0000   BR       3600  0     0    
2019/06/07  04:20:00  BASE  2.91648  115  3.26928  116  0.4   100   0.4   0     0     986.5    NA       0.0000   BR       3600  0     0    
2019/06/07  04:21:00  BASE  3.01056  116  3.29868  115  0.4   100   0.4   0     0     986.5    NA       0.0000   BR       3600  0     0    
2019/06/07  04:22:00  BASE  3.04584  116  3.29868  115  0.4   100   0.4   0     0     986.5    NA       0.0000   BR       3600  750   0    
2019/06/07  04:23:00  BASE  3.05172  115  3.32808  117  0.4   100   0.4   0     0     986.5    NA       0.0000   BR       3600  750   0    
2019/06/07  04:24:00  BASE  3.23988  114  3.51036  116  0.4   100   0.4   0     0     986.5    NA       0.0000   BR       3600  750   3810 
2019/06/07  04:25:00  BASE  3.29868  114  3.51036  116  0.4   100   0.4   0     0     986.5    NA       0.0000   BR       3600  790   0    
2019/06/07  04:26:00  BASE  3.25164  116  3.59856  120  0.4   100   0.4   0     0     986.4    NA       0.0000   BR       3600  850   3810 
2019/06/07  04:27:00  BASE  3.32808  113  3.72204  111  0.4   100   0.4   0     0     986.4    NA       0.0000   BR       3600  2790  0    
2019/06/07  04:28:00  BASE  3.4986   111  3.90432  109  0.4   100   0.4   0     0     986.4    NA       0.0000   BR       3600  3670  0    
2019/06/07  04:29:00  BASE  3.69264  115  4.02192  117  0.4   100   0.4   0     0     986.3    NA       0.0000   BR       3600  2720  3740 
2019/06/07  04:30:00  BASE  3.72204  120  4.02192  117  0.4   100   0.4   0     0     986.3    NA       0.0000   BR       3600  3640  0    
2019/06/07  04:31:01  BASE  3.53388  121  4.02192  117  0.4   100   0.4   0     0     986.3    NA       0.0000   BR       3600  8500  0    
2019/06/07  04:32:00  BASE  3.36924  119  4.02192  117  0.4   100   0.4   0     0     986.3    NA       0.0000   BR       3600  2790  3740 
2019/06/07  04:33:00  BASE  3.40452  115  4.02192  117  0.4   100   0.4   0     0     986.3    NA       0.0000   BR       3600  2760  0    
2019/06/07  04:34:01  BASE  3.4986   112  4.02192  117  0.4   100   0.4   0     0     986.3    NA       0.0000   BR       3600  2690  0    
2019/06/07  04:35:00  BASE  3.51624  110  4.02192  117  0.4   100   0.4   0     0     986.3    NA       0.0000   BR       4400  2660  0    
2019/06/07  04:36:00  BASE  3.381    109  4.02192  117  0.4   100   0.4   0     0     986.4    NA       0.0000   BR       6000  2690  0    
2019/06/07  04:37:00  BASE  3.28104  109  4.02192  117  0.4   100   0.4   0     0     986.4    NA       0.0000   BR       6000  2690  3810 
2019/06/07  04:38:01  BASE  3.33984  110  4.02192  117  0.4   100   0.4   0     0     986.4    NA       0.0000   BR       7000  2720  0    
2019/06/07  04:39:00  BASE  3.29868  109  3.96312  125  0.4   100   0.4   0     0     986.4    NA       0.0000   BR       8000  2720  3740 
2019/06/07  04:40:00  BASE  3.33984  108  3.75144  110  0.3   100   0.3   0     0     986.4    NA       0.0000   BR       8000  2720  3770 
2019/06/07  04:41:00  BASE  3.40452  106  3.75144  110  0.3   100   0.3   0     0     986.4    NA       0.0000   BR       8000  2690  3810 
2019/06/07  04:42:00  BASE  3.381    105  3.75144  110  0.3   100   0.3   0     0     986.4    NA       0.0000   BR       9999  2660  3770 
2019/06/07  04:43:00  BASE  3.30456  105  3.75144  110  0.3   100   0.3   0     0     986.4    NA       0.0000   BR       9999  950   2720 
2019/06/07  04:44:00  BASE  3.38688  108  3.81024  110  0.3   100   0.3   0     0     986.4    NA       0.0000   BR       9999  950   2690 
2019/06/07  04:45:00  BASE  3.62208  111  3.86904  113  0.3   100   0.3   0     0     986.4    NA       0.0000   BR       9999  950   2720 
2019/06/07  04:46:00  BASE  3.53388  114  3.86904  113  0.3   100   0.3   0     0     986.3    NA       0.0000   BR       9999  950   2720 
2019/06/07  04:47:00  BASE  3.45744  114  3.86904  110  0.3   100   0.3   0     0     986.3    NA       0.0000   BR       9999  920   2720 
2019/06/07  04:48:00  BASE  3.66912  115  3.93372  116  0.3   100   0.3   0     0     986.3    NA       0.0000   9999     2720  0     0    
2019/06/07  04:49:00  BASE  3.89844  118  4.1454   122  0.4   100   0.4   0     0     986.3    NA       0.0000   9999     2720  0     0    
2019/06/07  04:50:00  BASE  3.85728  118  4.1454   122  0.4   100   0.4   0     0     986.3    NA       0.0000   9999     2690  0     0    
2019/06/07  04:51:01  BASE  3.73968  116  4.1454   122  0.4   100   0.4   0     0     986.3    NA       0.0000   9999     2690  0     0    
2019/06/07  04:52:01  BASE  3.68676  117  4.1454   122  0.4   100   0.4   0     0     986.3    NA       0.0000   9999     520   2720  0    
2019/06/07  04:53:01  BASE  3.62208  119  4.1454   122  0.4   100   0.4   0     0     986.3    NA       0.0000   9999     490   2720  0    
2019/06/07  04:54:01  BASE  3.65736  118  4.1454   122  0.4   100   0.4   0     0     986.3    NA       0.0000   9999     560   0     0    
2019/06/07  04:55:01  BASE  3.822    117  4.1454   122  0.4   100   0.4   0     0     986.3    NA       0.0000   UP       9999  0     0    
2019/06/07  04:56:01  BASE  3.969    119  4.1748   120  0.4   100   0.4   0     0     986.3    NA       0.0000   UP       9999  590   0    
2019/06/07  04:57:01  BASE  3.969    121  4.1748   120  0.4   100   0.4   0     0     986.3    NA       0.0000   UP       9999  590   0    
2019/06/07  04:58:01  BASE  3.88668  120  4.1748   120  0.4   100   0.4   0     0     986.3    NA       0.0000   UP       9999  520   0    
2019/06/07  04:59:01  BASE  3.78672  120  4.1748   120  0.4   100   0.4   0     0     986.3    NA       0.0000   UP       9999  0     0    
2019/06/07  05:00:01  BASE  3.72792  120  4.1748   120  0.4   100   0.4   0     0     986.3    NA       0.0000   UP       9999  0     0    
2019/06/07  05:01:01  BASE  3.63972  119  4.1748   120  0.3   100   0.3   0     0     986.3    NA       0.0000   UP       9999  0     0    
2019/06/07  05:02:01  BASE  3.5868   118  4.1748   120  0.3   100   0.3   0     0     986.3    NA       0.0000   UP       9999  8010  0    
2019/06/07  05:03:01  BASE  3.675    120  4.1748   120  0.3   100   0.3   0     0     986.4    NA       0.0000   UP       9999  8010  0    
2019/06/07  05:04:01  BASE  3.56916  121  4.1748   120  0.3   100   0.3   0     0     986.4    NA       0.0000   UP       BR    9999  0    
2019/06/07  05:05:01  BASE  3.31632  119  4.1748   120  0.3   100   0.3   0     0     986.4    NA       0.0000   UP       BR    9999  0    
2019/06/07  05:06:01  BASE  3.2634   117  4.08072  122  0.3   100   0.3   0     0     986.4    NA       0.0000   UP       BR    9999  560  
2019/06/07  05:07:01  BASE  3.28104  114  3.99252  122  0.3   100   0.3   0     0     986.4    NA       0.0000   UP       9999  0     0    
2019/06/07  05:08:01  BASE  3.22812  113  3.96312  121  0.3   100   0.3   0     0     986.4    NA       0.0000   UP       9999  890   2820 
2019/06/07  05:09:01  BASE  3.09876  115  3.96312  121  0.3   100   0.3   0     0     986.4    NA       0.0000   UP       9999  590   2760 
2019/06/07  05:10:01  BASE  3.0282   119  3.96312  121  0.3   100   0.3   0     0     986.4    NA       0.0000   UP       9000  520   0    
2019/06/07  05:11:01  BASE  2.98704  118  3.96312  121  0.3   100   0.3   0     0     986.4    NA       0.0000   UP       9000  520   2720 
2019/06/07  05:12:01  BASE  2.94     117  3.96312  121  0.3   100   0.3   0     0     986.4    NA       0.0000   UP       9999  590   0    
2019/06/07  05:13:01  BASE  2.92824  118  3.62796  127  0.3   100   0.3   0     0     986.4    NA       0.0000   UP       9999  560   2690 
2019/06/07  05:14:01  BASE  2.94     119  3.56916  122  0.3   100   0.3   0     0     986.4    NA       0.0000   UP       9999  750   2690 
2019/06/07  05:15:00  BASE  2.95764  121  3.48096  115  0.3   100   0.3   0     0     986.4    NA       0.0000   UP       9999  750   2660 
2019/06/07  05:16:00  BASE  2.92824  121  3.48096  115  0.3   100   0.3   0     0     986.4    NA       0.0000   UP       9999  560   2690 
2019/06/07  05:17:00  BASE  2.95176  122  3.35748  112  0.3   100   0.3   0     0     986.4    NA       0.0000   UP       9999  560   2690 
2019/06/07  05:18:00  BASE  3.00468  124  3.26928  116  0.3   100   0.3   0     0     986.4    NA       0.0000   UP       9999  590   2690 
2019/06/07  05:19:00  BASE  2.94588  124  3.2046   126  0.3   100   0.3   0     0     986.4    NA       0.0000   UP       9999  2660  0    
2019/06/07  05:20:00  BASE  2.88708  125  3.234    121  0.3   100   0.3   0     0     986.4    NA       0.0000   UP       9999  2660  0    
2019/06/07  05:21:00  BASE  2.88708  126  3.38688  121  0.3   100   0.3   0     0     986.4    NA       0.0000   UP       9999  2660  6920 
2019/06/07  05:22:01  BASE  2.89884  125  3.38688  121  0.2   100   0.2   0     0     986.4    NA       0.0000   UP       9999  2620  0    
2019/06/07  05:23:00  BASE  2.95764  126  3.38688  128  0.2   100   0.2   0     0     986.3    NA       0.0000   UP       9999  2660  0    
2019/06/07  05:24:00  BASE  2.98116  127  3.38688  128  0.2   100   0.2   0     0     986.3    NA       0.0000   UP       9999  3670  0    
2019/06/07  05:25:00  BASE  2.90472  126  3.38688  128  0.2   100   0.2   0     0     986.3    NA       0.0000   UP       9999  3840  0    
2019/06/07  05:26:00  BASE  2.75184  127  3.38688  128  0.2   100   0.2   0     0     986.3    NA       0.0000   UP       9999  3740  0    
2019/06/07  05:27:00  BASE  2.81652  126  3.38688  128  0.2   100   0.2   0     0     986.3    NA       0.0000   UP       9999  3740  0    
2019/06/07  05:28:01  BASE  2.9106   124  3.38688  128  0.2   100   0.2   0     0     986.3    NA       0.0000   9999     2660  3710  0    
2019/06/07  05:29:01  BASE  2.9988   125  3.48096  125  0.2   100   0.2   0     0     986.3    NA       0.0000   9999     2620  3740  0    
2019/06/07  05:30:01  BASE  3.10464  126  3.48096  125  0.2   100   0.2   0     0     986.3    NA       0.0000   9999     2690  3670  0    
2019/06/07  05:31:00  BASE  2.94588  126  3.48096  125  0.2   100   0.2   0     0     986.3    NA       0.0000   9999     2690  3670  0    
2019/06/07  05:32:00  BASE  2.79888  127  3.48096  125  0.2   100   0.2   0     0     986.4    NA       0.0000   9999     2660  3710  0    
2019/06/07  05:33:00  BASE  2.58132  127  3.48096  125  0.2   100   0.2   0     0     986.4    NA       0.0000   9999     2660  3740  0    
2019/06/07  05:34:00  BASE  2.39316  127  3.48096  125  0.2   100   0.2   0     0     986.4    NA       0.0000   9999     2690  3740  0    
2019/06/07  05:35:01  BASE  2.3226   127  3.48096  125  0.2   100   0.2   0     0     986.4    NA       0.0000   9999     2660  3670  0    
2019/06/07  05:36:00  BASE  2.18736  126  3.48096  125  0.2   100   0.2   0     0     986.4    NA       0.0000   9999     2690  3670  0    
2019/06/07  05:37:00  BASE  2.18736  125  3.48096  125  0.2   100   0.2   0     0     986.4    NA       0.0000   9999     2620  3710  0    
2019/06/07  05:38:00  BASE  2.0874   126  3.48096  125  0.2   100   0.2   0     0     986.4    NA       0.0000   9999     2620  3740  0    
2019/06/07  05:39:01  BASE  1.84632  124  3.1458   125  0.2   100   0.2   0     0     986.4    NA       0.0000   9999     2620  3740  0    
2019/06/07  05:40:00  BASE  1.84632  123  3.1458   125  0.2   100   0.2   0     0     986.4    NA       0.0000   9999     2620  3740  0    
2019/06/07  05:41:00  BASE  1.7934   125  3.02232  128  0.2   100   0.2   0     0     986.4    NA       0.0000   9999     2690  3740  0    
2019/06/07  05:42:00  BASE  1.74048  124  2.72244  126  0.2   100   0.2   0     0     986.4    NA       0.0000   9999     2660  0     0    
2019/06/07  05:43:01  BASE  1.79928  127  2.72244  126  0.2   100   0.2   0     0     986.4    NA       0.0000   9999     2660  3740  0    
2019/06/07  05:44:01  BASE  1.95216  129  2.69304  122  0.2   100   0.2   0     0     986.5    NA       0.0000   9999     2620  3740  0    
2019/06/07  05:45:00  BASE  1.93452  131  2.69304  122  0.2   100   0.2   0     0     986.5    NA       0.0000   9999     2620  0     0    
2019/06/07  05:46:00  BASE  1.5288   134  2.69304  122  0.2   100   0.2   0     0     986.5    NA       0.0000   9999     2560  0     0    
2019/06/07  05:47:00  BASE  1.21128  129  2.32848  120  0.2   100   0.2   0     0     986.5    NA       0.0000   9999     2530  0     0    
2019/06/07  05:48:01  BASE  1.21128  129  2.32848  120  0.1   100   0.1   0     0     986.5    NA       0.0000   9999     2560  0     0    
2019/06/07  05:49:01  BASE  1.37592  127  2.29908  124  0.1   100   0.1   0     0     986.5    NA       0.0000   9999     2560  0     0    
2019/06/07  05:50:01  BASE  1.63464  121  2.29908  124  0.1   100   0.1   0     0     986.5    NA       0.0000   9999     2590  0     0    
2019/06/07  05:51:00  BASE  1.8522   120  2.29908  106  0.1   100   0.1   0     0     986.5    NA       0.0000   9999     2590  0     0    
2019/06/07  05:52:01  BASE  1.75812  122  2.29908  106  0.1   100   0.1   0     0     986.5    NA       0.0000   9999     2620  0     0    
2019/06/07  05:53:01  BASE  1.76988  120  2.29908  106  0.1   100   0.1   0     0     986.5    NA       0.0000   9999     2660  0     0    
2019/06/07  05:54:01  BASE  1.86396  120  2.29908  106  0.1   100   0.1   0     0     986.5    NA       0.0000   9999     2820  0     0    
2019/06/07  05:55:01  BASE  1.9698   120  2.51076  122  0.1   100   0.1   0     0     986.5    NA       0.0000   9999     2620  0     0    
2019/06/07  05:56:01  BASE  2.1168   117  2.51076  122  0.2   100   0.2   0     0     986.5    NA       0.0000   9999     2530  0     0    
2019/06/07  05:57:01  BASE  2.0874   117  2.51076  122  0.2   100   0.2   0     0     986.5    NA       0.0000   9999     2260  0     0    
2019/06/07  05:58:00  BASE  1.95804  118  2.51076  122  0.2   100   0.2   0     0     986.5    NA       0.0000   9999     2660  0     0    
2019/06/07  05:59:01  BASE  1.6758   119  2.51076  122  0.2   100   0.2   0     0     986.5    NA       0.0000   9999     2590  0     0    
2019/06/07  06:00:00  BASE  0.91728  115  2.51076  122  0.2   100   0.2   0     0     986.5    NA       0.0000   9999     0     0     0    
2019/06/07  06:01:00  BASE  0.24696  110  2.51076  122  0.2   100   0.2   0     0     986.5    NA       0.0000   9999     2660  0     0    
2019/06/07  06:02:00  BASE  0.07644  122  2.51076  122  0.1   100   0.1   0     0     986.5    NA       0.0000   9999     2620  0     0    
2019/06/07  06:03:00  BASE  0        138  2.51076  122  0.1   100   0.1   0     0     986.5    NA       0.0000   UP       9999  2690  0    
2019/06/07  06:04:01  BASE  0        210  2.51076  122  0.0   100   0.0   0     0     986.5    NA       0.0000   UP       9999  2620  0    
2019/06/07  06:05:01  BASE  0        242  2.35788  117  -0.0  100   -0.0  0     0     986.5    NA       0.0000   UP       9999  0     0    
2019/06/07  06:06:00  BASE  0        254  2.35788  117  -0.1  100   -0.1  0     0     986.5    NA       0.0000   UP       9999  0     0    
2019/06/07  06:07:00  BASE  0        273  2.24028  112  -0.1  100   -0.1  0     0     986.5    NA       0.0000   UP       9999  0     0    
2019/06/07  06:08:00  BASE  0        295  1.78752  118  -0.1  100   -0.1  0     0     986.5    NA       0.0000   UP       9999  2660  0    
2019/06/07  06:09:00  BASE  0        319  1.029    124  -0.1  100   -0.1  0     0     986.5    NA       0.0000   UP       9999  0     0    
2019/06/07  06:10:00  BASE  0        325  0.63504  100  -0.1  100   -0.1  0     0     986.5    NA       0.0000   UP       9999  0     0    
2019/06/07  06:11:00  BASE  0        316  0        M    -0.1  100   -0.1  0     0     986.5    NA       0.0000   UP       9999  0     0    
2019/06/07  06:12:01  BASE  0        315  0        M    -0.1  100   -0.1  0     0     986.5    NA       0.0000   UP       9999  0     0    
2019/06/07  06:13:00  BASE  0        322  0        M    -0.0  100   -0.0  0     0     986.5    NA       0.0000   UP       9999  1510  0    
2019/06/07  06:14:00  BASE  0        332  0        M    -0.0  100   -0.0  0     0     986.5    NA       0.0000   UP       9999  1510  0    
2019/06/07  06:15:00  BASE  0        345  0        M    -0.0  100   -0.0  0     0     986.5    NA       0.0000   UP       9999  1610  0    
2019/06/07  06:16:00  BASE  0        1    0        M    -0.0  100   -0.0  0     0     986.5    NA       0.0000   UP       9999  1610  0    
2019/06/07  06:17:00  BASE  0        17   0        M    -0.0  100   -0.0  0     0     986.5    NA       0.0000   UP       9999  0     0    
2019/06/07  06:18:00  BASE  0        27   0        M    -0.0  100   -0.0  0     0     986.5    NA       0.0000   UP       9999  1710  0    
2019/06/07  06:19:01  BASE  0        56   0        M    0.0   100   0.0   0     0     986.5    NA       0.0000   UP       9999  1670  0    
2019/06/07  06:20:01  BASE  0        84   0        M    0.1   100   0.1   0     0     986.5    NA       0.0000   UP       9999  1710  0    
2019/06/07  06:21:00  BASE  0        59   0        M    0.1   100   0.1   0     0     986.5    NA       0.0000   UP       9999  1670  0    
2019/06/07  06:22:00  BASE  0        30   0        M    0.2   100   0.2   0     0     986.5    NA       0.0000   UP       9999  1670  0    
2019/06/07  06:23:00  BASE  0        20   0        M    0.2   100   0.2   0     0     986.5    NA       0.0000   UP       9999  1570  0    
2019/06/07  06:24:01  BASE  0        355  0        M    0.3   100   0.3   0     0     986.5    NA       0.0000   UP       9999  1610  0    
2019/06/07  06:25:00  BASE  0        348  0        M    0.3   100   0.3   0     0     986.5    NA       0.0000   UP       9999  1670  0    
2019/06/07  06:26:00  BASE  0        350  0        M    0.3   100   0.3   0     0     986.5    NA       0.0000   UP       9999  1670  0    
2019/06/07  06:27:00  BASE  0        357  0        M    0.4   100   0.4   0     0     986.5    NA       0.0000   UP       9999  1770  0    
2019/06/07  06:28:00  BASE  0        27   0        M    0.4   100   0.4   0     0     986.6    NA       0.0000   UP       9999  1770  0    
2019/06/07  06:29:00  BASE  0        70   0        M    0.4   100   0.4   0     0     986.6    NA       0.0000   UP       9999  0     0    
2019/06/07  06:30:00  BASE  0        81   0        M    0.3   100   0.3   0     0     986.6    NA       0.0000   UP       9999  0     0    
2019/06/07  06:31:00  BASE  0        71   0        M    0.3   100   0.3   0     0     986.6    NA       0.0000   UP       9999  0     0    
2019/06/07  06:32:01  BASE  0        67   0        M    0.2   100   0.2   0     0     986.6    NA       0.0000   UP       9999  0     0    
2019/06/07  06:33:00  BASE  0        88   0        M    0.2   100   0.2   0     0     986.6    NA       0.0000   UP       9999  720   2590 
2019/06/07  06:34:00  BASE  0        122  0        M    0.2   100   0.2   0     0     986.6    NA       0.0000   UP       9999  620   2530 
2019/06/07  06:35:01  BASE  0        148  0        M    0.2   100   0.2   0     0     986.6    NA       0.0000   UP       9999  0     0    
2019/06/07  06:36:01  BASE  0        167  0        M    0.1   100   0.1   0     0     986.6    NA       0.0000   UP       9999  0     0    
2019/06/07  06:37:00  BASE  0        167  0        M    0.0   100   0.0   0     0     986.6    NA       0.0000   UP       9999  0     0    
2019/06/07  06:38:00  BASE  0        157  0        M    -0.1  100   -0.1  0     0     986.6    NA       0.0000   UP       9999  0     0    
2019/06/07  06:39:00  BASE  0        156  0        M    -0.3  100   -0.3  0     0     986.6    NA       0.0000   UP       9999  0     0    
2019/06/07  06:40:00  BASE  0        159  0        M    -0.4  100   -0.4  0     0     986.6    NA       0.0000   UP       9999  0     0    
2019/06/07  06:41:00  BASE  0        157  0        M    -0.4  100   -0.4  0     0     986.6    NA       0.0000   UP       9999  0     0    
2019/06/07  06:42:01  BASE  0        156  0        M    -0.5  100   -0.5  0     0     986.6    NA       0.0000   UP       9000  0     0    
2019/06/07  06:43:00  BASE  0        156  0        M    -0.5  100   -0.5  0     0     986.6    NA       0.0000   UP       9999  0     0    
2019/06/07  06:44:00  BASE  0        150  0        M    -0.6  100   -0.6  0     0     986.6    NA       0.0000   UP       9000  0     0    
2019/06/07  06:45:00  BASE  0        147  0        M    -0.6  100   -0.6  0     0     986.6    NA       0.0000   UP       9999  0     0    
2019/06/07  06:46:01  BASE  0        146  0        M    -0.5  100   -0.5  0     0     986.6    NA       0.0000   UP       9999  0     0    
2019/06/07  06:47:00  BASE  0        145  0        M    -0.5  100   -0.5  0     0     986.6    NA       0.0000   UP       9999  0     0    
2019/06/07  06:48:00  BASE  0        145  0        M    -0.4  100   -0.4  0     0     986.6    NA       0.0000   UP       9999  1380  0    
2019/06/07  06:49:01  BASE  0        143  0        M    -0.4  100   -0.4  0     0     986.6    NA       0.0000   UP       9999  1380  0    
2019/06/07  06:50:01  BASE  0        147  0        M    -0.3  100   -0.3  0     0     986.6    NA       0.0000   UP       9999  1380  0    
2019/06/07  06:51:00  BASE  0        148  0        M    -0.3  100   -0.3  0     0     986.6    NA       0.0000   UP       9999  1410  2490 
2019/06/07  06:52:00  BASE  0        145  0        M    -0.3  100   -0.3  0     0     986.7    NA       0.0000   UP       9999  1410  2490 
2019/06/07  06:53:00  BASE  0        144  0        M    -0.3  100   -0.3  0     0     986.6    NA       0.0000   UP       9999  1380  0    
2019/06/07  06:54:00  BASE  0        141  0        M    -0.3  100   -0.3  0     0     986.7    NA       0.0000   UP       9999  1350  0    
2019/06/07  06:55:00  BASE  0        136  0        M    -0.3  100   -0.3  0     0     986.7    NA       0.0000   UP       9999  1310  0    
2019/06/07  06:56:00  BASE  0        134  0        M    -0.3  100   -0.3  0     0     986.7    NA       0.0000   UP       9999  1250  0    
2019/06/07  06:57:00  BASE  0        124  0        M    -0.3  100   -0.3  0     0     986.7    NA       0.0000   UP       9999  1250  0    
2019/06/07  06:58:00  BASE  0        114  0        M    -0.3  100   -0.3  0     0     986.7    NA       0.0000   UP       9999  1280  2560 
2019/06/07  06:59:01  BASE  0        111  0        M    -0.3  100   -0.3  0     0     986.7    NA       0.0000   UP       9999  1210  2530 
2019/06/07  07:00:01  BASE  0        105  0        M    -0.3  100   -0.3  0     0     986.7    NA       0.0000   UP       9999  1180  2530 
2019/06/07  07:01:00  BASE  0        96   0        M    -0.3  100   -0.3  0     0     986.7    NA       0.0000   UP       9999  1150  1710 
2019/06/07  07:02:01  BASE  0        93   0        M    -0.4  100   -0.4  0     0     986.7    NA       0.0000   UP       9999  300   1180 
2019/06/07  07:03:00  BASE  0        91   0        M    -0.4  100   -0.4  0     0     986.7    NA       0.0000   UP       9999  1150  2490 
2019/06/07  07:04:00  BASE  0        88   0        M    -0.5  100   -0.5  0     0     986.7    NA       0.0000   UP       9999  330   1150 
2019/06/07  07:05:00  BASE  0        92   0        M    -0.6  100   -0.6  0     0     986.7    NA       0.0000   UP       9999  1150  0    
2019/06/07  07:06:00  BASE  0        91   0        M    -0.6  100   -0.6  0     0     986.7    NA       0.0000   9999     1080  0     0    
2019/06/07  07:07:00  BASE  0        82   0        M    -0.6  100   -0.6  0     0     986.7    NA       0.0000   9999     1050  0     0    
2019/06/07  07:08:01  BASE  0        74   0        M    -0.6  100   -0.6  0     0     986.7    NA       0.0000   9999     1050  0     0    
2019/06/07  07:09:00  BASE  0        72   0        M    -0.6  100   -0.6  0     0     986.7    NA       0.0000   9999     1020  0     0    
2019/06/07  07:10:00  BASE  0        70   0        M    -0.6  100   -0.6  0     0     986.7    NA       0.0000   9999     360   1050  0    
2019/06/07  07:11:00  BASE  0        62   0        M    -0.6  100   -0.6  0     0     986.7    NA       0.0000   9999     1020  0     0    
2019/06/07  07:12:00  BASE  0        54   0        M    -0.6  100   -0.6  0     0     986.7    NA       0.0000   9999     0     0     0    
2019/06/07  07:13:00  BASE  0        47   0        M    -0.6  100   -0.6  0     0     986.7    NA       0.0000   9999     360   1120  0    
2019/06/07  07:14:00  BASE  0        48   0        M    -0.5  100   -0.5  0     0     986.7    NA       0.0000   9999     330   1050  0    
2019/06/07  07:15:00  BASE  0        49   0        M    -0.5  100   -0.5  0     0     986.7    NA       0.0000   9999     0     0     0    
2019/06/07  07:16:00  BASE  0        44   0        M    -0.5  100   -0.5  0     0     986.7    NA       0.0000   9999     460   1020  0    
2019/06/07  07:17:01  BASE  0        38   0        M    -0.5  100   -0.5  0     0     986.7    NA       0.0000   9999     1080  0     0    
2019/06/07  07:18:00  BASE  0        36   0        M    -0.5  100   -0.5  0     0     986.7    NA       0.0000   9999     1050  1640  0    
2019/06/07  07:19:00  BASE  0        34   0        M    -0.5  100   -0.5  0     0     986.7    NA       0.0000   UP       9999  1050  1640 
2019/06/07  07:20:00  BASE  0        30   0        M    -0.5  100   -0.5  0     0     986.7    NA       0.0000   UP       8000  1020  1610 
2019/06/07  07:21:00  BASE  0        33   0        M    -0.5  100   -0.5  0     0     986.7    NA       0.0000   UP       9999  1050  0    
2019/06/07  07:22:00  BASE  0        42   0        M    -0.5  100   -0.5  0     0     986.7    NA       0.0000   UP       9999  1120  0    
2019/06/07  07:23:00  BASE  0        40   0        M    -0.5  100   -0.5  0     0     986.7    NA       0.0000   UP       9999  560   1050 
2019/06/07  07:24:00  BASE  0        34   0        M    -0.4  100   -0.4  0     0     986.7    NA       0.0000   UP       9999  560   1570 
2019/06/07  07:25:00  BASE  0        39   0        M    -0.4  100   -0.4  0     0     986.7    NA       0.0000   UP       9999  560   1610 
2019/06/07  07:26:00  BASE  0        42   0        M    -0.4  100   -0.4  0     0     986.7    NA       0.0000   UP       9999  590   1610 
2019/06/07  07:27:00  BASE  0        46   0        M    -0.5  100   -0.5  0     0     986.7    NA       0.0000   UP       9999  1510  0    
2019/06/07  07:28:00  BASE  0        53   0        M    -0.5  100   -0.5  0     0     986.7    NA       0.0000   UP       8000  620   1480 
2019/06/07  07:29:00  BASE  0        60   0        M    -0.5  100   -0.5  0     0     986.7    NA       0.0000   UP       7000  0     0    
2019/06/07  07:30:00  BASE  0        62   0        M    -0.5  100   -0.5  0     0     986.7    NA       0.0000   UP       8000  620   1510 
2019/06/07  07:31:00  BASE  0        54   0        M    -0.4  100   -0.4  0     0     986.7    NA       0.0000   UP       BR    7000  590  
2019/06/07  07:32:00  BASE  0        53   0        M    -0.4  100   -0.4  0     0     986.7    NA       0.0000   UP       BR    7000  430  
2019/06/07  07:33:00  BASE  0        57   0        M    -0.4  100   -0.4  0     0     986.7    NA       0.0000   UP       BR    8000  590  
2019/06/07  07:34:00  BASE  0        58   0        M    -0.4  100   -0.4  0     0     986.7    NA       0.0000   UP       BR    6000  390  
2019/06/07  07:35:00  BASE  0        59   0        M    -0.4  100   -0.4  0     0     986.7    NA       0.0000   -SN      BR    5000  0    
2019/06/07  07:36:00  BASE  0        62   0        M    -0.4  100   -0.4  0     0     986.6    NA       0.0000   -SN      BR    5000  0    
2019/06/07  07:37:00  BASE  0        63   0        M    -0.4  100   -0.4  0     0     986.6    NA       0.0000   -SN      BR    4800  0    
2019/06/07  07:38:00  BASE  0        67   0        M    -0.4  100   -0.4  0     0     986.6    NA       0.0000   -SN      BR    4600  0    
2019/06/07  07:39:00  BASE  0        76   0        M    -0.3  100   -0.3  0     0     986.6    NA       0.0000   -SN      BR    5000  0    
2019/06/07  07:40:00  BASE  0        78   0        M    -0.3  100   -0.3  0     0     986.6    NA       0.0000   -SN      BR    5000  720  
2019/06/07  07:41:00  BASE  0        73   0        M    -0.3  100   -0.3  0     0     986.6    NA       0.0000   -SN      BR    5000  750  
2019/06/07  07:42:00  BASE  0        68   0        M    -0.2  100   -0.2  0     0     986.7    NA       0.0000   -SN      BR    7000  750  
2019/06/07  07:43:00  BASE  0        65   0        M    -0.2  100   -0.2  0     0     986.7    NA       0.0000   -SN      BR    9000  690  
2019/06/07  07:44:00  BASE  0        71   0        M    -0.2  100   -0.2  0     0     986.7    NA       0.0000   -SN      BR    9999  720  
2019/06/07  07:45:00  BASE  0        84   0        M    -0.2  100   -0.2  0     0     986.7    NA       0.0000   -SN      BR    9999  690  
2019/06/07  07:46:00  BASE  0        75   0        M    -0.2  100   -0.2  0     0     986.7    NA       0.0000   -SN      BR    9999  690  
2019/06/07  07:47:00  BASE  0        63   0        M    -0.2  100   -0.2  0     0     986.7    NA       0.0000   -SN      BR    9999  690  
2019/06/07  07:48:00  BASE  0        68   0        M    -0.2  100   -0.2  0     0     986.7    NA       0.0000   -SN      BR    9999  720  
2019/06/07  07:49:00  BASE  0        92   0        M    -0.2  100   -0.2  0     0     986.7    NA       0.0000   -SN      BR    9999  720  
2019/06/07  07:50:00  BASE  0        120  0        M    -0.2  100   -0.2  0     0     986.7    NA       0.0000   -SN      9999  750   0    
2019/06/07  07:51:00  BASE  0        111  0        M    -0.2  100   -0.2  0     0     986.7    NA       0.0000   -SN      9999  750   0    
2019/06/07  07:52:00  BASE  0        116  0        M    -0.2  100   -0.2  0     0     986.7    NA       0.0000   -SN      9999  790   0    
2019/06/07  07:53:00  BASE  0        134  0        M    -0.2  100   -0.2  0     0     986.7    NA       0.0000   -SN      9999  720   0    
2019/06/07  07:54:00  BASE  0        149  0        M    -0.1  100   -0.1  0     0     986.7    NA       0.0000   -SN      9999  720   2660 
2019/06/07  07:55:00  BASE  0        167  0        M    -0.1  100   -0.1  0     0     986.7    NA       0.0000   -SN      9999  690   0    
2019/06/07  07:56:00  BASE  0        180  0        M    -0.1  100   -0.1  0     0     986.7    NA       0.0000   -SN      9999  720   0    
2019/06/07  07:57:00  BASE  0        187  0        M    -0.1  100   -0.1  0     0     986.7    NA       0.0000   -SN      9999  690   0    
2019/06/07  07:58:00  BASE  0        186  0        M    -0.1  100   -0.1  0     0     986.7    NA       0.0000   -SN      9999  390   0    
2019/06/07  07:59:00  BASE  0        181  0        M    -0.1  100   -0.1  0     0     986.7    NA       0.0000   -SN      9999  360   0    
2019/06/07  08:00:00  BASE  0        172  0        M    -0.1  100   -0.1  0     0     986.7    NA       0.0000   -SN      9999  0     0    
2019/06/07  08:01:00  BASE  0        167  0        M    -0.1  100   -0.1  0     0     986.7    NA       0.0000   -SN      9999  0     0    
2019/06/07  08:02:00  BASE  0        167  0        M    -0.1  100   -0.1  0     0     986.7    NA       0.0000   -SN      9999  0     0    
2019/06/07  08:03:00  BASE  0        167  0        M    -0.1  100   -0.1  0     0     986.7    NA       0.0000   -SN      9999  0     0    
2019/06/07  08:04:00  BASE  0        167  0        M    -0.1  100   -0.1  0     0     986.7    NA       0.0000   -SN      9999  0     0    
2019/06/07  08:05:00  BASE  0        167  0        M    -0.1  100   -0.1  0     0     986.7    NA       0.0000   -SN      8000  0     0    
2019/06/07  08:06:00  BASE  0        167  0        M    -0.1  100   -0.1  0     0     986.7    NA       0.0000   -SN      8000  0     0    
2019/06/07  08:07:01  BASE  0        167  0        M    -0.1  100   -0.1  0     0     986.8    NA       0.0000   -SN      9999  0     0    
2019/06/07  08:08:00  BASE  0        167  0        M    -0.1  100   -0.1  0     0     986.7    NA       0.0000   -SN      9000  0     0    
2019/06/07  08:09:00  BASE  0        167  0        M    -0.1  100   -0.1  0     0     986.8    NA       0.0000   -SN      BR    9999  0    
2019/06/07  08:10:00  BASE  0        167  0        M    -0.1  100   -0.1  0     0     986.8    NA       0.0000   -SN      BR    9999  0    
2019/06/07  08:11:00  BASE  0        131  0        M    -0.1  100   -0.1  0     0     986.7    NA       0.0000   -SN      BR    8000  0    
2019/06/07  08:12:01  BASE  0        4    0        M    -0.1  100   -0.1  0     0     986.8    NA       0.0000   -SN      BR    7000  0    
2019/06/07  08:13:00  BASE  0        1    0        M    -0.0  100   -0.0  0     0     986.8    NA       0.0000   -SN      BR    7000  0    
2019/06/07  08:14:00  BASE  0        11   0        M    -0.0  100   -0.0  0     0     986.8    NA       0.0000   -SN      BR    7000  0    
2019/06/07  08:15:00  BASE  0        25   0        M    -0.1  100   -0.1  0     0     986.8    NA       0.0000   -SN      BR    9999  0    
2019/06/07  08:16:00  BASE  0        39   0        M    -0.1  100   -0.1  0     0     986.8    NA       0.0000   -SN      BR    9999  0    
2019/06/07  08:17:00  BASE  0        40   0        M    -0.1  100   -0.1  0     0     986.8    NA       0.0000   -SN      BR    9999  0    
2019/06/07  08:18:00  BASE  0        30   0        M    -0.1  100   -0.1  0     0     986.8    NA       0.0000   -SN      BR    9000  0    
2019/06/07  08:19:00  BASE  0        22   0        M    -0.1  100   -0.1  0     0     986.8    NA       0.0000   -SN      BR    9000  0    
2019/06/07  08:20:01  BASE  0        34   0        M    -0.1  100   -0.1  0     0     986.8    NA       0.0000   -SN      BR    9999  0    
2019/06/07  08:21:00  BASE  0        48   0        M    -0.0  100   -0.0  0     0     986.8    NA       0.0000   -SN      BR    9999  0    
2019/06/07  08:22:00  BASE  0        43   0        M    0.0   100   0.0   0     0     986.8    NA       0.0000   -SN      BR    9999  0    
2019/06/07  08:23:00  BASE  0        34   0        M    0.0   100   0.0   0     0     986.8    NA       0.2540   -SN      9999  0     0    
2019/06/07  08:24:01  BASE  0        26   0        M    0.0   100   0.0   0     0     986.8    NA       0.0000   -SN      9999  0     0    
2019/06/07  08:25:00  BASE  0        22   0        M    0.0   100   0.0   0     0     986.8    NA       0.0000   -SN      9999  0     0    
2019/06/07  08:26:00  BASE  0        21   0        M    0.0   100   0.0   0     0     986.8    NA       0.0000   -SN      9999  0     0    
2019/06/07  08:27:00  BASE  0        28   0        M    0.0   100   0.0   0     0     986.8    NA       0.0000   -SN      9999  0     0    
2019/06/07  08:28:00  BASE  0        22   0        M    -0.0  100   -0.0  0     0     986.8    NA       0.0000   -SN      9999  0     0    
2019/06/07  08:29:00  BASE  0        1    0        M    -0.1  100   -0.1  0     0     986.8    NA       0.0000   -SN      9999  0     0    
2019/06/07  08:30:00  BASE  0        356  0        M    -0.2  100   -0.2  0     0     986.7    NA       0.0000   -SN      9999  1310  0    
2019/06/07  08:31:00  BASE  0        1    0        M    -0.2  100   -0.2  0     0     986.7    NA       0.0000   -SN      9999  0     0    
2019/06/07  08:32:00  BASE  0        358  0        M    -0.3  100   -0.3  0     0     986.7    NA       0.0000   -SN      9999  0     0    
2019/06/07  08:33:00  BASE  0        350  0        M    -0.3  100   -0.3  0     0     986.7    NA       0.0000   -SN      9999  0     0    
2019/06/07  08:34:00  BASE  0        346  0        M    -0.4  100   -0.4  0     0     986.6    NA       0.0000   -SN      9999  0     0    
2019/06/07  08:35:00  BASE  0        344  0        M    -0.3  100   -0.3  0     0     986.6    NA       0.0000   -SN      9999  0     0    
2019/06/07  08:36:00  BASE  0        336  0        M    -0.3  100   -0.3  0     0     986.6    NA       0.0000   -SN      9999  0     0    
2019/06/07  08:37:00  BASE  0        331  0        M    -0.4  100   -0.4  0     0     986.6    NA       0.0000   9999     0     0     0    
2019/06/07  08:38:00  BASE  0        330  0        M    -0.4  100   -0.4  0     0     986.6    NA       0.0000   9999     0     0     0    
2019/06/07  08:39:00  BASE  0        329  0        M    -0.4  100   -0.4  0     0     986.6    NA       0.0000   9999     1480  0     0    
2019/06/07  08:40:00  BASE  0        328  0        M    -0.5  100   -0.5  0     0     986.6    NA       0.0000   9999     0     0     0    
2019/06/07  08:41:00  BASE  0        323  0        M    -0.5  100   -0.5  0     0     986.6    NA       0.0000   9999     1020  0     0    
2019/06/07  08:42:00  BASE  0        318  0        M    -0.5  100   -0.5  0     0     986.6    NA       0.0000   9999     1050  0     0    
2019/06/07  08:43:00  BASE  0        318  0        M    -0.6  100   -0.6  0     0     986.6    NA       0.0000   9999     1080  0     0    
2019/06/07  08:44:00  BASE  0        318  0        M    -0.6  100   -0.6  0     0     986.6    NA       0.0000   9999     1150  0     0    
2019/06/07  08:45:00  BASE  0        318  0        M    -0.6  100   -0.6  0     0     986.6    NA       0.0000   9999     0     0     0    
2019/06/07  08:46:00  BASE  0        318  0        M    -0.6  100   -0.6  0     0     986.6    NA       0.0000   9999     0     0     0    
2019/06/07  08:47:00  BASE  0        318  0        M    -0.7  100   -0.7  0     0     986.6    NA       0.0000   9999     0     0     0    
2019/06/07  08:48:00  BASE  0        318  0        M    -0.7  100   -0.7  0     0     986.6    NA       0.0000   -SN      9000  660   0    
2019/06/07  08:49:00  BASE  0        314  0        M    -0.7  100   -0.7  0     0     986.6    NA       0.0000   -SN      7000  360   0    
2019/06/07  08:50:00  BASE  0        301  0        M    -0.7  100   -0.7  0     0     986.6    NA       0.0000   -SN      6000  0     0    
2019/06/07  08:51:00  BASE  0        286  0        M    -0.7  100   -0.7  0     0     986.6    NA       0.0000   -SN      6000  0     0    
2019/06/07  08:52:00  BASE  0        278  0        M    -0.7  100   -0.7  0     0     986.6    NA       0.0000   -SN      BR    7000  0    
2019/06/07  08:53:00  BASE  0        264  0        M    -0.7  100   -0.7  0     0     986.7    NA       0.0000   -SN      BR    8000  0    
2019/06/07  08:54:00  BASE  0        251  0        M    -0.7  100   -0.7  0     0     986.7    NA       0.0000   -SN      BR    6000  0    
2019/06/07  08:55:00  BASE  0        250  0        M    -0.7  100   -0.7  0     0     986.7    NA       0.0000   -SN      BR    6000  0    
2019/06/07  08:56:00  BASE  0        250  0        M    -0.7  100   -0.7  0     0     986.7    NA       0.0000   -SN      BR    7000  0    
2019/06/07  08:57:00  BASE  0        250  0        M    -0.7  100   -0.7  0     0     986.7    NA       0.0000   -SN      BR    8000  0    
2019/06/07  08:58:00  BASE  0        243  0        M    -0.7  100   -0.7  0     0     986.7    NA       0.0000   -SN      BR    8000  0    
2019/06/07  08:59:00  BASE  0        239  0        M    -0.7  100   -0.7  0     0     986.7    NA       0.0000   -SN      BR    9999  0    
2019/06/07  09:00:01  BASE  0        243  0        M    -0.7  100   -0.7  0     0     986.6    NA       0.0000   -SN      BR    9999  0    
2019/06/07  09:01:00  BASE  0        243  0        M    -0.7  100   -0.7  0     0     986.6    NA       0.0000   -SN      BR    9999  0    
2019/06/07  09:02:00  BASE  0        242  0        M    -0.7  100   -0.7  0     0     986.6    NA       0.0000   -SN      BR    9999  0    
2019/06/07  09:03:00  BASE  0        242  0        M    -0.7  100   -0.7  0     0     986.6    NA       0.0000   -SN      BR    9999  0    
2019/06/07  09:04:00  BASE  0        240  0        M    -0.7  100   -0.7  0     0     986.6    NA       0.0000   -SN      BR    9000  0    
2019/06/07  09:05:00  BASE  0        243  0        M    -0.7  100   -0.7  0     0     986.6    NA       0.0000   -SN      BR    8000  0    
2019/06/07  09:06:00  BASE  0        244  0        M    -0.8  100   -0.8  0     0     986.6    NA       0.0000   -SN      9000  0     0    
2019/06/07  09:07:00  BASE  0        234  0        M    -0.8  100   -0.8  0     0     986.6    NA       0.0000   -SN      9999  0     0    
2019/06/07  09:08:00  BASE  0        227  0        M    -0.8  100   -0.8  0     0     986.6    NA       0.0000   -SN      9000  0     0    
2019/06/07  09:09:00  BASE  0        227  0        M    -0.8  100   -0.8  0     0     986.6    NA       0.0000   -SN      8000  0     0    
2019/06/07  09:10:00  BASE  0        225  0        M    -0.8  100   -0.8  0     0     986.6    NA       0.0000   -SN      BR    7000  0    
2019/06/07  09:11:00  BASE  0        218  0        M    -0.8  100   -0.8  0     0     986.6    NA       0.0000   -SN      BR    7000  0    
2019/06/07  09:12:00  BASE  0        209  0        M    -0.8  100   -0.8  0     0     986.6    NA       0.0000   -SN      BR    9000  0    
2019/06/07  09:13:00  BASE  0        197  0        M    -0.8  100   -0.8  0     0     986.6    NA       0.0000   -SN      BR    9000  0    
2019/06/07  09:14:00  BASE  0        180  0        M    -0.8  100   -0.8  0     0     986.6    NA       0.0000   -SN      BR    9000  0    
2019/06/07  09:15:00  BASE  0        161  0        M    -0.8  100   -0.8  0     0     986.6    NA       0.0000   -SN      BR    8000  0    
2019/06/07  09:16:00  BASE  0        157  0        M    -0.8  100   -0.8  0     0     986.6    NA       0.0000   -SN      BR    8000  0    
2019/06/07  09:17:00  BASE  0        162  0        M    -0.8  100   -0.8  0     0     986.6    NA       0.0000   -SN      BR    7000  0    
2019/06/07  09:18:00  BASE  0        164  0        M    -0.8  100   -0.8  0     0     986.6    NA       0.0000   -SN      BR    5000  0    
2019/06/07  09:19:00  BASE  0        159  0        M    -0.7  100   -0.7  0     0     986.6    NA       0.0000   -SN      BR    4500  0    
2019/06/07  09:20:00  BASE  0        156  0        M    -0.7  100   -0.7  0     0     986.6    NA       0.0000   -SN      BR    3800  0    
2019/06/07  09:21:00  BASE  0        167  0        M    -0.7  100   -0.7  0     0     986.6    NA       0.0000   -SN      BR    3900  0    
2019/06/07  09:22:00  BASE  0        180  0        M    -0.7  100   -0.7  0     0     986.6    NA       0.0000   -SN      BR    3600  0    
2019/06/07  09:23:00  BASE  0        182  0        M    -0.7  100   -0.7  0     0     986.6    NA       0.0000   -SN      BR    3500  0    
2019/06/07  09:24:00  BASE  0        179  0        M    -0.7  100   -0.7  0     0     986.6    NA       0.0000   -SN      BR    3900  0    
2019/06/07  09:25:00  BASE  0        179  0        M    -0.8  100   -0.8  0     0     986.6    NA       0.0000   -SN      BR    3700  0    
2019/06/07  09:26:00  BASE  0        179  0        M    -0.8  100   -0.8  0     0     986.6    NA       0.0000   -SN      BR    3700  0    
2019/06/07  09:27:00  BASE  0        182  0        M    -0.8  100   -0.8  0     0     986.6    NA       0.0000   -SN      BR    4400  0    
2019/06/07  09:28:00  BASE  0        190  0        M    -0.8  100   -0.8  0     0     986.6    NA       0.0000   -SN      BR    4500  0    
2019/06/07  09:29:00  BASE  0        193  0        M    -0.8  100   -0.8  0     0     986.6    NA       0.0000   -SN      BR    4700  0    
2019/06/07  09:30:00  BASE  0        192  0        M    -0.8  100   -0.8  0     0     986.6    NA       0.0000   -SN      BR    5000  0    
2019/06/07  09:31:00  BASE  0        188  0        M    -0.8  100   -0.8  0     0     986.6    NA       0.0000   -SN      BR    5000  0    
2019/06/07  09:32:00  BASE  0        182  0        M    -0.8  100   -0.8  0     0     986.6    NA       0.0000   -SN      BR    5000  0    
2019/06/07  09:33:00  BASE  0        178  0        M    -0.7  100   -0.7  0     0     986.6    NA       0.0000   -SN      BR    5000  0    
2019/06/07  09:34:00  BASE  0        177  0        M    -0.8  100   -0.8  0     0     986.6    NA       0.0000   -SN      BR    5000  0    
2019/06/07  09:35:00  BASE  0        178  0        M    -0.8  100   -0.8  0     0     986.6    NA       0.0000   -SN      BR    4900  0    
2019/06/07  09:36:00  BASE  0        180  0        M    -0.8  100   -0.8  0     0     986.6    NA       0.0000   -SN      BR    4800  0    
2019/06/07  09:37:00  BASE  0        182  0        M    -0.8  100   -0.8  0     0     986.6    NA       0.0000   -SN      BR    4700  0    
2019/06/07  09:38:00  BASE  0        183  0        M    -0.8  100   -0.8  0     0     986.6    NA       0.0000   -SN      BR    4600  0    
2019/06/07  09:39:00  BASE  0        183  0        M    -0.8  100   -0.8  0     0     986.5    NA       0.0000   BR       4600  0     0    
2019/06/07  09:40:00  BASE  0        183  0        M    -0.9  100   -0.9  0     0     986.5    NA       0.0000   BR       4500  0     0    
2019/06/07  09:41:00  BASE  0        187  0        M    -0.9  100   -0.9  0     0     986.6    NA       0.0000   BR       4500  0     0    
2019/06/07  09:42:00  BASE  0        199  0        M    -1.0  100   -1.0  0     0     986.6    NA       0.0000   BR       4400  0     0    
2019/06/07  09:43:00  BASE  0        215  0        M    -1.0  100   -1.0  0     0     986.6    NA       0.0000   BR       4300  0     0    
2019/06/07  09:44:00  BASE  0        226  0        M    -1.0  100   -1.0  0     0     986.6    NA       0.0000   BR       4300  0     0    
2019/06/07  09:45:00  BASE  0        234  0        M    -1.0  100   -1.0  0     0     986.6    NA       0.0000   BR       4200  0     0    
2019/06/07  09:46:00  BASE  0        241  0        M    -1.0  100   -1.0  0     0     986.5    NA       0.0000   BR       4200  0     0    
2019/06/07  09:47:00  BASE  0        247  0        M    -1.1  100   -1.1  0     0     986.5    NA       0.0000   BR       4100  0     0    
2019/06/07  09:48:00  BASE  0        251  0        M    -1.1  100   -1.1  0     0     986.5    NA       0.0000   BR       4100  0     0    
2019/06/07  09:49:00  BASE  0        250  0        M    -1.0  100   -1.0  0     0     986.5    NA       0.0000   BR       4000  0     0    
2019/06/07  09:50:00  BASE  0        250  0        M    -1.0  100   -1.0  0     0     986.5    NA       0.0000   BR       4000  0     0    
2019/06/07  09:51:00  BASE  0        254  0        M    -1.0  100   -1.0  0     0     986.5    NA       0.0000   BR       3900  0     0    
2019/06/07  09:52:00  BASE  0        263  0        M    -1.0  100   -1.0  0     0     986.5    NA       0.2540   BR       3900  0     0    
2019/06/07  09:53:00  BASE  0        275  0        M    -1.0  100   -1.0  0     0     986.5    NA       0.0000   BR       3900  0     0    
2019/06/07  09:54:00  BASE  0        286  0        M    -1.0  100   -1.0  0     0     986.5    NA       0.0000   BR       3800  0     0    
2019/06/07  09:55:00  BASE  0        296  0        M    -1.0  100   -1.0  0     0     986.5    NA       0.0000   BR       3800  0     0    
2019/06/07  09:56:00  BASE  0        304  0        M    -1.0  100   -1.0  0     0     986.5    NA       0.0000   BR       3800  0     0    
2019/06/07  09:57:00  BASE  0        308  0        M    -1.0  100   -1.0  0     0     986.5    NA       0.0000   BR       3700  0     0    
2019/06/07  09:58:00  BASE  0        309  0        M    -1.0  100   -1.0  0     0     986.5    NA       0.0000   BR       3700  0     0    
2019/06/07  09:59:00  BASE  0        310  0        M    -1.0  100   -1.0  0     0     986.5    NA       0.0000   BR       3700  0     0    
2019/06/07  10:00:00  BASE  0        310  0        M    -0.9  100   -0.9  0     0     986.5    NA       0.0000   BR       3600  0     0    
2019/06/07  10:01:00  BASE  0        310  0        M    -0.9  100   -0.9  0     0     986.5    NA       0.0000   BR       3600  0     0    
2019/06/07  10:02:00  BASE  0        309  0        M    -0.9  100   -0.9  0     0     986.5    NA       0.0000   BR       3600  0     0    
2019/06/07  10:03:00  BASE  0        309  0        M    -0.9  100   -0.9  0     0     986.5    NA       0.0000   BR       3600  0     0    
2019/06/07  10:04:00  BASE  0        298  0        M    -0.9  100   -0.9  0     0     986.5    NA       0.0000   BR       3500  0     0    
2019/06/07  10:05:00  BASE  0        271  0        M    -0.9  100   -0.9  0     0     986.5    NA       0.0000   BR       3500  0     0    
2019/06/07  10:06:00  BASE  0        261  0        M    -1.0  100   -1.0  0     0     986.5    NA       0.0000   BR       3500  0     0    
2019/06/07  10:07:00  BASE  0        271  0        M    -1.0  100   -1.0  0     0     986.5    NA       0.0000   BR       3500  0     0    
2019/06/07  10:08:00  BASE  0        281  0        M    -1.0  100   -1.0  0     0     986.5    NA       0.0000   BR       3500  0     0    
2019/06/07  10:09:00  BASE  0        294  0        M    -1.0  100   -1.0  0     0     986.5    NA       0.0000   BR       3400  0     0    
2019/06/07  10:10:00  BASE  0        311  0        M    -1.0  100   -1.0  0     0     986.4    NA       0.0000   BR       3400  0     0    
2019/06/07  10:11:00  BASE  0        325  0        M    -0.9  100   -0.9  0     0     986.4    NA       0.0000   BR       3400  0     0    
2019/06/07  10:12:00  BASE  0        335  0        M    -0.9  100   -0.9  0     0     986.4    NA       0.0000   BR       3400  0     0    
2019/06/07  10:13:00  BASE  0        341  0        M    -0.9  100   -0.9  0     0     986.4    NA       0.0000   BR       3400  0     0    
2019/06/07  10:14:00  BASE  0        346  0        M    -0.9  100   -0.9  0     0     986.4    NA       0.0000   BR       3300  0     0    
2019/06/07  10:15:00  BASE  0        356  0        M    -0.9  100   -0.9  0     0     986.4    NA       0.0000   BR       3300  0     0    
2019/06/07  10:16:00  BASE  0        2    0        M    -1.0  100   -1.0  0     0     986.4    NA       0.0000   BR       3300  0     0    
2019/06/07  10:17:01  BASE  0        3    0        M    -1.0  100   -1.0  0     0     986.3    NA       0.0000   BR       3300  0     0    
2019/06/07  10:18:00  BASE  0        3    0        M    -1.0  100   -1.0  0     0     986.4    NA       0.0000   BR       3300  0     0    
2019/06/07  10:19:00  BASE  0        3    0        M    -1.0  100   -1.0  0     0     986.4    NA       0.0000   BR       3300  0     0    
2019/06/07  10:20:00  BASE  0        2    0        M    -1.1  100   -1.1  0     0     986.3    NA       0.0000   BR       3200  0     0    
2019/06/07  10:21:00  BASE  0        2    0        M    -1.1  100   -1.1  0     0     986.4    NA       0.0000   BR       3200  0     0    
2019/06/07  10:22:00  BASE  0        2    0        M    -1.1  100   -1.1  0     0     986.4    NA       0.0000   BR       3200  0     0    
2019/06/07  10:23:00  BASE  0        1    0        M    -1.1  100   -1.1  0     0     986.4    NA       0.0000   BR       3200  0     0    
2019/06/07  10:24:00  BASE  0        359  0        M    -1.1  100   -1.1  0     0     986.3    NA       0.0000   BR       3200  0     0    
2019/06/07  10:25:00  BASE  0        351  0        M    -1.0  100   -1.0  0     0     986.4    NA       0.0000   BR       3200  0     0    
2019/06/07  10:26:00  BASE  0        347  0        M    -1.0  100   -1.0  0     0     986.3    NA       0.0000   BR       3200  0     0    
2019/06/07  10:27:00  BASE  0        347  0        M    -1.0  100   -1.0  0     0     986.3    NA       0.0000   BR       3200  0     0    
2019/06/07  10:28:00  BASE  0        348  0        M    -0.9  100   -0.9  0     0     986.3    NA       0.0000   BR       3200  0     0    
2019/06/07  10:29:00  BASE  0        355  0        M    -0.9  100   -0.9  0     0     986.3    NA       0.0000   BR       3200  0     0    
2019/06/07  10:30:00  BASE  0        360  0        M    -0.9  100   -0.9  0     0     986.3    NA       0.0000   BR       3200  0     0    
2019/06/07  10:31:00  BASE  0        3    0        M    -0.9  100   -0.9  0     0     986.3    NA       0.0000   BR       3100  0     0    
2019/06/07  10:32:00  BASE  0        5    0        M    -0.9  100   -0.9  0     0     986.3    NA       0.0000   BR       3100  0     0    
2019/06/07  10:33:00  BASE  0        6    0        M    -0.9  100   -0.9  0     0     986.3    NA       0.0000   BR       3100  0     0    
2019/06/07  10:34:00  BASE  0        8    0        M    -0.8  100   -0.8  0     0     986.3    NA       0.0000   BR       4000  0     0    
2019/06/07  10:35:00  BASE  0        8    0        M    -0.8  100   -0.8  0     0     986.3    NA       0.0000   UP       BR    7000  0    
2019/06/07  10:36:00  BASE  0        8    0        M    -0.8  100   -0.8  0     0     986.3    NA       0.0000   UP       BR    6000  0    
2019/06/07  10:37:00  BASE  0        8    0        M    -0.8  100   -0.8  0     0     986.3    NA       0.0000   UP       BR    5000  0    
2019/06/07  10:38:00  BASE  0        8    0        M    -0.8  100   -0.8  0     0     986.2    NA       0.0000   UP       BR    5000  0    
2019/06/07  10:39:00  BASE  0        8    0        M    -0.8  100   -0.8  0     0     986.2    NA       0.0000   UP       BR    4700  0    
2019/06/07  10:40:00  BASE  0        8    0        M    -0.7  100   -0.7  0     0     986.2    NA       0.0000   UP       BR    4900  0    
2019/06/07  10:41:00  BASE  0        8    0        M    -0.7  100   -0.7  0     0     986.2    NA       0.0000   UP       BR    5000  0    
2019/06/07  10:42:00  BASE  0        7    0        M    -0.7  100   -0.7  0     0     986.2    NA       0.0000   UP       BR    5000  0    
2019/06/07  10:43:00  BASE  0        359  0        M    -0.7  100   -0.7  0     0     986.2    NA       0.0000   UP       BR    4400  0    
2019/06/07  10:44:00  BASE  0        358  0        M    -0.7  100   -0.7  0     0     986.2    NA       0.0000   UP       BR    4000  0    
2019/06/07  10:45:00  BASE  0        358  0        M    -0.7  100   -0.7  0     0     986.2    NA       0.0000   UP       BR    4100  0    
2019/06/07  10:46:00  BASE  0        352  0        M    -0.7  100   -0.7  0     0     986.2    NA       0.0000   UP       BR    3600  0    
2019/06/07  10:47:00  BASE  0        350  0        M    -0.7  100   -0.7  0     0     986.2    NA       0.0000   UP       BR    3300  0    
2019/06/07  10:48:00  BASE  0        356  0        M    -0.7  100   -0.7  0     0     986.2    NA       0.0000   UP       BR    3400  0    
2019/06/07  10:49:00  BASE  0        2    0        M    -0.7  100   -0.7  0     0     986.2    NA       0.0000   UP       BR    3900  0    
2019/06/07  10:50:00  BASE  0        1    0        M    -0.7  100   -0.7  0     0     986.2    NA       0.0000   UP       BR    4500  0    
2019/06/07  10:51:00  BASE  0        1    0        M    -0.7  100   -0.7  0     0     986.2    NA       0.0000   UP       BR    4600  0    
2019/06/07  10:52:00  BASE  0        1    0        M    -0.7  100   -0.7  0     0     986.2    NA       0.0000   UP       BR    5000  0    
2019/06/07  10:53:00  BASE  0        357  0        M    -0.7  100   -0.7  0     0     986.2    NA       0.0000   UP       BR    4700  0    
2019/06/07  10:54:00  BASE  0        354  0        M    -0.7  100   -0.7  0     0     986.2    NA       0.0000   UP       BR    3300  0    
2019/06/07  10:55:00  BASE  0        353  0        M    -0.7  100   -0.7  0     0     986.2    NA       0.0000   UP       BR    3000  0    
2019/06/07  10:56:00  BASE  0        346  0        M    -0.7  100   -0.7  0     0     986.2    NA       0.0000   UP       BR    3100  0    
2019/06/07  10:57:00  BASE  0        336  0        M    -0.7  100   -0.7  0     0     986.2    NA       0.0000   UP       BR    3000  0    
2019/06/07  10:58:00  BASE  0        332  0        M    -0.7  100   -0.7  0     0     986.2    NA       0.0000   UP       BR    3100  0    
2019/06/07  10:59:00  BASE  0        331  0        M    -0.7  100   -0.7  0     0     986.2    NA       0.0000   UP       BR    3100  0    
2019/06/07  11:00:00  BASE  0        331  0        M    -0.7  100   -0.7  0     0     986.2    NA       0.0000   UP       BR    3100  0    
2019/06/07  11:01:00  BASE  0        329  0        M    -0.7  100   -0.7  0     0     986.1    NA       0.0000   UP       BR    3000  0    
2019/06/07  11:02:00  BASE  0        326  0        M    -0.7  100   -0.7  0     0     986.2    NA       0.0000   UP       BR    3000  0    
2019/06/07  11:03:00  BASE  0        322  0        M    -0.7  100   -0.7  0     0     986.2    NA       0.0000   UP       BR    3000  0    
2019/06/07  11:04:00  BASE  0        320  0        M    -0.7  100   -0.7  0     0     986.2    NA       0.0000   UP       BR    3000  0    
2019/06/07  11:05:00  BASE  0        320  0        M    -0.7  100   -0.7  0     0     986.2    NA       0.0000   UP       BR    3000  0    
2019/06/07  11:06:00  BASE  0        320  0        M    -0.7  100   -0.7  0     0     986.1    NA       0.0000   UP       BR    3000  0    
2019/06/07  11:07:00  BASE  0        320  0        M    -0.7  100   -0.7  0     0     986.1    NA       0.0000   BR       3000  0     0    
2019/06/07  11:08:00  BASE  0        316  0        M    -0.7  100   -0.7  0     0     986.1    NA       0.0000   BR       3000  0     0    
2019/06/07  11:09:00  BASE  0        311  0        M    -0.7  100   -0.7  0     0     986.1    NA       0.0000   BR       3000  0     0    
2019/06/07  11:10:00  BASE  0        308  0        M    -0.7  100   -0.7  0     0     986.2    NA       0.0000   BR       3000  0     0    
2019/06/07  11:11:00  BASE  0        307  0        M    -0.7  100   -0.7  0     0     986.2    NA       0.0000   BR       3000  0     0    
2019/06/07  11:12:00  BASE  0        303  0        M    -0.7  100   -0.7  0     0     986.2    NA       0.0000   BR       3000  0     0    
2019/06/07  11:13:00  BASE  0        303  0        M    -0.7  100   -0.7  0     0     986.2    NA       0.0000   BR       3000  0     0    
2019/06/07  11:14:00  BASE  0        306  0        M    -0.7  100   -0.7  0     0     986.2    NA       0.0000   UP       BR    3000  0    
2019/06/07  11:15:00  BASE  0        311  0        M    -0.8  100   -0.8  0     0     986.2    NA       0.0000   UP       BR    3000  0    
2019/06/07  11:16:00  BASE  0        313  0        M    -0.8  100   -0.8  0     0     986.2    NA       0.0000   UP       BR    3000  0    
2019/06/07  11:17:00  BASE  0        314  0        M    -0.8  100   -0.8  0     0     986.2    NA       0.0000   UP       BR    3000  0    
2019/06/07  11:18:00  BASE  0        318  0        M    -0.8  100   -0.8  0     0     986.2    NA       0.0000   BR       3000  0     0    
2019/06/07  11:19:00  BASE  0        324  0        M    -0.8  100   -0.8  0     0     986.2    NA       0.0000   BR       3000  0     0    
2019/06/07  11:20:00  BASE  0        333  0        M    -0.8  100   -0.8  0     0     986.2    NA       0.0000   BR       3000  0     0    
2019/06/07  11:21:00  BASE  0        340  0        M    -0.8  100   -0.8  0     0     986.2    NA       0.0000   BR       3000  0     0    
2019/06/07  11:22:00  BASE  0        344  0        M    -0.9  100   -0.9  0     0     986.2    NA       0.0000   BR       3000  0     0    
2019/06/07  11:23:00  BASE  0        345  0        M    -0.9  100   -0.9  0     0     986.2    NA       0.0000   BR       3000  0     0    
2019/06/07  11:24:00  BASE  0        337  0        M    -1.0  100   -1.0  0     0     986.2    NA       0.0000   BR       3000  0     0    
2019/06/07  11:25:00  BASE  0        334  0        M    -1.0  100   -1.0  0     0     986.2    NA       0.0000   BR       3000  0     0    
2019/06/07  11:26:00  BASE  0        333  0        M    -1.0  100   -1.0  0     0     986.2    NA       0.0000   BR       3000  0     0    
2019/06/07  11:27:00  BASE  0        334  0        M    -1.0  100   -1.0  0     0     986.2    NA       0.0000   BR       3000  0     0    
2019/06/07  11:28:00  BASE  0        331  0        M    -1.0  100   -1.0  0     0     986.2    NA       0.0000   BR       3000  0     0    
2019/06/07  11:29:00  BASE  0        331  0        M    -0.9  100   -0.9  0     0     986.1    NA       0.0000   BR       3000  0     0    
2019/06/07  11:30:00  BASE  0        332  0        M    -0.9  100   -0.9  0     0     986.1    NA       0.0000   BR       3000  0     0    
2019/06/07  11:31:00  BASE  0        330  0        M    -0.9  100   -0.9  0     0     986.0    NA       0.0000   BR       3000  0     0    
2019/06/07  11:32:00  BASE  0        335  0        M    -0.9  100   -0.9  0     0     986.0    NA       0.0000   BR       3000  0     0    
2019/06/07  11:33:00  BASE  0        338  0        M    -0.9  100   -0.9  0     0     986.0    NA       0.0000   BR       3000  0     0    
2019/06/07  11:34:00  BASE  0        334  0        M    -0.9  100   -0.9  0     0     986.0    NA       0.0000   BR       3000  0     0    
2019/06/07  11:35:00  BASE  0        334  0        M    -0.9  100   -0.9  0     0     986.0    NA       0.0000   BR       3000  0     0    
2019/06/07  11:36:00  BASE  0        332  0        M    -1.0  100   -1.0  0     0     986.0    NA       0.0000   BR       3000  0     0    
2019/06/07  11:37:00  BASE  0        328  0        M    -1.0  100   -1.0  0     0     986.0    NA       0.0000   BR       3000  0     0    
2019/06/07  11:38:00  BASE  0        325  0        M    -1.0  100   -1.0  0     0     986.0    NA       0.0000   BR       3000  0     0    
2019/06/07  11:39:00  BASE  0        326  0        M    -1.0  100   -1.0  0     0     986.0    NA       0.0000   BR       3000  0     0    
2019/06/07  11:40:00  BASE  0        328  0        M    -1.0  100   -1.0  0     0     986.1    NA       0.0000   BR       2300  0     0    
2019/06/07  11:41:00  BASE  0        327  0        M    -1.0  100   -1.0  0     0     986.2    NA       0.0000   UP       BR    1700  0    
2019/06/07  11:42:00  BASE  0        327  0        M    -1.1  100   -1.1  0     0     986.1    NA       0.0000   UP       BR    1700  0    
2019/06/07  11:43:00  BASE  0        325  0        M    -1.1  100   -1.1  0     0     986.2    NA       0.0000   UP       BR    1700  0    
2019/06/07  11:44:00  BASE  0        323  0        M    -1.1  100   -1.1  0     0     986.2    NA       0.0000   UP       BR    1600  0    
2019/06/07  11:45:00  BASE  0        322  0        M    -1.1  100   -1.1  0     0     986.2    NA       0.2540   UP       BR    1500  0    
2019/06/07  11:46:00  BASE  0        322  0        M    -1.1  100   -1.1  0     0     986.2    NA       0.0000   UP       BR    1500  0    
2019/06/07  11:47:00  BASE  0        322  0        M    -1.1  100   -1.1  0     0     986.2    NA       0.0000   UP       BR    1400  0    
2019/06/07  11:48:00  BASE  0        322  0        M    -1.1  100   -1.1  0     0     986.2    NA       0.0000   UP       BR    1400  0    
2019/06/07  11:49:00  BASE  0        322  0        M    -1.1  100   -1.1  0     0     986.2    NA       0.0000   UP       BR    1400  0    
2019/06/07  11:50:00  BASE  0        322  0        M    -1.1  100   -1.1  0     0     986.1    NA       0.0000   UP       BR    1400  0    
2019/06/07  11:51:00  BASE  0        322  0        M    -1.1  100   -1.1  0     0     986.0    NA       0.0000   UP       BR    1500  0    
2019/06/07  11:52:00  BASE  0        322  0        M    -1.1  100   -1.1  0     0     986.0    NA       0.0000   UP       BR    1600  0    
2019/06/07  11:53:00  BASE  0        321  0        M    -1.1  100   -1.1  0     0     986.0    NA       0.0000   UP       BR    1700  0    
2019/06/07  11:54:00  BASE  0        324  0        M    -1.1  100   -1.1  0     0     986.0    NA       0.0000   UP       BR    1800  0    
2019/06/07  11:55:00  BASE  0        327  0        M    -1.1  100   -1.1  0     0     986.0    NA       0.0000   UP       BR    1800  0    
2019/06/07  11:56:00  BASE  0        328  0        M    -1.1  100   -1.1  0     0     985.8    NA       0.0000   UP       BR    1800  0    
2019/06/07  11:57:00  BASE  0        328  0        M    -1.1  100   -1.1  0     0     986.0    NA       0.0000   UP       BR    1800  0    
2019/06/07  11:58:00  BASE  0        328  0        M    -1.1  100   -1.1  0     0     986.0    NA       0.0000   UP       BR    1800  0    
2019/06/07  11:59:00  BASE  0        328  0        M    -1.1  100   -1.1  0     0     986.0    NA       0.0000   UP       BR    1800  0    
2019/06/07  12:00:00  BASE  0        328  0        M    -1.1  100   -1.1  0     0     986.0    NA       0.0000   UP       BR    1800  0    
2019/06/07  12:01:00  BASE  0        326  0        M    -1.1  100   -1.1  0     0     986.0    NA       0.0000   UP       BR    1800  0    
2019/06/07  12:02:01  BASE  0        323  0        M    -1.1  100   -1.1  0     0     986.0    NA       0.0000   UP       BR    1800  0    
2019/06/07  12:03:00  BASE  0        319  0        M    -1.1  100   -1.1  0     0     986.0    NA       0.0000   BR       1800  0     0    
2019/06/07  12:04:00  BASE  0        316  0        M    -1.1  100   -1.1  0     0     986.0    NA       0.0000   BR       1800  0     0    
2019/06/07  12:05:00  BASE  0        314  0        M    -1.1  100   -1.1  0     0     985.8    NA       0.0000   BR       1800  0     0    
2019/06/07  12:06:00  BASE  0        314  0        M    -1.1  100   -1.1  0     0     986.0    NA       0.0000   BR       1800  0     0    
2019/06/07  12:07:00  BASE  0        315  0        M    -1.0  100   -1.0  0     0     986.0    NA       0.0000   BR       1800  0     0    
2019/06/07  12:08:00  BASE  0        314  0        M    -1.0  100   -1.0  0     0     986.0    NA       0.0000   BR       1800  0     0    
2019/06/07  12:09:00  BASE  0        314  0        M    -1.0  100   -1.0  0     0     986.0    NA       0.0000   BR       1800  0     0    
2019/06/07  12:10:00  BASE  0        313  0        M    -1.0  100   -1.0  0     0     986.0    NA       0.0000   BR       1800  0     0    
2019/06/07  12:11:00  BASE  0        312  0        M    -1.0  100   -1.0  0     0     986.0    NA       0.0000   BR       1800  0     0    
2019/06/07  12:12:00  BASE  0        312  0        M    -1.0  100   -1.0  0     0     986.0    NA       0.0000   BR       1800  0     0    
2019/06/07  12:13:00  BASE  0        314  0        M    -1.0  100   -1.0  0     0     986.0    NA       0.0000   BR       1800  0     0    
2019/06/07  12:14:00  BASE  0        315  0        M    -1.0  100   -1.0  0     0     986.0    NA       0.0000   UP       BR    2200  0    
2019/06/07  12:15:00  BASE  0        317  0        M    -1.0  100   -1.0  0     0     986.0    NA       0.0000   UP       BR    3100  0    
2019/06/07  12:16:00  BASE  0        319  0        M    -1.1  100   -1.1  0     0     986.0    NA       0.0000   UP       BR    3000  0    
2019/06/07  12:17:00  BASE  0        320  0        M    -1.1  100   -1.1  0     0     986.0    NA       0.0000   UP       BR    3500  0    
2019/06/07  12:18:00  BASE  0        320  0        M    -1.1  100   -1.1  0     0     986.0    NA       0.0000   UP       BR    3600  0    
2019/06/07  12:19:00  BASE  0        321  0        M    -1.1  100   -1.1  0     0     985.9    NA       0.0000   UP       BR    3400  0    
2019/06/07  12:20:00  BASE  0        322  0        M    -1.1  100   -1.1  0     0     986.0    NA       0.0000   UP       BR    4000  0    
2019/06/07  12:21:00  BASE  0        322  0        M    -1.1  100   -1.1  0     0     986.0    NA       0.0000   UP       BR    3800  0    
2019/06/07  12:22:00  BASE  0        322  0        M    -1.1  100   -1.1  0     0     986.0    NA       0.0000   UP       BR    3600  0    
2019/06/07  12:23:00  BASE  0        322  0        M    -1.1  100   -1.1  0     0     986.0    NA       0.0000   UP       BR    2900  0    
2019/06/07  12:24:00  BASE  0        321  0        M    -1.1  100   -1.1  0     0     986.0    NA       0.0000   UP       BR    2400  0    
2019/06/07  12:25:00  BASE  0        318  0        M    -1.1  100   -1.1  0     0     986.0    NA       0.0000   UP       BR    2600  0    
2019/06/07  12:26:00  BASE  0        317  0        M    -1.2  100   -1.2  0     0     986.0    NA       0.0000   UP       BR    3100  0    
2019/06/07  12:27:00  BASE  0        319  0        M    -1.2  100   -1.2  0     0     986.0    NA       0.0000   UP       BR    3400  0    
2019/06/07  12:28:00  BASE  0        321  0        M    -1.2  100   -1.2  0     0     986.0    NA       0.0000   UP       BR    3200  0    
2019/06/07  12:29:00  BASE  0        322  0        M    -1.2  100   -1.2  0     0     986.0    NA       0.0000   UP       BR    3200  0    
2019/06/07  12:30:00  BASE  0        320  0        M    -1.2  100   -1.2  0     0     986.0    NA       0.0000   UP       BR    3300  0    
2019/06/07  12:31:00  BASE  0        318  0        M    -1.2  100   -1.2  0     0     986.0    NA       0.0000   UP       BR    3300  0    
2019/06/07  12:32:00  BASE  0        316  0        M    -1.1  100   -1.1  0     0     986.0    NA       0.0000   UP       BR    3300  0    
2019/06/07  12:33:00  BASE  0        314  0        M    -1.1  100   -1.1  0     0     986.0    NA       0.0000   UP       BR    3300  0    
2019/06/07  12:34:00  BASE  0        313  0        M    -1.1  100   -1.1  0     0     986.0    NA       0.0000   UP       BR    3800  0    
2019/06/07  12:35:00  BASE  0        314  0        M    -1.1  100   -1.1  0     0     986.0    NA       0.0000   UP       BR    4500  0    
2019/06/07  12:36:00  BASE  0        316  0        M    -1.1  100   -1.1  0     0     986.0    NA       0.0000   UP       BR    4500  0    
2019/06/07  12:37:00  BASE  0        318  0        M    -1.1  100   -1.1  0     0     986.0    NA       0.0000   UP       BR    4500  0    
2019/06/07  12:38:00  BASE  0        324  0        M    -1.1  100   -1.1  0     0     986.0    NA       0.0000   UP       BR    4600  0    
2019/06/07  12:39:00  BASE  0        331  0        M    -1.1  100   -1.1  0     0     986.0    NA       0.0000   UP       BR    5000  0    
2019/06/07  12:40:00  BASE  0        338  0        M    -1.1  100   -1.1  0     0     986.0    NA       0.0000   UP       BR    5000  0    
2019/06/07  12:41:00  BASE  0        342  0        M    -1.1  100   -1.1  0     0     986.0    NA       0.0000   UP       BR    5000  0    
2019/06/07  12:42:00  BASE  0        344  0        M    -1.1  100   -1.1  0     0     986.0    NA       0.0000   UP       BR    5000  0    
2019/06/07  12:43:00  BASE  0        349  0        M    -1.1  100   -1.1  0     0     986.0    NA       0.0000   UP       BR    5000  0    
2019/06/07  12:44:00  BASE  0        351  0        M    -1.1  100   -1.1  0     0     986.0    NA       0.0000   UP       BR    5000  0    
2019/06/07  12:45:00  BASE  0        352  0        M    -1.1  100   -1.1  0     0     986.0    NA       0.0000   UP       BR    5000  0    
2019/06/07  12:46:00  BASE  0        356  0        M    -1.1  100   -1.1  0     0     986.0    NA       0.0000   UP       BR    5000  0    
2019/06/07  12:47:00  BASE  0        1    0        M    -1.1  100   -1.1  0     0     986.0    NA       0.0000   UP       BR    5000  0    
2019/06/07  12:48:00  BASE  0        358  0        M    -1.1  100   -1.1  0     0     986.0    NA       0.0000   BR       5000  0     0    
2019/06/07  12:49:00  BASE  0        352  0        M    -1.1  100   -1.1  0     0     986.0    NA       0.0000   BR       5000  0     0    
2019/06/07  12:50:00  BASE  0        353  0        M    -1.1  100   -1.1  0     0     986.0    NA       0.0000   BR       5000  0     0    
2019/06/07  12:51:00  BASE  0        355  0        M    -1.1  100   -1.1  0     0     986.1    NA       0.0000   BR       5000  0     0    
2019/06/07  12:52:00  BASE  0        355  0        M    -1.0  100   -1.0  0     0     986.2    NA       0.0000   BR       5000  0     0    
2019/06/07  12:53:00  BASE  0        350  0        M    -1.0  100   -1.0  0     0     986.1    NA       0.0000   BR       6000  0     0    
2019/06/07  12:54:00  BASE  0        349  0        M    -1.0  100   -1.0  0     0     986.0    NA       0.0000   UP       BR    6000  0    
2019/06/07  12:55:00  BASE  0        354  0        M    -1.0  100   -1.0  0     0     986.0    NA       0.0000   UP       BR    5000  0    
2019/06/07  12:56:00  BASE  0        358  0        M    -1.0  100   -1.0  0     0     986.0    NA       0.0000   UP       BR    5000  0    
2019/06/07  12:57:00  BASE  0        2    0        M    -1.0  100   -1.0  0     0     986.0    NA       0.0000   UP       BR    5000  0    
2019/06/07  12:58:00  BASE  0        357  0        M    -1.0  100   -1.0  0     0     986.0    NA       0.0000   UP       BR    5000  0    
2019/06/07  12:59:00  BASE  0        348  0        M    -1.0  100   -1.0  0     0     986.0    NA       0.0000   -SN      BR    5000  0    
2019/06/07  13:00:00  BASE  0        344  0        M    -1.0  100   -1.0  0     0     986.0    NA       0.0000   -SN      BR    4600  0    
2019/06/07  13:01:00  BASE  0        344  0        M    -1.0  100   -1.0  0     0     986.0    NA       0.0000   -SN      BR    4200  0    
2019/06/07  13:02:00  BASE  0        346  0        M    -1.0  100   -1.0  0     0     986.0    NA       0.0000   -SN      BR    4800  0    
2019/06/07  13:03:00  BASE  0        341  0        M    -1.0  100   -1.0  0     0     986.0    NA       0.0000   -SN      BR    6000  0    
2019/06/07  13:04:00  BASE  0        337  0        M    -1.0  100   -1.0  0     0     986.0    NA       0.0000   -SN      BR    7000  0    
2019/06/07  13:05:00  BASE  0        338  0        M    -1.0  100   -1.0  0     0     986.0    NA       0.0000   -SN      BR    7000  0    
2019/06/07  13:06:00  BASE  0        343  0        M    -1.0  100   -1.0  0     0     986.0    NA       0.0000   -SN      BR    9000  0    
2019/06/07  13:07:00  BASE  0        333  0        M    -1.0  100   -1.0  0     0     986.0    NA       0.0000   -SN      BR    9999  0    
2019/06/07  13:08:00  BASE  0        316  0        M    -1.0  100   -1.0  0     0     986.0    NA       0.0000   -SN      BR    9999  0    
2019/06/07  13:09:00  BASE  0        313  0        M    -1.0  100   -1.0  0     0     986.0    NA       0.0000   -SN      BR    9999  0    
2019/06/07  13:10:00  BASE  0        311  0        M    -1.0  100   -1.0  0     0     986.0    NA       0.0000   -SN      BR    9999  0    
2019/06/07  13:11:00  BASE  0        311  0        M    -1.0  100   -1.0  0     0     986.0    NA       0.0000   -SN      BR    9000  0    
2019/06/07  13:12:00  BASE  0        315  0        M    -1.0  100   -1.0  0     0     986.0    NA       0.2540   -SN      BR    9999  0    
2019/06/07  13:13:00  BASE  0        315  0        M    -1.0  100   -1.0  0     0     986.0    NA       0.0000   -SN      BR    9999  0    
2019/06/07  13:14:00  BASE  0        318  0        M    -1.0  100   -1.0  0     0     986.0    NA       0.0000   -SN      BR    7000  0    
2019/06/07  13:15:00  BASE  0        324  0        M    -1.0  100   -1.0  0     0     986.0    NA       0.0000   -SN      BR    7000  0    
2019/06/07  13:16:00  BASE  0        323  0        M    -1.0  100   -1.0  0     0     986.0    NA       0.0000   -SN      BR    9000  0    
2019/06/07  13:17:00  BASE  0        321  0        M    -1.0  100   -1.0  0     0     986.0    NA       0.0000   -SN      BR    9000  0    
2019/06/07  13:18:00  BASE  0        325  0        M    -1.0  100   -1.0  0     0     986.0    NA       0.0000   -SN      BR    9000  0    
2019/06/07  13:19:00  BASE  0        327  0        M    -1.0  100   -1.0  0     0     986.0    NA       0.0000   -SN      BR    8000  0    
2019/06/07  13:20:00  BASE  0        325  0        M    -1.0  100   -1.0  0     0     986.0    NA       0.0000   -SN      BR    9000  0    
2019/06/07  13:21:00  BASE  0        328  0        M    -1.0  100   -1.0  0     0     986.0    NA       0.0000   -SN      BR    9000  0    
2019/06/07  13:22:00  BASE  0        328  0        M    -1.0  100   -1.0  0     0     986.0    NA       0.0000   -SN      BR    9000  0    
2019/06/07  13:23:00  BASE  0        323  0        M    -1.0  100   -1.0  0     0     986.0    NA       0.0000   -SN      BR    7000  0    
2019/06/07  13:24:00  BASE  0        329  0        M    -1.0  100   -1.0  0     0     986.0    NA       0.0000   -SN      BR    7000  0    
2019/06/07  13:25:00  BASE  0        340  0        M    -1.0  100   -1.0  0     0     986.0    NA       0.0000   -SN      BR    5000  0    
2019/06/07  13:26:00  BASE  0        344  0        M    -1.0  100   -1.0  0     0     986.0    NA       0.0000   -SN      BR    4500  0    
2019/06/07  13:27:01  BASE  0        347  0        M    -1.0  100   -1.0  0     0     986.0    NA       0.0000   -SN      BR    4200  0    
2019/06/07  13:28:00  BASE  0        342  0        M    -1.1  100   -1.1  0     0     986.0    NA       0.0000   -SN      BR    4200  0    
2019/06/07  13:29:00  BASE  0        339  0        M    -1.1  100   -1.1  0     0     986.0    NA       0.0000   -SN      BR    4300  0    
2019/06/07  13:30:00  BASE  0        331  0        M    -1.1  100   -1.1  0     0     986.0    NA       0.0000   -SN      BR    5000  0    
2019/06/07  13:31:00  BASE  0        320  0        M    -1.1  100   -1.1  0     0     986.0    NA       0.0000   -SN      BR    6000  0    
2019/06/07  13:32:00  BASE  0        322  0        M    -1.1  100   -1.1  0     0     986.0    NA       0.0000   -SN      BR    6000  0    
2019/06/07  13:33:00  BASE  0        327  0        M    -1.1  100   -1.1  0     0     986.0    NA       0.0000   -SN      BR    5000  0    
2019/06/07  13:34:00  BASE  0        327  0        M    -1.1  100   -1.1  0     0     986.0    NA       0.0000   -SN      BR    7000  0    
2019/06/07  13:35:00  BASE  0        327  0        M    -1.2  100   -1.2  0     0     986.0    NA       0.0000   -SN      BR    9999  0    
2019/06/07  13:36:00  BASE  0        328  0        M    -1.2  100   -1.2  0     0     985.9    NA       0.0000   -SN      BR    9999  0    
2019/06/07  13:37:00  BASE  0        324  0        M    -1.2  100   -1.2  0     0     985.9    NA       0.0000   -SN      BR    9999  0    
2019/06/07  13:38:00  BASE  0        319  0        M    -1.2  100   -1.2  0     0     985.9    NA       0.0000   -SN      BR    9999  0    
2019/06/07  13:39:00  BASE  0        313  0        M    -1.2  100   -1.2  0     0     985.9    NA       0.0000   -SN      BR    9999  0    
2019/06/07  13:40:00  BASE  0        309  0        M    -1.2  100   -1.2  0     0     985.9    NA       0.0000   -SN      BR    9999  0    
2019/06/07  13:41:00  BASE  0        314  0        M    -1.2  100   -1.2  0     0     985.9    NA       0.0000   -SN      BR    9999  0    
2019/06/07  13:42:00  BASE  0        320  0        M    -1.2  100   -1.2  0     0     985.9    NA       0.0000   -SN      9999  0     0    
2019/06/07  13:43:00  BASE  0        320  0        M    -1.3  100   -1.3  0     0     985.9    NA       0.0000   -SN      9999  0     0    
2019/06/07  13:44:00  BASE  0        316  0        M    -1.3  100   -1.3  0     0     985.9    NA       0.0000   -SN      9999  0     0    
2019/06/07  13:45:00  BASE  0        312  0        M    -1.3  100   -1.3  0     0     985.9    NA       0.0000   -SN      9999  0     0    
2019/06/07  13:46:00  BASE  0        313  0        M    -1.3  100   -1.3  0     0     985.9    NA       0.0000   -SN      9999  0     0    
2019/06/07  13:47:00  BASE  0        314  0        M    -1.3  100   -1.3  0     0     985.8    NA       0.0000   -SN      9999  0     0    
2019/06/07  13:48:00  BASE  0        313  0        M    -1.4  100   -1.4  0     0     985.8    NA       0.0000   -SN      9999  0     0    
2019/06/07  13:49:00  BASE  0        314  0        M    -1.4  100   -1.4  0     0     985.8    NA       0.0000   9999     0     0     0    
2019/06/07  13:50:00  BASE  0        312  0        M    -1.4  100   -1.4  0     0     985.8    NA       0.0000   9999     0     0     0    
2019/06/07  13:51:00  BASE  0        307  0        M    -1.4  100   -1.4  0     0     985.8    NA       0.0000   9999     0     0     0    
2019/06/07  13:52:00  BASE  0        300  0        M    -1.4  100   -1.4  0     0     985.8    NA       0.0000   9999     0     0     0    
2019/06/07  13:53:00  BASE  0        294  0        M    -1.4  100   -1.4  1     0     985.8    NA       0.0000   9999     0     0     0    
2019/06/07  13:54:00  BASE  0        289  0        M    -1.4  100   -1.4  1     0     985.8    NA       0.0000   9999     0     0     0    
2019/06/07  13:55:00  BASE  0        287  0        M    -1.4  100   -1.4  1     0     985.8    NA       0.0000   9999     0     0     0    
2019/06/07  13:56:00  BASE  0        288  0        M    -1.3  100   -1.3  1     0     985.8    NA       0.0000   9999     0     0     0    
2019/06/07  13:57:00  BASE  0        295  0        M    -1.3  100   -1.3  1     0     985.8    NA       0.0000   9999     0     0     0    
2019/06/07  13:58:00  BASE  0        299  0        M    -1.3  100   -1.3  1     0     985.8    NA       0.0000   9000     0     0     0    
2019/06/07  13:59:00  BASE  0        304  0        M    -1.3  100   -1.3  1     0     985.8    NA       0.0000   9000     0     0     0    
2019/06/07  14:00:00  BASE  0        310  0        M    -1.3  100   -1.3  1     0     985.7    NA       0.0000   BR       7000  0     0    
2019/06/07  14:01:00  BASE  0        311  0        M    -1.3  100   -1.3  1     0     985.8    NA       0.0000   -SN      BR    5000  0    
2019/06/07  14:02:00  BASE  0        311  0        M    -1.3  100   -1.3  1     0     985.8    NA       0.0000   -SN      BR    6000  0    
2019/06/07  14:03:00  BASE  0        311  0        M    -1.3  100   -1.3  1     0     985.8    NA       0.0000   -SN      BR    5000  0    
2019/06/07  14:04:00  BASE  0        311  0        M    -1.3  100   -1.3  1     0     985.7    NA       0.0000   -SN      BR    4200  0    
2019/06/07  14:05:00  BASE  0        310  0        M    -1.3  100   -1.3  1     0     985.7    NA       0.0000   -SN      BR    3400  0    
2019/06/07  14:06:00  BASE  0        312  0        M    -1.2  100   -1.2  1     0     985.7    NA       0.0000   -SN      BR    2900  0    
2019/06/07  14:07:00  BASE  0        83   0        M    -1.2  100   -1.2  1     0     985.7    NA       0.0000   -SN      BR    3200  0    
2019/06/07  14:08:00  BASE  0        120  0        M    -1.2  100   -1.2  1     0     985.6    NA       0.0000   -SN      BR    3100  0    
2019/06/07  14:09:00  BASE  0        117  0        M    -1.2  100   -1.2  1     0     985.7    NA       0.0000   -SN      BR    3000  0    
2019/06/07  14:10:00  BASE  0        116  0        M    -1.3  100   -1.3  1     0     985.7    NA       0.0000   -SN      BR    3000  0    
2019/06/07  14:11:00  BASE  0        115  0        M    -1.3  100   -1.3  1     0     985.5    NA       0.0000   -SN      BR    2900  0    
2019/06/07  14:12:00  BASE  0        111  0        M    -1.3  100   -1.3  1     0     985.7    NA       0.0000   -SN      BR    2900  0    
2019/06/07  14:13:00  BASE  0        107  0        M    -1.3  100   -1.3  1     0     985.7    NA       0.0000   -SN      BR    3300  0    
2019/06/07  14:14:00  BASE  0        106  0        M    -1.3  100   -1.3  1     0     985.7    NA       0.0000   -SN      BR    3500  0    
2019/06/07  14:15:00  BASE  0        106  0        M    -1.3  100   -1.3  1     0     985.7    NA       0.0000   -SN      BR    4200  0    
2019/06/07  14:16:00  BASE  0        105  0        M    -1.2  100   -1.2  1     0     985.7    NA       0.0000   -SN      BR    4500  0    
2019/06/07  14:17:00  BASE  0        81   0        M    -1.2  100   -1.2  2     0     985.7    NA       0.0000   -SN      BR    4300  0    
2019/06/07  14:18:00  BASE  0        58   0        M    -1.1  100   -1.1  2     0     985.7    NA       0.0000   -SN      BR    5000  0    
2019/06/07  14:19:00  BASE  0        58   0        M    -1.1  100   -1.1  2     0     985.7    NA       0.0000   -SN      BR    6000  0    
2019/06/07  14:20:00  BASE  0        58   0        M    -1.1  100   -1.1  2     0     985.6    NA       0.0000   -SN      BR    7000  0    
2019/06/07  14:21:00  BASE  0        58   0        M    -1.0  100   -1.0  2     0     985.6    NA       0.0000   -SN      BR    8000  0    
2019/06/07  14:22:00  BASE  0        58   0        M    -1.0  100   -1.0  2     0     985.5    NA       0.0000   -SN      BR    7000  0    
2019/06/07  14:23:00  BASE  0        58   0        M    -1.1  100   -1.1  2     0     985.4    NA       0.0000   -SN      BR    6000  0    
2019/06/07  14:24:00  BASE  0        58   0        M    -1.1  100   -1.1  2     0     985.6    NA       0.0000   -SN      BR    9000  0    
2019/06/07  14:25:00  BASE  0        59   0        M    -1.1  100   -1.1  2     0     985.6    NA       0.0000   -SN      BR    8000  0    
2019/06/07  14:26:00  BASE  0        59   0        M    -1.2  100   -1.2  3     0     985.6    NA       0.0000   -SN      BR    8000  0    
2019/06/07  14:27:00  BASE  0        59   0        M    -1.2  100   -1.2  3     0     985.6    NA       0.0000   -SN      BR    9999  0    
2019/06/07  14:28:00  BASE  0        59   0        M    -1.2  100   -1.2  3     0     985.6    NA       0.0000   -SN      BR    9999  0    
2019/06/07  14:29:00  BASE  0        68   0        M    -1.2  100   -1.2  3     0     985.6    NA       0.0000   -SN      BR    9999  0    
2019/06/07  14:30:00  BASE  0        199  0        M    -1.2  100   -1.2  3     0     985.6    NA       0.0000   -SN      BR    9999  0    
2019/06/07  14:31:00  BASE  0        216  0        M    -1.3  100   -1.3  3     0     985.6    NA       0.0000   -SN      BR    9999  0    
2019/06/07  14:32:00  BASE  0        210  0        M    -1.3  100   -1.3  3     0     985.6    NA       0.0000   -SN      9999  0     0    
2019/06/07  14:33:00  BASE  0        203  0        M    -1.3  100   -1.3  3     0     985.6    NA       0.0000   -SN      9999  0     0    
2019/06/07  14:34:00  BASE  0        193  0        M    -1.3  100   -1.3  3     0     985.6    NA       0.0000   -SN      9999  0     0    
2019/06/07  14:35:00  BASE  0        186  0        M    -1.2  100   -1.2  3     0     985.6    NA       0.0000   -SN      9999  0     0    
2019/06/07  14:36:00  BASE  0        178  0        M    -1.2  100   -1.2  3     0     985.4    NA       0.0000   9999     0     0     0    
2019/06/07  14:37:00  BASE  0        174  0        M    -1.2  100   -1.2  3     0     985.6    NA       0.0000   9999     0     0     0    
2019/06/07  14:38:00  BASE  0        174  0        M    -1.2  100   -1.2  3     0     985.6    NA       0.0000   9999     0     0     0    
2019/06/07  14:39:00  BASE  0        174  0        M    -1.3  100   -1.3  3     0     985.6    NA       0.0000   9999     0     0     0    
2019/06/07  14:40:00  BASE  0        173  0        M    -1.3  100   -1.3  4     0     985.6    NA       0.0000   9999     0     0     0    
2019/06/07  14:41:00  BASE  0        173  0        M    -1.3  100   -1.3  4     0     985.6    NA       0.0000   9999     330   0     0    
2019/06/07  14:42:00  BASE  0        173  0        M    -1.3  100   -1.3  4     0     985.6    NA       0.0000   9999     0     0     0    
2019/06/07  14:43:00  BASE  0        173  0        M    -1.3  100   -1.3  4     0     985.6    NA       0.0000   9999     0     0     0    
2019/06/07  14:44:00  BASE  0        173  0        M    -1.3  100   -1.3  4     0     985.6    NA       0.0000   9999     0     0     0    
2019/06/07  14:45:00  BASE  0        169  0        M    -1.3  100   -1.3  4     0     985.6    NA       0.0000   9999     300   0     0    
2019/06/07  14:46:00  BASE  0        159  0        M    -1.3  100   -1.3  4     0     985.6    NA       0.0000   9999     330   0     0    
2019/06/07  14:47:00  BASE  0        152  0        M    -1.3  100   -1.3  4     0     985.6    NA       0.0000   9999     300   0     0    
2019/06/07  14:48:00  BASE  0        146  0        M    -1.3  100   -1.3  4     0     985.6    NA       0.0000   9999     300   0     0    
2019/06/07  14:49:00  BASE  0        143  0        M    -1.3  100   -1.3  4     0     985.6    NA       0.0000   9999     300   0     0    
2019/06/07  14:50:00  BASE  0        142  0        M    -1.3  100   -1.3  5     0     985.6    NA       0.0000   9999     330   0     0    
2019/06/07  14:51:00  BASE  0        142  0        M    -1.2  100   -1.2  5     0     985.6    NA       0.0000   9999     300   0     0    
2019/06/07  14:52:00  BASE  0        142  0        M    -1.2  100   -1.2  5     0     985.6    NA       0.0000   9999     300   0     0    
2019/06/07  14:53:00  BASE  0        144  0        M    -1.2  100   -1.2  5     0     985.6    NA       0.0000   9999     300   0     0    
2019/06/07  14:54:00  BASE  0        151  0        M    -1.1  100   -1.1  5     0     985.6    NA       0.0000   9999     300   0     0    
2019/06/07  14:55:00  BASE  0        157  0        M    -1.1  100   -1.1  5     0     985.6    NA       0.0000   9999     300   0     0    
2019/06/07  14:56:00  BASE  0        160  0        M    -1.1  100   -1.1  5     0     985.6    NA       0.0000   9999     300   0     0    
2019/06/07  14:57:00  BASE  0        165  0        M    -1.1  100   -1.1  6     0     985.6    NA       0.0000   9999     300   0     0    
2019/06/07  14:58:00  BASE  0        169  0        M    -1.1  100   -1.1  6     0     985.6    NA       0.0000   9999     300   0     0    
2019/06/07  14:59:00  BASE  0        170  0        M    -1.1  100   -1.1  6     0     985.6    NA       0.0000   9999     260   0     0    
2019/06/07  15:00:00  BASE  0        168  0        M    -1.2  100   -1.2  6     0     985.6    NA       0.0000   9999     300   0     0    
2019/06/07  15:01:00  BASE  0        164  0        M    -1.2  100   -1.2  6     0     985.6    NA       0.0000   9999     300   0     0    
2019/06/07  15:02:00  BASE  0        162  0        M    -1.2  100   -1.2  7     0     985.6    NA       0.0000   BR       9000  300   0    
2019/06/07  15:03:00  BASE  0        155  0        M    -1.2  100   -1.2  7     0     985.6    NA       0.0000   BR       9000  260   0    
2019/06/07  15:04:00  BASE  0        149  0        M    -1.2  100   -1.2  7     0     985.6    NA       0.0000   BR       9000  260   0    
2019/06/07  15:05:00  BASE  0        149  0        M    -1.2  100   -1.2  7     0     985.6    NA       0.0000   BR       9000  260   0    
2019/06/07  15:06:00  BASE  0        149  0        M    -1.2  100   -1.2  8     0     985.6    NA       0.0000   BR       8000  0     0    
2019/06/07  15:07:00  BASE  0        149  0        M    -1.2  100   -1.2  8     0     985.6    NA       0.0000   UP       BR    8000  0    
2019/06/07  15:08:00  BASE  0        149  0        M    -1.2  100   -1.2  8     0     985.5    NA       0.0000   UP       BR    9000  0    
2019/06/07  15:09:00  BASE  0        149  0        M    -1.2  100   -1.2  8     0     985.6    NA       0.0000   UP       BR    8000  0    
2019/06/07  15:10:00  BASE  0        149  0        M    -1.1  100   -1.1  9     0     985.6    NA       0.0000   UP       BR    8000  0    
2019/06/07  15:11:00  BASE  0        153  0        M    -1.1  100   -1.1  9     0     985.6    NA       0.0000   UP       BR    6000  0    
2019/06/07  15:12:00  BASE  0        161  0        M    -1.0  100   -1.0  9     0     985.6    NA       0.0000   UP       BR    6000  0    
2019/06/07  15:13:00  BASE  0        174  0        M    -1.0  100   -1.0  9     0     985.6    NA       0.0000   UP       BR    5000  0    
2019/06/07  15:14:00  BASE  0        184  0        M    -1.0  100   -1.0  9     0     985.6    NA       0.0000   UP       BR    5000  0    
2019/06/07  15:15:00  BASE  0        204  0        M    -1.1  100   -1.1  9     0     985.6    NA       0.0000   UP       BR    5000  0    
2019/06/07  15:16:00  BASE  0        244  0        M    -1.0  100   -1.0  9     0     985.6    NA       0.0000   UP       BR    5000  0    
2019/06/07  15:17:00  BASE  0        302  0        M    -1.0  100   -1.0  9     0     985.6    NA       0.0000   UP       BR    4900  0    
2019/06/07  15:18:00  BASE  0        337  0        M    -1.0  100   -1.0  9     0     985.6    NA       0.0000   UP       BR    4400  0    
2019/06/07  15:19:00  BASE  0        337  0        M    -1.0  100   -1.0  9     0     985.6    NA       0.0000   UP       BR    4600  0    
2019/06/07  15:20:00  BASE  0        337  0        M    -1.0  100   -1.0  9     0     985.5    NA       0.0000   UP       BR    5000  0    
2019/06/07  15:21:00  BASE  0        337  0        M    -1.1  100   -1.1  9     0     985.4    NA       0.0000   UP       BR    5000  0    
2019/06/07  15:22:00  BASE  0        337  0        M    -1.1  100   -1.1  9     0     985.4    NA       0.0000   UP       BR    5000  0    
2019/06/07  15:23:00  BASE  0        337  0        M    -1.1  100   -1.1  9     0     985.4    NA       0.0000   UP       BR    5000  0    
2019/06/07  15:24:00  BASE  0        337  0        M    -1.1  100   -1.1  8     0     985.4    NA       0.0000   UP       BR    7000  0    
2019/06/07  15:25:00  BASE  0        337  0        M    -1.0  100   -1.0  8     0     985.4    NA       0.0000   UP       BR    6000  0    
2019/06/07  15:26:00  BASE  0        303  0        M    -1.0  100   -1.0  8     0     985.4    NA       0.0000   UP       BR    5000  0    
2019/06/07  15:27:00  BASE  0        263  0        M    -1.0  100   -1.0  8     0     985.4    NA       0.0000   UP       BR    5000  0    
2019/06/07  15:28:00  BASE  0        260  0        M    -1.0  100   -1.0  7     0     985.4    NA       0.0000   UP       BR    5000  0    
2019/06/07  15:29:00  BASE  0        258  0        M    -1.0  100   -1.0  7     0     985.4    NA       0.0000   UP       BR    6000  0    
2019/06/07  15:30:00  BASE  0        239  0        M    -1.0  100   -1.0  7     0     985.4    NA       0.0000   UP       BR    6000  0    
2019/06/07  15:31:00  BASE  0        211  0        M    -1.0  100   -1.0  7     0     985.4    NA       0.0000   UP       BR    6000  0    
2019/06/07  15:32:00  BASE  0        200  0        M    -1.1  100   -1.1  7     0     985.4    NA       0.0000   UP       BR    6000  0    
2019/06/07  15:33:00  BASE  0        194  0        M    -1.1  100   -1.1  6     0     985.4    NA       0.0000   UP       BR    6000  0    
2019/06/07  15:34:00  BASE  0        190  0        M    -1.1  100   -1.1  6     0     985.4    NA       0.0000   UP       BR    6000  0    
2019/06/07  15:35:00  BASE  0        188  0        M    -1.1  100   -1.1  6     0     985.4    NA       0.0000   UP       BR    6000  0    
2019/06/07  15:36:00  BASE  0        186  0        M    -1.1  100   -1.1  7     0     985.4    NA       0.0000   UP       BR    6000  0    
2019/06/07  15:37:00  BASE  0        184  0        M    -1.1  100   -1.1  7     0     985.4    NA       0.0000   UP       BR    6000  0    
2019/06/07  15:38:00  BASE  0        185  0        M    -1.1  100   -1.1  7     0     985.3    NA       0.2540   UP       BR    6000  0    
2019/06/07  15:39:00  BASE  0        185  0        M    -1.1  100   -1.1  7     0     985.3    NA       0.0000   UP       BR    6000  0    
2019/06/07  15:40:00  BASE  0        185  0        M    -1.1  100   -1.1  7     0     985.3    NA       0.0000   UP       BR    5000  0    
2019/06/07  15:41:00  BASE  0        185  0        M    -1.1  100   -1.1  7     0     985.3    NA       0.0000   UP       BR    5000  0    
2019/06/07  15:42:00  BASE  0        184  0        M    -1.1  100   -1.1  8     0     985.3    NA       0.0000   UP       BR    4800  0    
2019/06/07  15:43:00  BASE  0        183  0        M    -1.1  100   -1.1  8     0     985.3    NA       0.0000   UP       BR    4600  0    
2019/06/07  15:44:00  BASE  0        179  0        M    -1.1  100   -1.1  8     0     985.3    NA       0.0000   UP       BR    5000  0    
2019/06/07  15:45:00  BASE  0        173  0        M    -1.1  100   -1.1  8     0     985.3    NA       0.0000   UP       BR    6000  0    
2019/06/07  15:46:00  BASE  0        166  0        M    -1.2  100   -1.2  8     0     985.3    NA       0.0000   UP       BR    6000  0    
2019/06/07  15:47:00  BASE  0        161  0        M    -1.2  100   -1.2  8     0     985.3    NA       0.0000   UP       BR    6000  0    
2019/06/07  15:48:00  BASE  0        153  0        M    -1.2  100   -1.2  8     0     985.3    NA       0.0000   UP       BR    6000  0    
2019/06/07  15:49:00  BASE  0        143  0        M    -1.2  100   -1.2  8     0     985.3    NA       0.0000   UP       BR    6000  0    
2019/06/07  15:50:00  BASE  0        141  0        M    -1.2  100   -1.2  8     0     985.3    NA       0.0000   UP       BR    6000  0    
2019/06/07  15:51:00  BASE  0        141  0        M    -1.2  100   -1.2  8     0     985.3    NA       0.0000   UP       BR    6000  0    
2019/06/07  15:52:00  BASE  0        141  0        M    -1.1  100   -1.1  9     0     985.1    NA       0.0000   UP       BR    6000  0    
2019/06/07  15:53:00  BASE  0        141  0        M    -1.1  100   -1.1  9     0     985.1    NA       0.0000   UP       BR    6000  0    
2019/06/07  15:54:00  BASE  0        141  0        M    -1.1  100   -1.1  9     0     985.3    NA       0.0000   UP       BR    6000  0    
2019/06/07  15:55:00  BASE  0        141  0        M    -1.1  100   -1.1  9     0     985.3    NA       0.0000   UP       BR    6000  0    
2019/06/07  15:56:00  BASE  0        136  0        M    -1.0  100   -1.0  9     0     985.3    NA       0.0000   UP       BR    6000  0    
2019/06/07  15:57:00  BASE  0        129  0        M    -1.0  100   -1.0  9     0     985.3    NA       0.0000   BR       6000  0     0    
2019/06/07  15:58:00  BASE  0        125  0        M    -1.0  100   -1.0  9     0     985.3    NA       0.0000   BR       6000  0     0    
2019/06/07  15:59:00  BASE  0        124  0        M    -1.0  100   -1.0  9     0     985.3    NA       0.0000   BR       6000  0     0    
2019/06/07  16:00:00  BASE  0        123  0        M    -1.0  100   -1.0  10    0     985.3    NA       0.0000   BR       6000  0     0    
2019/06/07  16:01:00  BASE  0        114  0        M    -1.0  100   -1.0  10    0     985.3    NA       0.0000   BR       5000  0     0    
2019/06/07  16:02:00  BASE  0        72   0        M    -1.0  100   -1.0  10    0     985.3    NA       0.0000   BR       5000  0     0    
2019/06/07  16:03:00  BASE  0        40   0        M    -0.9  100   -0.9  10    0     985.3    NA       0.0000   BR       5000  2360  0    
2019/06/07  16:04:00  BASE  0        30   0        M    -0.9  100   -0.9  9     0     985.3    NA       0.0000   BR       5000  0     0    
2019/06/07  16:05:00  BASE  0        26   0        M    -0.9  100   -0.9  9     0     985.3    NA       0.0000   BR       5000  0     0    
2019/06/07  16:06:00  BASE  0        26   0        M    -0.9  100   -0.9  8     0     985.3    NA       0.0000   BR       5000  0     0    
2019/06/07  16:07:00  BASE  0        26   0        M    -0.9  100   -0.9  8     0     985.3    NA       0.0000   BR       5000  0     0    
2019/06/07  16:08:00  BASE  0        26   0        M    -0.9  100   -0.9  8     0     985.3    NA       0.0000   BR       8000  0     0    
2019/06/07  16:09:00  BASE  0        26   0        M    -0.9  100   -0.9  7     0     985.3    NA       0.0000   BR       9999  0     0    
2019/06/07  16:10:00  BASE  0        26   0        M    -0.9  100   -0.9  7     0     985.3    NA       0.0000   BR       9999  0     0    
2019/06/07  16:11:00  BASE  0        26   0        M    -0.9  100   -0.9  7     0     984.9    NA       0.0000   BR       9999  0     0    
2019/06/07  16:12:00  BASE  0        26   0        M    -0.9  100   -0.9  7     0     985.3    NA       0.0000   BR       9999  0     0    
2019/06/07  16:13:00  BASE  0        26   0        M    -0.9  100   -0.9  7     0     985.3    NA       0.0000   BR       9999  0     0    
2019/06/07  16:14:00  BASE  0        26   0        M    -0.9  100   -0.9  6     0     985.3    NA       0.0000   BR       9999  0     0    
2019/06/07  16:15:00  BASE  0        26   0        M    -0.9  100   -0.9  6     0     985.3    NA       0.0000   9999     0     0     0    
2019/06/07  16:16:00  BASE  0        26   0        M    -0.9  100   -0.9  6     0     985.3    NA       0.0000   9999     0     0     0    
2019/06/07  16:17:00  BASE  0        26   0        M    -0.9  100   -0.9  6     0     985.3    NA       0.0000   UP       9000  0     0    
2019/06/07  16:18:00  BASE  0        26   0        M    -0.9  100   -0.9  6     0     985.3    NA       0.0000   UP       9999  0     0    
2019/06/07  16:19:00  BASE  0        26   0        M    -0.9  100   -0.9  5     0     985.2    NA       0.0000   UP       9999  0     0    
2019/06/07  16:20:00  BASE  0        26   0        M    -0.9  100   -0.9  5     0     985.3    NA       0.0000   UP       9999  0     0    
2019/06/07  16:21:00  BASE  0        47   0        M    -1.0  100   -1.0  5     0     985.2    NA       0.0000   UP       9999  0     0    
2019/06/07  16:22:00  BASE  0        89   0        M    -1.0  100   -1.0  5     0     985.2    NA       0.0000   UP       9999  0     0    
2019/06/07  16:23:00  BASE  0        101  0        M    -1.0  100   -1.0  5     0     985.2    NA       0.0000   UP       9999  0     0    
2019/06/07  16:24:00  BASE  0        101  0        M    -1.0  100   -1.0  5     0     985.2    NA       0.0000   UP       9999  4040  0    
2019/06/07  16:25:00  BASE  0        101  0        M    -1.0  100   -1.0  5     0     985.2    NA       0.0000   UP       9999  0     0    
2019/06/07  16:26:00  BASE  0        101  0        M    -1.0  100   -1.0  5     0     985.2    NA       0.0000   UP       9999  0     0    
2019/06/07  16:27:00  BASE  0        101  0        M    -1.0  100   -1.0  5     0     985.2    NA       0.0000   9999     3940  0     0    
2019/06/07  16:28:00  BASE  0        100  0        M    -1.0  100   -1.0  5     0     985.2    NA       0.0000   9999     3870  0     0    
2019/06/07  16:29:00  BASE  0        72   0        M    -1.0  100   -1.0  6     0     985.2    NA       0.0000   9999     0     0     0    
2019/06/07  16:30:00  BASE  0        37   0        M    -1.0  100   -1.0  6     0     985.1    NA       0.0000   9999     3840  0     0    
2019/06/07  16:31:00  BASE  0        29   0        M    -1.0  100   -1.0  6     0     985.1    NA       0.0000   9999     0     0     0    
2019/06/07  16:32:00  BASE  0        29   0        M    -1.1  100   -1.1  6     0     985.1    NA       0.0000   9999     0     0     0    
2019/06/07  16:33:00  BASE  0        29   0        M    -1.1  100   -1.1  5     0     985.1    NA       0.0000   9999     0     0     0    
2019/06/07  16:34:00  BASE  0        29   0        M    -1.1  100   -1.1  5     0     985.1    NA       0.0000   9999     0     0     0    
2019/06/07  16:35:00  BASE  0        29   0        M    -1.1  100   -1.1  5     0     985.1    NA       0.0000   9999     0     0     0    
2019/06/07  16:36:00  BASE  0        58   0        M    -1.1  100   -1.1  5     0     985.0    NA       0.0000   9999     3740  0     0    
2019/06/07  16:37:00  BASE  0        104  0        M    -1.0  100   -1.0  4     0     985.1    NA       0.0000   9999     3710  0     0    
2019/06/07  16:38:00  BASE  0        116  0        M    -1.0  100   -1.0  4     0     985.1    NA       0.0000   9999     0     0     0    
2019/06/07  16:39:00  BASE  0.04704  115  1.1172   6    -1.0  100   -1.0  4     0     985.1    NA       0.0000   9999     0     0     0    
2019/06/07  16:40:00  BASE  0.04704  123  1.1172   6    -1.0  100   -1.0  4     0     985.1    NA       0.0000   9999     0     0     0    
2019/06/07  16:41:00  BASE  0        130  1.1172   6    -1.0  100   -1.0  4     0     985.1    NA       0.0000   9999     3610  0     0    
2019/06/07  16:42:00  BASE  0        133  1.1172   6    -1.0  100   -1.0  4     0     985.0    NA       0.0000   9999     3640  0     0    
2019/06/07  16:43:00  BASE  0        141  1.1172   6    -1.0  100   -1.0  4     0     985.1    NA       0.0000   UP       9999  3670  0    
2019/06/07  16:44:00  BASE  0        147  1.1172   6    -1.0  100   -1.0  4     0     985.1    NA       0.0000   UP       9999  3710  0    
2019/06/07  16:45:00  BASE  0        150  1.1172   6    -1.1  100   -1.1  4     0     985.1    NA       0.0000   UP       9000  0     0    
2019/06/07  16:46:00  BASE  0.13524  158  1.1172   6    -1.1  100   -1.1  4     0     985.0    NA       0.0000   UP       9999  3670  0    
2019/06/07  16:47:00  BASE  0.57036  167  1.1172   6    -1.2  100   -1.2  4     0     985.0    NA       0.0000   UP       9999  3710  0    
2019/06/07  16:48:00  BASE  0.84672  170  1.1172   6    -1.2  100   -1.2  4     0     985.0    NA       0.0000   UP       9999  3610  0    
2019/06/07  16:49:00  BASE  0.81732  166  0.93492  170  -1.2  100   -1.2  4     0     985.0    NA       0.0000   UP       9999  0     0    
2019/06/07  16:50:00  BASE  0.84672  156  1.029    144  -1.2  100   -1.2  4     0     984.9    NA       0.0000   UP       9999  3540  0    
2019/06/07  16:51:00  BASE  0.9702   150  1.1172   151  -1.2  100   -1.2  4     0     984.9    NA       0.0000   UP       BR    9999  3480 
2019/06/07  16:52:00  BASE  1.06428  150  1.18188  150  -1.2  100   -1.2  3     0     984.9    NA       0.0000   UP       BR    9999  3380 
2019/06/07  16:53:00  BASE  1.15836  151  1.35828  153  -1.2  100   -1.2  3     0     984.9    NA       0.0000   UP       BR    9999  3350 
2019/06/07  16:54:00  BASE  1.31712  152  1.48176  152  -1.2  100   -1.2  3     0     984.9    NA       0.0000   UP       BR    9000  3480 
2019/06/07  16:55:00  BASE  1.42296  152  1.48176  152  -1.2  100   -1.2  3     0     984.8    NA       0.0000   UP       BR    8000  3480 
2019/06/07  16:56:00  BASE  1.42296  153  1.48176  152  -1.2  100   -1.2  3     0     984.8    NA       0.0000   UP       BR    8000  3250 
2019/06/07  16:57:00  BASE  1.47     154  1.63464  152  -1.2  100   -1.2  3     0     984.8    NA       0.0000   UP       BR    9000  3220 
2019/06/07  16:58:00  BASE  1.55232  153  1.66404  150  -1.2  100   -1.2  3     0     984.8    NA       0.0000   UP       BR    9000  3380 
2019/06/07  16:59:00  BASE  1.617    151  1.81692  147  -1.2  100   -1.2  3     0     984.8    NA       0.0000   UP       BR    8000  3310 
2019/06/07  17:00:00  BASE  1.78752  150  2.058    150  -1.1  100   -1.1  3     0     984.8    NA       0.0000   UP       BR    9000  3310 
2019/06/07  17:01:00  BASE  2.00508  150  2.1462   152  -1.1  100   -1.1  3     0     984.8    NA       0.0000   UP       BR    9999  0    
2019/06/07  17:02:00  BASE  2.14032  151  2.29908  155  -1.1  100   -1.1  3     0     984.8    NA       0.0000   UP       BR    9999  3310 
2019/06/07  17:03:00  BASE  2.18148  153  2.29908  155  -1.1  100   -1.1  3     0     984.8    NA       0.0000   UP       BR    8000  3940 
2019/06/07  17:04:00  BASE  2.08152  152  2.29908  155  -1.1  100   -1.1  3     0     984.8    NA       0.0000   UP       BR    8000  0    
2019/06/07  17:05:00  BASE  1.83456  149  2.29908  155  -1.1  100   -1.1  3     0     984.8    NA       0.0000   UP       BR    9999  3310 
2019/06/07  17:06:00  BASE  1.53468  148  2.29908  155  -1.1  100   -1.1  3     0     984.8    NA       0.0000   UP       BR    9999  3280 
2019/06/07  17:07:00  BASE  1.42296  147  2.29908  155  -1.1  100   -1.1  3     0     984.8    NA       0.0000   UP       BR    9999  0    
2019/06/07  17:08:00  BASE  1.37592  144  2.29908  155  -1.1  100   -1.1  3     0     984.8    NA       0.0000   UP       BR    9999  0    
2019/06/07  17:09:00  BASE  1.37004  139  2.29908  155  -1.1  100   -1.1  3     0     984.8    NA       0.0000   UP       9999  0     0    
2019/06/07  17:10:00  BASE  1.34652  132  2.29908  155  -1.1  100   -1.1  3     0     984.8    NA       0.0000   UP       9999  0     0    
2019/06/07  17:11:00  BASE  1.2348   125  2.29908  155  -1.0  100   -1.0  3     0     984.8    NA       0.0000   UP       9999  0     0    
2019/06/07  17:12:00  BASE  1.15836  123  2.21088  157  -1.0  100   -1.0  3     0     984.8    NA       0.0000   UP       9999  0     0    
2019/06/07  17:13:00  BASE  0.97608  115  2.1168   153  -1.0  100   -1.0  3     0     984.8    NA       0.0000   UP       9999  0     0    
2019/06/07  17:14:00  BASE  0.95256  109  1.87572  152  -1.0  100   -1.0  3     0     984.8    NA       0.0000   UP       9999  490   0    
2019/06/07  17:15:00  BASE  0.90552  112  1.66404  149  -1.0  100   -1.0  3     0     984.8    NA       0.0000   UP       9999  490   0    
2019/06/07  17:16:00  BASE  0.43512  115  1.66404  149  -1.0  100   -1.0  3     0     984.8    NA       0.0000   UP       9999  490   0    
2019/06/07  17:17:00  BASE  0.10584  95   1.63464  132  -1.0  100   -1.0  3     0     984.8    NA       0.0000   UP       9000  430   0    
2019/06/07  17:18:00  BASE  0.12936  88   1.63464  132  -1.0  100   -1.0  3     0     984.8    NA       0.0000   UP       9999  330   3280 
2019/06/07  17:19:00  BASE  0.40572  103  1.54056  126  -1.0  100   -1.0  3     0     984.8    NA       0.0000   UP       6000  330   0    
2019/06/07  17:20:00  BASE  0.80556  103  1.35828  121  -1.1  100   -1.1  2     0     984.8    NA       0.0000   UP       BR    7000  430  
2019/06/07  17:21:00  BASE  1.1466   98   1.66404  86   -1.1  100   -1.1  2     0     984.8    NA       0.0000   -SN      BR    7000  430  
2019/06/07  17:22:00  BASE  1.4994   93   1.69344  97   -1.2  100   -1.2  2     0     984.8    NA       0.0000   -SN      BR    7000  430  
2019/06/07  17:23:00  BASE  1.68756  96   1.81692  101  -1.2  100   -1.2  2     0     984.8    NA       0.0000   -SN      BR    7000  430  
2019/06/07  17:24:00  BASE  1.7346   98   1.81692  100  -1.2  100   -1.2  2     0     984.8    NA       0.0000   -SN      BR    8000  430  
2019/06/07  17:25:00  BASE  1.78752  97   1.90512  94   -1.2  100   -1.2  2     0     984.8    NA       0.0000   -SN      BR    9999  3150 
2019/06/07  17:26:00  BASE  1.87572  94   1.96392  93   -1.2  100   -1.2  2     0     984.8    NA       0.0000   -SN      BR    9999  430  
2019/06/07  17:27:00  BASE  1.86984  94   1.96392  93   -1.2  100   -1.2  2     0     984.8    NA       0.0000   -SN      BR    9999  430  
2019/06/07  17:28:00  BASE  1.81692  95   1.96392  93   -1.2  100   -1.2  2     0     984.8    NA       0.0000   -SN      BR    9999  2850 
2019/06/07  17:29:00  BASE  1.81692  99   1.96392  93   -1.2  100   -1.2  2     0     984.8    NA       0.0000   -SN      BR    9999  3180 
2019/06/07  17:30:00  BASE  1.81692  106  1.96392  93   -1.2  100   -1.2  2     0     984.8    NA       0.0000   -SN      BR    9999  3180 
2019/06/07  17:31:00  BASE  1.92864  108  2.1462   107  -1.2  100   -1.2  2     0     984.8    NA       0.0000   -SN      BR    9999  2590 
2019/06/07  17:32:00  BASE  1.9992   109  2.1462   107  -1.2  100   -1.2  2     0     984.8    NA       0.0000   -SN      9999  2590  0    
2019/06/07  17:33:00  BASE  1.9992   114  2.1462   107  -1.2  100   -1.2  2     0     984.8    NA       0.0000   -SN      9999  2530  0    
2019/06/07  17:34:00  BASE  2.02272  119  2.1462   107  -1.2  100   -1.2  2     0     984.8    NA       0.0000   -SN      9999  2850  0    
2019/06/07  17:35:00  BASE  2.01096  121  2.1462   107  -1.2  100   -1.2  2     0     984.7    NA       0.0000   -SN      9999  2590  0    
2019/06/07  17:36:00  BASE  1.98156  120  2.1462   107  -1.2  100   -1.2  2     0     984.7    NA       0.0000   -SN      9999  2530  3180 
2019/06/07  17:37:00  BASE  1.9992   119  2.1462   107  -1.1  100   -1.1  2     0     984.8    NA       0.0000   -SN      9999  3150  0    
2019/06/07  17:38:00  BASE  1.98156  119  2.1462   107  -1.0  100   -1.0  2     0     984.8    NA       0.0000   -SN      9000  490   3220 
2019/06/07  17:39:00  BASE  1.94628  121  2.1462   107  -1.0  100   -1.0  2     0     984.8    NA       0.0000   -SN      8000  460   3220 
2019/06/07  17:40:00  BASE  1.87572  122  2.1462   107  -0.9  100   -0.9  2     0     984.8    NA       0.0000   -SN      9000  490   0    
2019/06/07  17:41:00  BASE  1.7346   119  2.1462   107  -0.8  100   -0.8  2     0     984.8    NA       0.0000   -SN      9000  520   0    
2019/06/07  17:42:00  BASE  1.5288   118  2.1168   126  -0.8  100   -0.8  2     0     984.8    NA       0.0000   -SN      9999  490   0    
2019/06/07  17:43:00  BASE  1.32888  118  2.1168   126  -0.8  100   -0.8  2     0     984.8    NA       0.0000   -SN      9999  520   3150 
2019/06/07  17:44:00  BASE  1.19364  117  2.1168   126  -0.8  100   -0.8  2     0     984.8    NA       0.0000   -SN      9999  430   0    
2019/06/07  17:45:00  BASE  0.84672  113  2.1168   126  -0.8  100   -0.8  2     0     984.8    NA       0.0000   -SN      9999  390   0    
2019/06/07  17:46:00  BASE  0.28224  108  2.1168   126  -0.8  100   -0.8  2     0     984.8    NA       0.0000   -SN      9999  390   0    
2019/06/07  17:47:00  BASE  0        104  2.1168   126  -0.8  100   -0.8  2     0     984.8    NA       0.0000   -SN      9999  360   0    
2019/06/07  17:48:00  BASE  0        99   2.1168   126  -0.8  100   -0.8  2     0     984.8    NA       0.0000   -SN      9999  330   0    
2019/06/07  17:49:00  BASE  0        90   2.0286   119  -0.8  100   -0.8  2     0     984.8    NA       0.0000   -SN      9999  260   0    
2019/06/07  17:50:00  BASE  0        92   1.81692  124  -0.7  100   -0.7  2     0     984.8    NA       0.0000   -SN      9999  0     0    
2019/06/07  17:51:00  BASE  0        104  1.60524  118  -0.7  100   -0.7  2     0     984.8    NA       0.0000   -SN      9999  0     0    
2019/06/07  17:52:00  BASE  0        114  1.35828  125  -0.7  100   -0.7  2     0     984.7    NA       0.0000   -SN      9999  0     0    
2019/06/07  17:53:00  BASE  0.2058   115  1.24068  116  -0.7  100   -0.7  2     0     984.8    NA       0.0000   -SN      9999  0     0    
2019/06/07  17:54:00  BASE  0.2352   112  1.0584   122  -0.7  100   -0.7  2     0     984.8    NA       0.0000   -SN      9999  0     0    
2019/06/07  17:55:00  BASE  0.07644  116  0.87612  112  -0.7  100   -0.7  2     0     984.8    NA       0.0000   -SN      9999  0     0    
2019/06/07  17:56:00  BASE  0.05292  120  0.87612  112  -0.7  100   -0.7  2     0     984.8    NA       0.0000   -SN      9999  0     0    
2019/06/07  17:57:00  BASE  0        105  0.87612  112  -0.7  100   -0.7  2     0     984.8    NA       0.0000   -SN      9999  0     0    
2019/06/07  17:58:00  BASE  0        59   0.87612  112  -0.7  100   -0.7  2     0     984.8    NA       0.0000   -SN      9999  0     0    
2019/06/07  17:59:00  BASE  0.52332  359  1.63464  308  -0.8  100   -0.8  2     0     984.8    NA       0.0000   -SN      9999  0     0    
2019/06/07  18:00:00  BASE  0.8526   326  1.63464  308  -0.8  100   -0.8  2     0     984.8    NA       0.0000   -SN      9999  330   0    
2019/06/07  18:01:00  BASE  0.4998   334  1.63464  308  -0.9  100   -0.9  2     0     984.8    NA       0.0000   9999     330   0     0    
2019/06/07  18:02:00  BASE  0.94668  345  1.90512  345  -1.0  100   -1.0  2     0     984.8    NA       0.0000   9999     330   0     0    
2019/06/07  18:03:00  BASE  1.59348  341  1.90512  345  -1.1  100   -1.1  2     0     984.8    NA       0.0000   9999     260   0     0    
2019/06/07  18:04:00  BASE  1.5582   342  1.90512  345  -1.2  100   -1.2  2     0     984.8    NA       0.0000   9999     0     0     0    
2019/06/07  18:05:00  BASE  1.2936   348  1.90512  345  -1.2  100   -1.2  2     0     984.8    NA       0.0000   9999     0     0     0    
2019/06/07  18:06:00  BASE  0.93492  349  1.90512  345  -1.2  100   -1.2  2     0     984.8    NA       0.0000   9999     300   0     0    
2019/06/07  18:07:00  BASE  0.68796  341  1.90512  345  -1.2  100   -1.2  2     0     984.8    NA       0.0000   9999     0     0     0    
2019/06/07  18:08:00  BASE  0.68796  335  1.90512  345  -1.2  100   -1.2  2     0     984.8    NA       0.0000   9999     0     0     0    
2019/06/07  18:09:00  BASE  0.81732  327  1.90512  345  -1.2  100   -1.2  2     0     984.8    NA       0.0000   9999     260   0     0    
2019/06/07  18:10:00  BASE  0.94668  326  1.90512  345  -1.2  100   -1.2  2     0     984.8    NA       0.0000   9999     0     0     0    
2019/06/07  18:11:00  BASE  1.24068  331  1.90512  345  -1.2  100   -1.2  2     0     984.8    NA       0.0000   9999     0     0     0    
2019/06/07  18:12:00  BASE  1.4406   335  1.72284  337  -1.2  100   -1.2  2     0     984.8    NA       0.0000   9999     0     0     0    
2019/06/07  18:13:00  BASE  1.3524   336  1.66404  335  -1.2  100   -1.2  2     0     984.8    NA       0.0000   9999     0     0     0    
2019/06/07  18:14:00  BASE  1.31712  333  1.66404  335  -1.2  100   -1.2  2     0     984.8    NA       0.0000   9999     0     0     0    
2019/06/07  18:15:00  BASE  1.34652  325  1.66404  335  -1.2  100   -1.2  2     0     984.8    NA       0.0000   9999     0     0     0    
2019/06/07  18:16:00  BASE  1.31124  322  1.75224  330  -1.2  100   -1.2  1     0     984.8    NA       0.0000   9999     0     0     0    
2019/06/07  18:17:00  BASE  1.40532  324  1.75224  330  -1.2  100   -1.2  1     0     984.8    NA       0.0000   9999     0     0     0    
2019/06/07  18:18:00  BASE  1.62288  323  2.0286   319  -1.2  100   -1.2  1     0     984.8    NA       0.0000   9999     0     0     0    
2019/06/07  18:19:00  BASE  1.89924  321  2.29908  324  -1.3  100   -1.3  1     0     984.7    NA       0.0000   9999     0     0     0    
2019/06/07  18:20:00  BASE  2.08152  321  2.29908  323  -1.3  100   -1.3  1     0     984.6    NA       0.0000   9999     0     0     0    
2019/06/07  18:21:00  BASE  1.98156  319  2.29908  323  -1.3  100   -1.3  1     0     984.8    NA       0.0000   9999     0     0     0    
2019/06/07  18:22:00  BASE  1.83456  319  2.29908  323  -1.3  100   -1.3  1     0     984.8    NA       0.0000   9999     0     0     0    
2019/06/07  18:23:00  BASE  1.76988  322  2.29908  323  -1.3  100   -1.3  1     0     984.8    NA       0.0000   9999     0     0     0    
2019/06/07  18:24:00  BASE  1.81104  326  2.29908  323  -1.3  100   -1.3  1     0     984.8    NA       0.0000   9999     0     0     0    
2019/06/07  18:25:00  BASE  1.86984  329  2.29908  323  -1.3  100   -1.3  1     0     984.7    NA       0.0000   9999     0     0     0    
2019/06/07  18:26:00  BASE  1.6464   324  2.29908  323  -1.3  100   -1.3  1     0     984.6    NA       0.0000   9999     0     0     0    
2019/06/07  18:27:00  BASE  1.34064  315  2.29908  323  -1.3  100   -1.3  1     0     984.8    NA       0.0000   9999     0     0     0    
2019/06/07  18:28:00  BASE  1.30536  309  2.29908  323  -1.4  100   -1.4  1     0     984.7    NA       0.0000   BR       7000  0     0    
2019/06/07  18:29:00  BASE  1.44648  309  2.29908  323  -1.4  100   -1.4  1     0     984.7    NA       0.0000   UP       BR    5000  0    
2019/06/07  18:30:00  BASE  1.59936  309  1.9992   329  -1.4  100   -1.4  1     0     984.7    NA       0.0000   UP       BR    5000  0    
2019/06/07  18:31:00  BASE  1.617    308  1.9992   329  -1.4  100   -1.4  1     0     984.7    NA       0.0000   UP       BR    5000  0    
2019/06/07  18:32:00  BASE  1.5288   312  1.9992   329  -1.4  100   -1.4  1     0     984.7    NA       0.0000   UP       BR    5000  0    
2019/06/07  18:33:00  BASE  1.51704  314  1.9992   329  -1.4  100   -1.4  1     0     984.7    NA       0.0000   UP       BR    4500  0    
2019/06/07  18:34:00  BASE  1.51704  315  1.9992   329  -1.4  100   -1.4  1     0     984.7    NA       0.0000   UP       BR    3700  0    
2019/06/07  18:35:00  BASE  1.43472  316  1.75224  306  -1.4  100   -1.4  1     0     984.7    NA       0.0000   UP       BR    3700  0    
2019/06/07  18:36:00  BASE  1.32888  318  1.75224  306  -1.4  100   -1.4  1     0     984.7    NA       0.0000   UP       BR    3700  390  
2019/06/07  18:37:00  BASE  1.21128  317  1.75224  306  -1.4  100   -1.4  1     0     984.6    NA       0.0000   UP       BR    3700  430  
2019/06/07  18:38:00  BASE  1.06428  317  1.75224  306  -1.4  100   -1.4  1     0     984.7    NA       0.0000   UP       BR    4400  360  
2019/06/07  18:39:00  BASE  1.02312  318  1.75224  306  -1.3  100   -1.3  1     0     984.7    NA       0.0000   UP       BR    5000  430  
2019/06/07  18:40:00  BASE  1.11132  319  1.69344  310  -1.3  100   -1.3  1     0     984.7    NA       0.0000   UP       BR    5000  0    
2019/06/07  18:41:00  BASE  1.12896  318  1.60524  314  -1.3  100   -1.3  1     0     984.7    NA       0.0000   UP       BR    5000  0    
2019/06/07  18:42:00  BASE  1.12308  321  1.60524  314  -1.3  100   -1.3  1     0     984.7    NA       0.0000   UP       BR    5000  0    
2019/06/07  18:43:00  BASE  1.02312  323  1.51116  314  -1.4  100   -1.4  0     0     984.7    NA       0.0000   UP       BR    5000  0    
2019/06/07  18:44:00  BASE  0.81732  323  1.42296  318  -1.4  100   -1.4  0     0     984.7    NA       0.0000   UP       BR    5000  0    
2019/06/07  18:45:00  BASE  0.62328  324  1.32888  318  -1.4  100   -1.4  0     0     984.7    NA       0.0000   UP       BR    5000  0    
2019/06/07  18:46:00  BASE  0.53508  325  1.24068  325  -1.4  100   -1.4  0     0     984.7    NA       0.0000   UP       BR    5000  0    
2019/06/07  18:47:00  BASE  0.51156  332  1.24068  325  -1.4  100   -1.4  0     0     984.7    NA       0.0000   UP       BR    5000  0    
2019/06/07  18:48:00  BASE  0.61152  344  1.24068  325  -1.4  100   -1.4  0     0     984.7    NA       0.0000   UP       BR    4700  0    
2019/06/07  18:49:00  BASE  0.7644   352  1.24068  325  -1.4  100   -1.4  0     0     984.7    NA       0.0000   UP       BR    4300  0    
2019/06/07  18:50:00  BASE  0.78792  356  1.24068  325  -1.4  100   -1.4  0     0     984.7    NA       0.0000   UP       BR    3600  0    
2019/06/07  18:51:00  BASE  0.735    359  1.24068  325  -1.4  100   -1.4  0     0     984.7    NA       0.0000   UP       BR    3800  0    
2019/06/07  18:52:00  BASE  0.36456  1    0.9702   322  -1.4  100   -1.4  0     0     984.7    NA       0.0000   UP       BR    7000  0    
2019/06/07  18:53:00  BASE  0.0294   8    0.84672  1    -1.4  100   -1.4  0     0     984.6    NA       0.0000   UP       BR    8000  0    
2019/06/07  18:54:00  BASE  0.0294   15   0.84672  1    -1.4  100   -1.4  0     0     984.6    NA       0.0000   UP       BR    6000  0    
2019/06/07  18:55:00  BASE  0.0294   8    0.84672  1    -1.4  100   -1.4  0     0     984.6    NA       0.0000   UP       BR    4800  0    
2019/06/07  18:56:00  BASE  0.02352  356  0.84672  1    -1.4  100   -1.4  0     0     984.6    NA       0.0000   -SN      BR    5000  0    
2019/06/07  18:57:00  BASE  0.02352  349  0.84672  1    -1.4  100   -1.4  0     0     984.6    NA       0.0000   -SN      BR    5000  0    
2019/06/07  18:58:00  BASE  0        348  0.84672  1    -1.3  100   -1.3  0     0     984.6    NA       0.0000   -SN      BR    6000  0    
2019/06/07  18:59:00  BASE  0        345  0.84672  1    -1.3  100   -1.3  0     0     984.6    NA       0.0000   -SN      BR    5000  0    
2019/06/07  19:00:00  BASE  0        344  0.72324  360  -1.3  100   -1.3  0     0     984.6    NA       0.0000   -SN      BR    6000  0    
2019/06/07  19:01:00  BASE  0        354  0.63504  15   -1.3  100   -1.3  0     0     984.6    NA       0.0000   -SN      BR    6000  0    
2019/06/07  19:02:00  BASE  0        24   0.63504  15   -1.3  100   -1.3  0     0     984.5    NA       0.0000   -SN      BR    5000  0    
2019/06/07  19:03:00  BASE  0        45   0.63504  15   -1.3  100   -1.3  0     0     984.5    NA       0.0000   -SN      BR    6000  0    
2019/06/07  19:04:00  BASE  0        49   0.60564  350  -1.3  100   -1.3  0     0     984.5    NA       0.0000   -SN      BR    7000  0    
2019/06/07  19:05:00  BASE  0        45   0.60564  350  -1.3  100   -1.3  0     0     984.5    NA       0.0000   -SN      BR    6000  0    
2019/06/07  19:06:00  BASE  0        37   0        M    -1.3  100   -1.3  0     0     984.5    NA       0.0000   -SN      BR    5000  0    
2019/06/07  19:07:00  BASE  0        34   0        M    -1.3  100   -1.3  0     0     984.5    NA       0.0000   -SN      BR    5000  0    
2019/06/07  19:08:00  BASE  0        35   0        M    -1.3  100   -1.3  0     0     984.5    NA       0.0000   -SN      BR    5000  0    
2019/06/07  19:09:00  BASE  0        34   0        M    -1.3  100   -1.3  0     0     984.5    NA       0.0000   -SN      BR    5000  0    
2019/06/07  19:10:00  BASE  0        34   0        M    -1.2  100   -1.2  0     0     984.5    NA       0.0000   -SN      BR    5000  0    
2019/06/07  19:11:00  BASE  0        34   0        M    -1.2  100   -1.2  0     0     984.5    NA       0.0000   -SN      BR    5000  0    
2019/06/07  19:12:00  BASE  0        34   0        M    -1.2  100   -1.2  0     0     984.5    NA       0.0000   -SN      BR    5000  0    
2019/06/07  19:13:00  BASE  0        37   0        M    -1.2  100   -1.2  0     0     984.5    NA       0.0000   -SN      BR    6000  0    
2019/06/07  19:14:00  BASE  0        39   0        M    -1.2  100   -1.2  0     0     984.5    NA       0.0000   -SN      BR    6000  0    
2019/06/07  19:15:00  BASE  0        23   0        M    -1.2  100   -1.2  0     0     984.4    NA       0.0000   -SN      BR    7000  0    
2019/06/07  19:16:00  BASE  0        21   0        M    -1.3  100   -1.3  0     0     984.3    NA       0.0000   -SN      BR    8000  0    
2019/06/07  19:17:00  BASE  0        41   0        M    -1.3  100   -1.3  0     0     984.3    NA       0.0000   -SN      BR    9000  0    
2019/06/07  19:18:00  BASE  0        56   0        M    -1.3  100   -1.3  0     0     984.3    NA       0.0000   -SN      BR    6000  0    
2019/06/07  19:19:00  BASE  0        63   0        M    -1.3  100   -1.3  0     0     984.3    NA       0.0000   -SN      BR    6000  0    
2019/06/07  19:20:00  BASE  0        66   0        M    -1.2  100   -1.2  0     0     984.3    NA       0.0000   -SN      BR    6000  0    
2019/06/07  19:21:00  BASE  0        87   0        M    -1.2  100   -1.2  0     0     984.3    NA       0.0000   -SN      BR    6000  0    
2019/06/07  19:22:00  BASE  0        107  0        M    -1.2  100   -1.2  0     0     984.3    NA       0.0000   -SN      BR    7000  0    
2019/06/07  19:23:00  BASE  0        117  0        M    -1.2  100   -1.2  0     0     984.3    NA       0.0000   -SN      BR    7000  0    
2019/06/07  19:24:00  BASE  0        153  0        M    -1.2  100   -1.2  0     0     984.3    NA       0.0000   -SN      BR    6000  0    
2019/06/07  19:25:00  BASE  0        184  0        M    -1.2  100   -1.2  0     0     984.3    NA       0.0000   -SN      BR    6000  0    
2019/06/07  19:26:00  BASE  0        190  0        M    -1.2  100   -1.2  0     0     984.3    NA       0.0000   -SN      BR    6000  0    
2019/06/07  19:27:00  BASE  0        197  0        M    -1.2  100   -1.2  0     0     984.3    NA       0.0000   -SN      BR    5000  0    
2019/06/07  19:28:00  BASE  0        198  0        M    -1.2  100   -1.2  0     0     984.3    NA       0.0000   -SN      BR    5000  0    
2019/06/07  19:29:00  BASE  0        198  0        M    -1.2  100   -1.2  0     0     984.3    NA       0.0000   -SN      BR    4700  0    
2019/06/07  19:30:00  BASE  0        198  0        M    -1.3  100   -1.3  0     0     984.3    NA       0.0000   -SN      BR    4200  0    
2019/06/07  19:31:00  BASE  0        195  0        M    -1.2  100   -1.2  0     0     984.3    NA       0.0000   -SN      BR    4600  0    
2019/06/07  19:32:00  BASE  0        146  0        M    -1.2  100   -1.2  0     0     984.3    NA       0.0000   -SN      BR    4600  0    
2019/06/07  19:33:00  BASE  0        100  0        M    -1.2  100   -1.2  0     0     984.3    NA       0.0000   -SN      BR    4700  0    
2019/06/07  19:34:00  BASE  0        99   0        M    -1.2  100   -1.2  0     0     984.3    NA       0.0000   -SN      BR    5000  0    
2019/06/07  19:35:00  BASE  0.10584  84   0.90552  68   -1.2  100   -1.2  0     0     984.3    NA       0.0000   -SN      BR    4900  0    
2019/06/07  19:36:00  BASE  0.735    68   1.87572  66   -1.2  100   -1.2  0     0     984.3    NA       0.0000   -SN      BR    4900  0    
2019/06/07  19:37:00  BASE  1.76988  66   2.38728  68   -1.2  100   -1.2  0     0     984.3    NA       0.0000   -SN      BR    5000  0    
2019/06/07  19:38:00  BASE  2.15208  66   2.38728  68   -1.2  100   -1.2  0     0     984.3    NA       0.0000   -SN      BR    4900  0    
2019/06/07  19:39:00  BASE  1.51116  56   2.38728  68   -1.2  100   -1.2  0     0     984.3    NA       0.0000   -SN      BR    4900  0    
2019/06/07  19:40:00  BASE  0.50568  36   2.38728  68   -1.2  100   -1.2  0     0     984.2    NA       0.0000   -SN      BR    5000  0    
2019/06/07  19:41:00  BASE  0.33516  0    2.38728  68   -1.3  100   -1.3  0     0     984.2    NA       0.0000   -SN      BR    9000  0    
2019/06/07  19:42:00  BASE  1.07016  348  2.38728  68   -1.3  100   -1.3  0     0     984.1    NA       0.0000   -SN      BR    9999  0    
2019/06/07  19:43:00  BASE  1.8522   30   3.1164   68   -1.3  100   -1.3  0     0     984.1    NA       0.0000   -SN      BR    9999  0    
2019/06/07  19:44:00  BASE  2.25204  86   3.1164   68   -1.3  100   -1.3  0     0     984.1    NA       0.0000   -SN      BR    9000  0    
2019/06/07  19:45:00  BASE  1.92864  123  3.1164   68   -1.3  100   -1.3  0     0     984.1    NA       0.0000   -SN      BR    5000  0    
2019/06/07  19:46:00  BASE  1.69932  102  3.1164   68   -1.3  100   -1.3  0     0     984.1    NA       0.0000   -SN      BR    6000  0    
2019/06/07  19:47:00  BASE  1.6758   73   3.1164   68   -1.3  100   -1.3  0     0     984.1    NA       0.0000   -SN      BR    9999  0    
2019/06/07  19:48:00  BASE  1.3524   120  3.1164   68   -1.3  100   -1.3  0     0     984.1    NA       0.0000   -SN      BR    8000  0    
2019/06/07  19:49:00  BASE  1.48764  156  3.1164   68   -1.2  100   -1.2  0     0     984.1    NA       0.0000   -SN      BR    6000  0    
2019/06/07  19:50:00  BASE  2.01096  161  3.1164   68   -1.2  100   -1.2  0     0     984.1    NA       0.0000   -SN      BR    6000  3410 
2019/06/07  19:51:00  BASE  2.15208  169  3.1164   68   -1.2  100   -1.2  0     0     984.1    NA       0.0000   -SN      BR    6000  3310 
2019/06/07  19:52:00  BASE  2.09328  164  3.1164   68   -1.2  100   -1.2  0     0     984.1    NA       0.0000   -SN      BR    6000  3280 
2019/06/07  19:53:00  BASE  2.26968  149  3.02232  87   -1.2  100   -1.2  0     0     984.1    NA       0.0000   -SN      BR    8000  0    
2019/06/07  19:54:00  BASE  2.38728  140  2.75184  135  -1.2  100   -1.2  0     0     984.1    NA       0.0000   -SN      BR    8000  0    
2019/06/07  19:55:00  BASE  2.21088  140  2.75184  135  -1.2  100   -1.2  0     0     984.1    NA       0.0000   -SN      BR    8000  3350 
2019/06/07  19:56:00  BASE  1.97568  142  2.75184  135  -1.2  100   -1.2  0     0     984.1    NA       0.0000   -SN      BR    7000  3380 
2019/06/07  19:57:00  BASE  1.65816  140  2.75184  135  -1.2  100   -1.2  0     0     984.1    NA       0.0000   -SN      BR    7000  3380 
2019/06/07  19:58:00  BASE  1.10544  134  2.75184  135  -1.2  100   -1.2  0     0     984.1    NA       0.0000   -SN      BR    9000  3350 
2019/06/07  19:59:00  BASE  0.72912  143  2.75184  135  -1.2  100   -1.2  0     0     984.1    NA       0.0000   -SN      BR    9999  3310 
2019/06/07  20:00:00  BASE  1.09956  158  2.75184  135  -1.2  100   -1.2  0     0     984.1    NA       0.0000   -SN      BR    9999  3280 
2019/06/07  20:01:00  BASE  1.54644  165  2.75184  135  -1.2  100   -1.2  0     0     984.1    NA       0.0000   -SN      BR    9999  230  
2019/06/07  20:02:00  BASE  1.47     164  2.75184  135  -1.2  100   -1.2  0     0     984.1    NA       0.0000   -SN      BR    9999  0    
2019/06/07  20:03:00  BASE  1.32888  161  2.48136  137  -1.2  100   -1.2  0     0     984.1    NA       0.0000   -SN      BR    9999  0    
2019/06/07  20:04:00  BASE  1.22304  163  2.29908  140  -1.2  100   -1.2  0     0     984.1    NA       0.0000   -SN      BR    9000  3350 
2019/06/07  20:05:00  BASE  1.28772  160  2.0874   140  -1.2  100   -1.2  0     0     984.1    NA       0.0000   -SN      BR    6000  3310 
2019/06/07  20:06:00  BASE  1.39944  154  1.87572  163  -1.2  100   -1.2  0     0     984.1    NA       0.0000   -SN      BR    5000  300  
2019/06/07  20:07:00  BASE  1.15248  150  1.87572  163  -1.2  100   -1.2  0     0     984.1    NA       0.0000   -SN      BR    7000  0    
2019/06/07  20:08:00  BASE  0.65856  133  1.87572  163  -1.2  100   -1.2  0     0     984.1    NA       0.0000   -SN      BR    7000  0    
2019/06/07  20:09:00  BASE  0.22344  103  1.87572  163  -1.2  100   -1.2  0     0     984.1    NA       0.0000   -SN      BR    7000  0    
2019/06/07  20:10:00  BASE  0.0294   92   1.87572  163  -1.2  100   -1.2  0     0     984.1    NA       0.0000   -SN      BR    8000  360  
2019/06/07  20:11:00  BASE  0.39984  96   1.63464  151  -1.2  100   -1.2  0     0     984.1    NA       0.0000   -SN      BR    8000  0    
2019/06/07  20:12:00  BASE  0.71736  113  1.63464  151  -1.2  100   -1.2  0     0     984.1    NA       0.0000   -SN      BR    9000  0    
2019/06/07  20:13:00  BASE  0.42336  160  1.63464  151  -1.2  100   -1.2  0     0     984.1    NA       0.0000   -SN      BR    9999  2790 
2019/06/07  20:14:00  BASE  0.95844  48   2.1462   10   -1.2  100   -1.2  0     0     984.1    NA       0.0000   -SN      BR    9999  2660 
2019/06/07  20:15:00  BASE  2.78124  26   6.2034   43   -1.3  100   -1.3  0     0     984.1    NA       0.0000   -SN      BR    9999  2720 
2019/06/07  20:16:00  BASE  5.16852  40   7.3794   43   -1.3  100   -1.3  0     0     984.0    NA       0.0000   -SN      BR    9999  2820 
2019/06/07  20:17:00  BASE  5.41548  50   7.3794   43   -1.4  100   -1.4  0     0     984.1    NA       0.0000   -SN      9999  2820  0    
2019/06/07  20:18:00  BASE  3.56328  56   7.3794   43   -1.4  100   -1.4  0     0     984.1    NA       0.0000   -SN      9999  2790  0    
2019/06/07  20:19:00  BASE  1.9404   89   7.3794   43   -1.5  100   -1.5  0     0     984.1    NA       0.0000   -SN      9999  2850  0    
2019/06/07  20:20:00  BASE  0.77616  122  7.3794   43   -1.4  100   -1.4  0     0     984.1    NA       0.0000   -SN      9999  2790  0    
2019/06/07  20:21:00  BASE  0.7056   120  7.3794   43   -1.3  100   -1.3  0     0     984.1    NA       0.0000   -SN      9999  2790  0    
2019/06/07  20:22:00  BASE  0.92904  113  7.3794   43   -1.3  100   -1.3  0     0     984.1    NA       0.0000   -SN      9999  2790  0    
2019/06/07  20:23:00  BASE  0.95256  109  7.3794   43   -1.2  100   -1.2  0     0     984.0    NA       0.0000   9999     2790  0     0    
2019/06/07  20:24:00  BASE  1.21128  123  7.3794   43   -1.2  100   -1.2  0     0     984.0    NA       0.0000   9999     2790  0     0    
2019/06/07  20:25:00  BASE  1.74048  138  7.3794   43   -1.2  100   -1.2  0     0     984.0    NA       0.0000   9999     2820  0     0    
2019/06/07  20:26:00  BASE  2.16972  147  5.41548  53   -1.3  100   -1.3  0     0     984.0    NA       0.0000   9999     2820  0     0    
2019/06/07  20:27:00  BASE  2.44608  156  4.02192  41   -1.3  100   -1.3  0     0     984.0    NA       0.0000   9999     2760  0     0    
2019/06/07  20:28:00  BASE  2.72832  159  3.0576   158  -1.3  100   -1.3  0     0     984.0    NA       0.0000   9999     2820  0     0    
2019/06/07  20:29:00  BASE  2.94588  159  3.1164   160  -1.3  100   -1.3  0     0     984.0    NA       0.0000   9999     2790  0     0    
2019/06/07  20:30:00  BASE  3.09876  155  3.234    153  -1.4  100   -1.4  0     0     984.0    NA       0.0000   9999     2890  0     0    
2019/06/07  20:31:00  BASE  3.26928  151  3.48096  153  -1.4  100   -1.4  0     0     984.0    NA       0.0000   9999     2760  0     0    
2019/06/07  20:32:00  BASE  3.26928  146  3.48096  153  -1.4  100   -1.4  0     0     984.0    NA       0.0000   9999     2690  0     0    
2019/06/07  20:33:00  BASE  3.1164   142  3.48096  153  -1.4  100   -1.4  0     0     984.1    NA       0.0000   9999     2720  0     0    
2019/06/07  20:34:00  BASE  2.99292  141  3.48096  153  -1.4  100   -1.4  0     0     984.1    NA       0.0000   9999     2760  0     0    
2019/06/07  20:35:00  BASE  2.87532  135  3.48096  153  -1.4  100   -1.4  0     0     984.1    NA       0.0000   9999     2720  0     0    
2019/06/07  20:36:00  BASE  2.75772  126  3.48096  153  -1.4  100   -1.4  0     0     984.1    NA       0.0000   9999     2720  0     0    
2019/06/07  20:37:00  BASE  2.63424  121  3.48096  153  -1.4  100   -1.4  0     0     984.1    NA       0.0000   9999     2760  0     0    
2019/06/07  20:38:00  BASE  2.43432  114  3.48096  153  -1.4  100   -1.4  0     0     984.2    NA       0.0000   9999     2760  0     0    
2019/06/07  20:39:00  BASE  2.25204  105  3.48096  153  -1.4  100   -1.4  0     0     984.2    NA       0.0000   9999     2720  0     0    
2019/06/07  20:40:00  BASE  2.37552  95   3.48096  153  -1.4  100   -1.4  0     0     984.2    NA       0.0000   9999     1940  2790  0    
2019/06/07  20:41:00  BASE  2.76948  83   3.41628  145  -1.4  100   -1.4  0     0     984.2    NA       0.0000   9999     1840  0     0    
2019/06/07  20:42:00  BASE  3.08112  76   3.35748  78   -1.4  100   -1.4  0     0     984.1    NA       0.0000   9999     1710  0     0    
2019/06/07  20:43:00  BASE  3.13404  74   3.41628  73   -1.4  100   -1.4  0     0     984.1    NA       0.0000   9999     1570  0     0    
2019/06/07  20:44:00  BASE  3.15168  73   3.41628  73   -1.3  100   -1.3  0     0     984.1    NA       0.0000   9999     0     0     0    
2019/06/07  20:45:00  BASE  3.01644  76   3.41628  73   -1.3  100   -1.3  0     0     984.1    NA       0.0000   9999     1480  0     0    
2019/06/07  20:46:00  BASE  2.80476  78   3.41628  73   -1.2  100   -1.2  0     0     984.1    NA       0.0000   9999     1710  0     0    
2019/06/07  20:47:00  BASE  2.69304  81   3.41628  73   -1.2  100   -1.2  0     0     984.1    NA       0.0000   9999     1540  0     0    
2019/06/07  20:48:00  BASE  2.5284   86   3.41628  73   -1.2  100   -1.2  0     0     984.1    NA       0.0000   9999     1350  0     0    
2019/06/07  20:49:00  BASE  2.8518   90   3.99252  89   -1.2  100   -1.2  0     0     984.1    NA       0.0000   9999     1310  0     0    
2019/06/07  20:50:00  BASE  3.83964  89   4.59816  83   -1.2  100   -1.2  0     0     984.1    NA       0.0000   UP       9999  1480  0    
2019/06/07  20:51:00  BASE  4.32768  83   4.65696  72   -1.1  100   -1.1  0     0     984.1    NA       0.0000   UP       9999  1480  0    
2019/06/07  20:52:00  BASE  4.28652  74   5.05092  68   -1.1  100   -1.1  0     0     984.0    NA       0.0000   UP       9999  1280  0    
2019/06/07  20:53:00  BASE  5.30964  59   8.83176  51   -1.1  100   -1.1  0     0     984.0    NA       0.0000   UP       9999  920   0    
2019/06/07  20:54:00  BASE  5.48604  43   8.83176  51   -1.3  100   -1.3  0     0     984.0    NA       0.0000   UP       9999  1310  0    
2019/06/07  20:55:00  BASE  4.2042   30   8.83176  51   -1.4  100   -1.4  0     0     983.9    NA       0.0000   UP       9999  950   0    
2019/06/07  20:56:00  BASE  3.40452  26   8.83176  51   -1.5  100   -1.5  0     0     983.9    NA       0.0000   UP       9999  1150  0    
2019/06/07  20:57:01  BASE  3.40452  39   8.83176  51   -1.7  100   -1.7  0     0     983.9    NA       0.0000   UP       9999  1180  0    
2019/06/07  20:58:00  BASE  3.2928   55   8.83176  51   -1.7  100   -1.7  0     0     983.9    NA       0.0000   UP       8000  1210  0    
2019/06/07  20:59:00  BASE  3.21048  77   8.83176  51   -1.7  100   -1.7  0     0     983.9    NA       0.0000   UP       7000  1250  0    
2019/06/07  21:00:00  BASE  3.54564  99   8.83176  51   -1.6  100   -1.6  0     0     983.9    NA       0.0000   UP       7000  1350  0    
2019/06/07  21:01:00  BASE  3.53388  100  8.83176  51   -1.6  100   -1.6  0     0     983.9    NA       0.0000   -SN      8000  1350  0    
2019/06/07  21:02:00  BASE  3.53388  94   8.83176  51   -1.5  100   -1.5  0     0     983.9    NA       0.0000   -SN      9000  0     0    
2019/06/07  21:03:00  BASE  3.13404  98   7.13832  47   -1.5  100   -1.5  0     0     983.9    NA       0.0000   -SN      BR    9999  1480 
2019/06/07  21:04:00  BASE  2.87532  106  4.78044  49   -1.4  100   -1.4  0     0     983.9    NA       0.0000   -SN      BR    9999  1440 
2019/06/07  21:05:00  BASE  3.0576   102  4.78044  49   -1.4  100   -1.4  0     0     983.9    NA       0.0000   -SN      BR    9999  0    
2019/06/07  21:06:00  BASE  3.22224  96   4.86864  90   -1.4  100   -1.4  0     0     983.9    NA       0.0000   -SN      BR    9999  1250 
2019/06/07  21:07:00  BASE  3.98664  89   4.86864  83   -1.4  100   -1.4  0     0     983.9    NA       0.0000   -SN      BR    9999  1570 
2019/06/07  21:08:00  BASE  4.27476  83   4.86864  83   -1.3  100   -1.3  0     0     983.9    NA       0.0000   -SN      9999  0     0    
2019/06/07  21:09:00  BASE  4.1748   86   4.86864  83   -1.3  100   -1.3  0     0     983.9    NA       0.0000   -SN      9999  1570  0    
2019/06/07  21:10:00  BASE  4.57464  76   5.2332   58   -1.2  100   -1.2  0     0     983.9    NA       0.0000   -SN      9999  1250  0    
2019/06/07  21:11:00  BASE  4.2924   54   5.62716  55   -1.3  100   -1.3  0     0     983.9    NA       0.0000   -SN      9999  1150  0    
2019/06/07  21:12:00  BASE  3.34572  52   5.62716  55   -1.3  100   -1.3  0     0     983.9    NA       0.0000   -SN      9999  1210  0    
2019/06/07  21:13:00  BASE  2.499    62   5.62716  55   -1.3  100   -1.3  0     0     983.9    NA       0.0000   -SN      9999  1210  0    
2019/06/07  21:14:00  BASE  1.911    67   5.62716  55   -1.4  100   -1.4  0     0     983.9    NA       0.0000   -SN      9999  1210  0    
2019/06/07  21:15:00  BASE  1.77576  79   5.62716  55   -1.4  100   -1.4  0     0     983.9    NA       0.0000   -SN      9999  1280  0    
2019/06/07  21:16:00  BASE  2.1168   91   5.62716  55   -1.4  100   -1.4  0     0     983.9    NA       0.0000   -SN      9999  0     0    
2019/06/07  21:17:00  BASE  2.92824  98   5.62716  55   -1.4  100   -1.4  0     0     983.8    NA       0.0000   -SN      9999  690   1540 
2019/06/07  21:18:00  BASE  3.90432  93   5.62716  55   -1.4  100   -1.4  0     0     983.7    NA       0.0000   -SN      9999  1940  0    
2019/06/07  21:19:00  BASE  3.95136  84   5.62716  55   -1.4  100   -1.4  0     0     983.7    NA       0.0000   -SN      9999  2300  0    
2019/06/07  21:20:00  BASE  3.86316  58   5.62716  55   -1.4  100   -1.4  0     0     983.7    NA       0.0000   9999     2300  0     0    
2019/06/07  21:21:00  BASE  4.12776  38   5.3214   20   -1.4  100   -1.4  0     0     983.7    NA       0.0000   9999     2300  0     0    
2019/06/07  21:22:00  BASE  4.0866   50   5.3214   20   -1.5  100   -1.5  0     0     983.7    NA       0.0000   9999     2360  0     0    
2019/06/07  21:23:00  BASE  3.89844  68   5.3214   20   -1.5  100   -1.5  0     0     983.7    NA       0.0000   9999     2490  0     0    
2019/06/07  21:24:00  BASE  3.75144  79   5.3214   20   -1.5  100   -1.5  0     0     983.7    NA       0.0000   9999     2490  0     0    
2019/06/07  21:25:00  BASE  3.82788  89   5.53308  89   -1.5  100   -1.5  0     0     983.7    NA       0.0000   9999     2230  0     0    
2019/06/07  21:26:00  BASE  4.4688   90   6.53268  75   -1.5  100   -1.5  0     0     983.6    NA       0.0000   9999     1970  0     0    
2019/06/07  21:27:00  BASE  5.29788  72   6.53268  53   -1.5  100   -1.5  0     0     983.6    NA       0.0000   9999     2400  0     0    
2019/06/07  21:28:00  BASE  4.8216   73   6.53268  53   -1.5  100   -1.5  0     0     983.6    NA       0.0000   9999     2400  0     0    
2019/06/07  21:29:00  BASE  3.95724  95   6.53268  53   -1.5  100   -1.5  0     0     983.6    NA       0.0000   9999     2200  0     0    
2019/06/07  21:30:00  BASE  4.59228  80   7.2618   50   -1.6  100   -1.6  0     0     983.5    NA       0.0000   9999     2300  0     0    
2019/06/07  21:31:00  BASE  5.29788  51   7.2618   50   -1.6  100   -1.6  0     0     983.5    NA       0.0000   9999     2330  0     0    
2019/06/07  21:32:00  BASE  4.74516  46   7.2618   50   -1.6  100   -1.6  0     0     983.5    NA       0.0000   9999     2400  0     0    
2019/06/07  21:33:00  BASE  4.8216   45   7.2618   50   -1.6  100   -1.6  0     0     983.5    NA       0.0000   9999     2690  0     0    
2019/06/07  21:34:00  BASE  5.78592  46   7.2618   50   -1.7  100   -1.7  0     0     983.5    NA       0.0000   9999     2850  5580  0    
2019/06/07  21:35:00  BASE  6.07992  53   7.2618   50   -1.7  100   -1.7  0     0     983.5    NA       0.0000   9999     2950  5510  0    
2019/06/07  21:36:00  BASE  5.60364  61   7.2618   50   -1.6  100   -1.6  0     0     983.5    NA       0.0000   9999     2890  5450  0    
2019/06/07  21:37:00  BASE  5.23908  67   7.2618   50   -1.6  100   -1.6  0     0     983.5    NA       0.0000   9999     2820  3670  5510 
2019/06/07  21:38:00  BASE  4.8804   72   7.2618   50   -1.6  100   -1.6  0     0     983.5    NA       0.0000   9999     2850  3710  5580 
2019/06/07  21:39:00  BASE  4.01016  84   7.2618   50   -1.5  100   -1.5  0     0     983.5    NA       0.0000   9999     2890  0     0    
2019/06/07  21:40:00  BASE  4.05132  95   6.74436  45   -1.5  100   -1.5  0     0     983.5    NA       0.0000   9999     2890  0     0    
2019/06/07  21:41:00  BASE  4.86276  98   6.68556  44   -1.5  100   -1.5  0     0     983.4    NA       0.0000   9999     2850  0     0    
2019/06/07  21:42:00  BASE  5.2626   100  6.68556  44   -1.5  100   -1.5  0     0     983.5    NA       0.0000   9999     2820  0     0    
2019/06/07  21:43:00  BASE  4.92744  89   6.68556  44   -1.5  100   -1.5  0     0     983.5    NA       0.0000   9999     3050  3640  0    
2019/06/07  21:44:00  BASE  4.24536  71   6.65616  49   -1.5  100   -1.5  0     0     983.5    NA       0.0000   9999     2990  0     0    
2019/06/07  21:45:00  BASE  4.68636  56   6.98544  38   -1.5  100   -1.5  0     0     983.5    NA       0.0000   9999     2990  0     0    
2019/06/07  21:46:00  BASE  4.82748  56   6.98544  38   -1.5  100   -1.5  0     0     983.5    NA       0.0000   9999     2890  0     0    
2019/06/07  21:47:00  BASE  3.77496  63   6.98544  38   -1.5  100   -1.5  0     0     983.5    NA       0.0000   9999     2890  0     0    
2019/06/07  21:48:00  BASE  3.45744  69   6.98544  38   -1.5  100   -1.5  0     0     983.5    NA       0.0000   9999     2820  0     0    
2019/06/07  21:49:00  BASE  3.9984   78   6.98544  38   -1.5  100   -1.5  0     0     983.5    NA       0.0000   9999     2850  0     0    
2019/06/07  21:50:00  BASE  4.32768  74   6.98544  38   -1.4  100   -1.4  0     0     983.5    NA       0.0000   9999     2990  0     0    
2019/06/07  21:51:00  BASE  3.92196  70   6.98544  38   -1.4  100   -1.4  0     0     983.5    NA       0.0000   9999     2920  3450  5410 
2019/06/07  21:52:00  BASE  3.51624  82   6.98544  38   -1.4  100   -1.4  0     0     983.5    NA       0.0000   9999     3450  5280  0    
2019/06/07  21:53:00  BASE  3.81024  94   6.98544  38   -1.4  100   -1.4  0     0     983.5    NA       0.0000   9999     3250  5250  0    
2019/06/07  21:54:00  BASE  3.69852  101  6.98544  38   -1.4  100   -1.4  0     0     983.5    NA       0.0000   9999     3450  5090  0    
2019/06/07  21:55:00  BASE  2.86356  109  5.99172  80   -1.4  100   -1.4  0     0     983.5    NA       0.0000   9999     3380  5320  0    
2019/06/07  21:56:00  BASE  2.62248  102  5.99172  80   -1.3  100   -1.3  0     0     983.5    NA       0.0000   9999     3410  5150  0    
2019/06/07  21:57:00  BASE  2.62248  112  5.99172  80   -1.3  100   -1.3  0     0     983.5    NA       0.0000   9999     3180  5250  0    
2019/06/07  21:58:00  BASE  2.74008  113  5.99172  80   -1.2  100   -1.2  0     0     983.5    NA       0.0000   9999     3150  5220  0    
2019/06/07  21:59:00  BASE  2.66952  92   5.83884  77   -1.2  100   -1.2  0     0     983.5    NA       0.0000   9999     3120  5250  0    
2019/06/07  22:00:00  BASE  2.60484  100  4.89804  81   -1.2  100   -1.2  0     0     983.5    NA       0.0000   9999     3120  5350  0    
2019/06/07  22:01:00  BASE  2.47548  112  4.89804  81   -1.3  100   -1.3  0     0     983.5    NA       0.0000   9999     3220  5220  0    
2019/06/07  22:02:00  BASE  1.8522   114  4.89804  81   -1.3  100   -1.3  0     0     983.5    NA       0.0000   9999     3150  5150  0    
2019/06/07  22:03:00  BASE  2.2344   97   4.68636  53   -1.3  100   -1.3  0     0     983.5    NA       0.0000   9999     3150  5250  0    
2019/06/07  22:04:00  BASE  2.68128  92   4.68636  53   -1.3  100   -1.3  0     0     983.5    NA       0.0000   9999     3220  5120  0    
2019/06/07  22:05:00  BASE  2.18148  98   4.68636  53   -1.2  100   -1.2  0     0     983.5    NA       0.0000   9999     3220  5280  0    
2019/06/07  22:06:00  BASE  1.79928  90   4.68636  53   -1.2  100   -1.2  0     0     983.5    NA       0.0000   9999     3220  5280  0    
2019/06/07  22:07:00  BASE  1.65816  73   4.68636  53   -1.2  100   -1.2  0     0     983.5    NA       0.0000   9999     3150  5320  0    
2019/06/07  22:08:00  BASE  2.85768  77   5.83884  102  -1.2  100   -1.2  0     0     983.5    NA       0.0000   9999     3120  5280  0    
2019/06/07  22:09:00  BASE  4.851    85   6.321    78   -1.2  100   -1.2  0     0     983.4    NA       0.0000   9999     3150  5250  0    
2019/06/07  22:10:00  BASE  5.45076  79   6.92664  70   -1.3  100   -1.3  0     0     983.4    NA       0.0000   9999     3480  5220  0    
2019/06/07  22:11:00  BASE  4.7628   79   6.92664  70   -1.3  100   -1.3  0     0     983.4    NA       0.0000   9999     3450  5220  0    
2019/06/07  22:12:00  BASE  3.5868   90   6.92664  70   -1.3  100   -1.3  0     0     983.4    NA       0.0000   9999     3410  5250  0    
2019/06/07  22:13:00  BASE  3.19872  93   6.92664  70   -1.2  100   -1.2  0     0     983.4    NA       0.0000   9999     3410  0     0    
2019/06/07  22:14:00  BASE  3.79848  84   6.92664  70   -1.2  100   -1.2  0     0     983.4    NA       0.0000   9999     3380  0     0    
2019/06/07  22:15:00  BASE  4.86864  74   6.92664  70   -1.2  100   -1.2  0     0     983.3    NA       0.0000   9999     2260  3350  0    
2019/06/07  22:16:00  BASE  4.86276  78   6.92664  70   -1.2  100   -1.2  0     0     983.4    NA       0.0000   9999     3380  0     0    
2019/06/07  22:17:00  BASE  3.74556  88   6.92664  70   -1.2  100   -1.2  0     0     983.3    NA       0.0000   9999     3410  0     0    
2019/06/07  22:18:00  BASE  4.47468  80   7.47348  80   -1.2  100   -1.2  0     0     983.3    NA       0.0000   9999     3350  0     0    
2019/06/07  22:19:00  BASE  5.1744   77   7.47348  80   -1.2  100   -1.2  0     0     983.3    NA       0.0000   9999     3280  0     0    
2019/06/07  22:20:00  BASE  4.22184  87   7.47348  80   -1.2  100   -1.2  0     0     983.3    NA       0.0000   9999     3280  5120  0    
2019/06/07  22:21:00  BASE  3.53388  96   7.47348  80   -1.1  100   -1.1  0     0     983.3    NA       0.0000   9999     3350  5090  0    
2019/06/07  22:22:00  BASE  3.28104  106  7.47348  80   -1.1  100   -1.1  0     0     983.4    NA       0.0000   9999     3350  5050  0    
2019/06/07  22:23:00  BASE  3.33984  110  7.47348  80   -1.1  100   -1.1  0     0     983.4    NA       0.0000   9999     3410  5050  0    
2019/06/07  22:24:00  BASE  3.40452  117  7.47348  80   -1.1  100   -1.1  0     0     983.4    NA       0.0000   9999     3410  5050  0    
2019/06/07  22:25:00  BASE  3.01644  120  7.47348  80   -1.1  100   -1.1  0     0     983.4    NA       0.0000   9999     3350  5120  0    
2019/06/07  22:26:00  BASE  2.50488  121  7.47348  80   -1.1  100   -1.1  0     0     983.4    NA       0.0000   9999     3310  5220  0    
2019/06/07  22:27:00  BASE  2.4402   132  7.47348  80   -1.1  100   -1.1  0     0     983.4    NA       0.0000   9999     3280  5150  0    
2019/06/07  22:28:00  BASE  2.36376  118  5.89764  70   -1.1  100   -1.1  0     0     983.4    NA       0.0000   9999     3280  5150  0    
2019/06/07  22:29:00  BASE  2.06976  69   4.86864  93   -1.2  100   -1.2  0     0     983.4    NA       0.0000   9999     3250  5180  0    
2019/06/07  22:30:00  BASE  1.74636  54   3.81024  109  -1.3  100   -1.3  0     0     983.4    NA       0.0000   9999     3310  5180  0    
2019/06/07  22:31:00  BASE  1.76988  55   3.83964  40   -1.3  100   -1.3  0     0     983.4    NA       0.0000   9999     5180  0     0    
2019/06/07  22:32:00  BASE  3.1752   53   6.2622   59   -1.4  100   -1.4  0     0     983.4    NA       0.0000   9999     3280  5220  0    
2019/06/07  22:33:00  BASE  5.59776  71   8.3202   77   -1.5  100   -1.5  0     0     983.3    NA       0.0000   9999     3280  5180  0    
2019/06/07  22:34:00  BASE  5.65656  81   8.3202   77   -1.4  100   -1.4  0     0     983.3    NA       0.0000   9999     3280  5150  0    
2019/06/07  22:35:00  BASE  4.21008  87   8.3202   77   -1.4  100   -1.4  0     0     983.4    NA       0.0000   9999     5120  0     0    
2019/06/07  22:36:00  BASE  4.09248  97   8.3202   77   -1.3  100   -1.3  0     0     983.4    NA       0.0000   9999     3220  5180  0    
2019/06/07  22:37:00  BASE  3.95136  103  8.3202   77   -1.2  100   -1.2  0     0     983.4    NA       0.0000   9999     1740  3220  5180 
2019/06/07  22:38:00  BASE  3.48684  111  8.3202   77   -1.2  100   -1.2  0     0     983.4    NA       0.0000   9999     1210  5090  0    
2019/06/07  22:39:00  BASE  3.44568  105  8.3202   77   -1.1  100   -1.1  0     0     983.4    NA       0.0000   9999     3280  5050  0    
2019/06/07  22:40:00  BASE  3.25164  93   8.3202   77   -1.2  100   -1.2  0     0     983.4    NA       0.0000   9999     3220  5050  0    
2019/06/07  22:41:00  BASE  3.08112  94   8.3202   77   -1.2  100   -1.2  0     0     983.4    NA       0.0000   9999     5090  0     0    
2019/06/07  22:42:00  BASE  3.21636  74   8.3202   77   -1.3  100   -1.3  0     0     983.4    NA       0.0000   9999     2130  5180  0    
2019/06/07  22:43:00  BASE  2.4108   73   6.10932  59   -1.3  100   -1.3  0     0     983.4    NA       0.0000   9999     3220  5220  0    
2019/06/07  22:44:00  BASE  1.93452  81   4.80984  90   -1.4  100   -1.4  0     0     983.4    NA       0.0000   9999     5180  0     0    
2019/06/07  22:45:00  BASE  2.66364  72   4.56876  63   -1.4  100   -1.4  0     0     983.4    NA       0.0000   9999     5250  0     0    
2019/06/07  22:46:00  BASE  3.7338   64   6.74436  44   -1.4  100   -1.4  0     0     983.4    NA       0.0000   9999     5350  0     0    
2019/06/07  22:47:00  BASE  4.19244  56   6.74436  44   -1.5  100   -1.5  0     0     983.3    NA       0.0000   9999     5380  0     0    
2019/06/07  22:48:00  BASE  5.27436  38   8.04384  29   -1.5  100   -1.5  0     0     983.3    NA       0.0000   9999     3310  5380  0    
2019/06/07  22:49:00  BASE  6.10344  23   8.04384  29   -1.5  100   -1.5  0     0     983.3    NA       0.0000   9999     3250  5510  0    
2019/06/07  22:50:00  BASE  6.27396  23   8.77296  10   -1.5  100   -1.5  0     0     983.3    NA       0.0000   9999     3250  0     0    
2019/06/07  22:51:00  BASE  5.75652  36   8.77296  10   -1.4  100   -1.4  0     0     983.4    NA       0.0000   9999     3220  0     0    
2019/06/07  22:52:00  BASE  5.36844  49   8.77296  10   -1.4  100   -1.4  0     0     983.3    NA       0.0000   9999     3180  0     0    
2019/06/07  22:53:00  BASE  6.63852  40   8.77296  10   -1.4  100   -1.4  0     0     983.2    NA       0.0000   9999     3120  0     0    
2019/06/07  22:54:00  BASE  7.54404  35   9.74316  35   -1.4  100   -1.4  0     0     983.2    NA       0.0000   9999     3150  5250  0    
2019/06/07  22:55:00  BASE  6.66792  38   9.74316  35   -1.5  100   -1.5  0     0     983.2    NA       0.0000   9999     5350  0     0    
2019/06/07  22:56:00  BASE  6.43272  40   9.74316  35   -1.5  100   -1.5  0     0     983.2    NA       0.0000   9999     3280  5410  0    
2019/06/07  22:57:00  BASE  7.16772  45   9.74316  35   -1.5  100   -1.5  0     0     983.2    NA       0.0000   9999     3220  5510  0    
2019/06/07  22:58:00  BASE  6.3504   70   9.74316  35   -1.4  100   -1.4  0     0     983.2    NA       0.0000   9999     3220  5450  0    
2019/06/07  22:59:00  BASE  4.94508  92   9.74316  35   -1.3  100   -1.3  0     0     983.3    NA       0.0000   9999     3180  5410  0    
2019/06/07  23:00:00  BASE  4.44528  68   9.74316  35   -1.2  100   -1.2  0     0     983.3    NA       0.0000   9999     3220  5380  0    
2019/06/07  23:01:00  BASE  4.36296  44   9.74316  35   -1.1  100   -1.1  0     0     983.3    NA       0.0000   9999     3250  5050  5450 
2019/06/07  23:02:00  BASE  3.84552  71   9.74316  35   -1.1  100   -1.1  0     0     983.3    NA       0.0000   9999     3250  5050  5480 
2019/06/07  23:03:00  BASE  4.09836  75   9.74316  35   -1.0  100   -1.0  0     0     983.4    NA       0.0000   9999     3180  5020  5580 
2019/06/07  23:04:00  BASE  4.29828  59   8.379    28   -1.0  100   -1.0  0     0     983.3    NA       0.0000   9999     3180  5050  0    
2019/06/07  23:05:00  BASE  5.44488  50   8.379    28   -1.1  100   -1.1  0     0     983.3    NA       0.0000   9999     3150  5580  0    
2019/06/07  23:06:00  BASE  6.86196  39   8.10852  49   -1.1  100   -1.1  0     0     983.3    NA       0.0000   9999     3180  0     0    
2019/06/07  23:07:00  BASE  6.30336  43   7.92624  26   -1.1  100   -1.1  0     0     983.3    NA       0.0000   9999     3150  5450  0    
2019/06/07  23:08:00  BASE  4.72752  43   7.92624  26   -1.2  100   -1.2  0     0     983.3    NA       0.0000   9999     3150  5480  0    
2019/06/07  23:09:00  BASE  4.75692  40   7.92624  26   -1.2  100   -1.2  0     0     983.2    NA       0.0000   9999     4890  0     0    
2019/06/07  23:10:00  BASE  6.4974   36   8.89056  16   -1.2  100   -1.2  0     0     983.1    NA       0.0000   9999     4890  0     0    
2019/06/07  23:11:00  BASE  7.22652  29   8.89056  16   -1.2  100   -1.2  0     0     983.1    NA       0.0000   9999     3250  4920  0    
2019/06/07  23:12:00  BASE  6.07992  18   8.89056  16   -1.1  100   -1.1  0     0     983.2    NA       0.0000   9999     3220  5090  0    
2019/06/07  23:13:00  BASE  4.66872  10   8.89056  16   -1.1  100   -1.1  0     0     983.2    NA       0.0000   9999     3180  5120  0    
2019/06/07  23:14:00  BASE  7.27944  15   11.1014  22   -1.1  100   -1.1  0     0     983.0    NA       0.0000   9999     3220  5020  0    
2019/06/07  23:15:00  BASE  9.66084  20   11.1014  22   -1.2  100   -1.2  0     0     983.1    NA       0.0000   SQ       9999  3250  4950 
2019/06/07  23:16:00  BASE  9.21984  24   11.1014  22   -1.2  100   -1.2  0     0     983.1    NA       0.0000   9999     3220  4950  0    
2019/06/07  23:17:00  BASE  9.53736  20   11.1014  22   -1.3  100   -1.3  0     0     983.0    NA       0.0000   9999     3220  4950  0    
2019/06/07  23:18:00  BASE  9.38448  17   11.1014  22   -1.3  100   -1.4  0     0     983.1    NA       0.0000   9999     3220  4990  0    
2019/06/07  23:19:00  BASE  9.5256   22   12.007   22   -1.4  100   -1.4  0     0     983.0    NA       0.0000   9999     3180  4990  0    
2019/06/07  23:20:00  BASE  10.29    24   12.007   22   -1.4  100   -1.4  0     0     983.0    NA       0.0000   9999     3180  0     0    
2019/06/07  23:21:00  BASE  10.5958  24   12.007   22   -1.5  100   -1.5  0     0     983.0    NA       0.0000   9999     3120  4950  0    
2019/06/07  23:22:00  BASE  10.537   25   12.007   22   -1.5  100   -1.5  0     0     983.0    NA       0.0000   9999     3080  4920  0    
2019/06/07  23:23:00  BASE  10.6428  25   12.007   22   -1.5  100   -1.5  0     0     982.9    NA       0.0000   9999     3120  0     0    
2019/06/07  23:24:00  BASE  10.9721  24   12.1892  25   -1.5  100   -1.5  0     0     982.9    NA       0.0000   9999     3080  0     0    
2019/06/07  23:25:00  BASE  11.0309  25   12.1892  25   -1.5  100   -1.5  0     0     982.9    NA       0.0000   9999     3050  0     0    
2019/06/07  23:26:00  BASE  10.3723  26   12.1892  25   -1.6  100   -1.6  0     0     983.0    NA       0.0000   9999     2990  5350  0    
2019/06/07  23:27:00  BASE  10.3076  25   12.1892  25   -1.6  100   -1.6  0     0     982.9    NA       0.0000   9999     3020  5280  0    
2019/06/07  23:28:00  BASE  11.0662  25   12.7361  19   -1.6  100   -1.6  0     0     982.9    NA       0.0000   9999     3050  5250  0    
2019/06/07  23:29:00  BASE  11.0426  24   12.7361  19   -1.6  100   -1.6  0     0     982.9    NA       0.0000   9999     3020  5250  0    
2019/06/07  23:30:00  BASE  10.4135  24   12.7361  19   -1.5  100   -1.5  0     0     983.0    NA       0.0000   9999     3050  5350  0    
2019/06/07  23:31:00  BASE  9.91368  26   12.7361  19   -1.5  100   -1.5  0     0     983.0    NA       0.0000   9999     3080  0     0    
2019/06/07  23:32:00  BASE  9.3492   30   12.7361  19   -1.5  100   -1.5  0     0     983.1    NA       0.0000   9999     3050  0     0    
2019/06/07  23:33:00  BASE  8.92584  31   12.7361  19   -1.5  100   -1.5  0     0     983.1    NA       0.0000   9999     3020  0     0    
2019/06/07  23:34:00  BASE  9.19632  28   12.7361  19   -1.4  100   -1.4  0     0     983.1    NA       0.0000   9999     2950  0     0    
2019/06/07  23:35:00  BASE  9.31392  30   12.7361  19   -1.4  100   -1.4  0     0     983.1    NA       0.0000   9999     2920  0     0    
2019/06/07  23:36:00  BASE  8.36136  31   12.7361  19   -1.3  100   -1.3  0     0     983.1    NA       0.0000   9999     2950  0     0    
2019/06/07  23:37:00  BASE  7.07364  34   12.7361  19   -1.3  100   -1.3  0     0     983.2    NA       0.0000   9999     3020  0     0    
2019/06/07  23:38:00  BASE  7.6146   35   11.5836  24   -1.3  100   -1.3  0     0     983.0    NA       0.0000   9999     2950  0     0    
2019/06/07  23:39:00  BASE  8.68476  31   11.5836  24   -1.3  100   -1.3  0     0     983.0    NA       0.0000   9999     2850  0     0    
2019/06/07  23:40:00  BASE  8.15556  34   10.7663  33   -1.2  100   -1.2  0     0     983.1    NA       0.0000   9999     2890  5020  0    
2019/06/07  23:41:00  BASE  7.69692  34   10.7663  33   -1.2  100   -1.2  0     0     983.1    NA       0.0000   9999     2890  5020  0    
2019/06/07  23:42:00  BASE  7.938    30   10.7663  33   -1.2  100   -1.2  0     0     983.0    NA       0.0000   9999     2850  5020  0    
2019/06/07  23:43:00  BASE  7.90272  30   10.4958  31   -1.2  100   -1.2  0     0     983.1    NA       0.0000   9999     2850  4950  0    
2019/06/07  23:44:00  BASE  7.69104  31   10.4958  31   -1.2  100   -1.2  0     0     983.1    NA       0.0000   9999     2790  4950  0    
2019/06/07  23:45:00  BASE  7.48524  31   10.1018  27   -1.2  100   -1.2  0     0     983.1    NA       0.0000   9999     2760  4860  0    
2019/06/07  23:46:00  BASE  7.35     31   10.1018  27   -1.2  100   -1.2  0     0     983.1    NA       0.0000   9999     2820  4950  0    
2019/06/07  23:47:00  BASE  8.85528  30   11.1896  33   -1.1  100   -1.1  0     0     982.9    NA       0.0000   9999     2890  0     0    
2019/06/07  23:48:00  BASE  10.3018  29   11.613   28   -1.2  100   -1.2  0     0     982.9    NA       0.0000   9999     2890  0     0    
2019/06/07  23:49:00  BASE  10.5487  28   12.248   21   -1.2  100   -1.2  0     0     982.8    NA       0.0000   9999     2760  0     0    
2019/06/07  23:50:00  BASE  10.4194  27   12.248   21   -1.3  100   -1.3  0     0     982.9    NA       0.0000   9999     2720  4890  0    
2019/06/07  23:51:00  BASE  10.5899  29   12.7067  27   -1.3  100   -1.3  0     0     982.8    NA       0.0000   9999     2720  4890  0    
2019/06/07  23:52:00  BASE  11.2543  29   12.7067  27   -1.4  100   -1.4  0     0     982.8    NA       0.0000   9999     2690  4920  0    
2019/06/07  23:53:00  BASE  10.9427  28   12.7067  27   -1.4  100   -1.4  0     0     982.9    NA       0.0000   9999     2820  0     0    
2019/06/07  23:54:00  BASE  10.1371  29   12.7067  27   -1.5  100   -1.5  0     0     982.9    NA       0.0000   9999     2820  0     0    
2019/06/07  23:55:00  BASE  9.94308  28   12.7067  27   -1.5  100   -1.5  0     0     982.9    NA       0.0000   9999     2890  0     0    
2019/06/07  23:56:00  BASE  9.86664  28   12.7067  27   -1.5  100   -1.5  0     0     982.9    NA       0.0000   9999     2820  0     0    
2019/06/07  23:57:00  BASE  9.86076  29   12.7067  27   -1.5  100   -1.5  0     0     982.8    NA       0.0000   9999     2720  0     0    
2019/06/07  23:58:00  BASE  10.4605  29   12.7067  27   -1.5  100   -1.5  0     0     982.8    NA       0.0000   9999     2690  0     0    
2019/06/07  23:59:00  BASE  10.7957  32   12.7067  27   -1.4  100   -1.4  0     0     982.8    NA       0.2540   9999     2690  0     0